[[{"header":{"parameterUnit":"m.s-1","parameterCategory":1,"la1":31.0,"la2":29.5877,"lo1":-88.7671,"lo2":-86.6584,"dy":0.0162,"dx":0.0185,"nx":115,"ny":88,"refTime":"2024-09-11T00:00:00:Z","depth":0,"parameterNumber":2,"parameterNumberName":"U-component_of_WINDS"},"data":[0.0,0.0,0.0,0.0,0.0,0.0,0.0,0.0,0.0,0.0,0.0,0.0,0.0,0.0,0.0,0.0,0.0,0.0,0.0,0.0,0.0,0.0,0.0,0.0,0.0,0.0,0.0,0.0,0.0,0.0,0.0,0.0,0.0,0.0,0.0,0.0,0.0,0.0,0.0,0.0,0.0,0.0,0.0,0.0,0.0,0.0,0.0,0.0,0.0,0.0,0.0,0.0,0.0,0.0,0.0,0.0,0.0,0.0,0.0,0.0,0.0,0.0,0.0,0.0,0.0,0.0,0.0,0.0,0.0,0.0,0.0,0.0,0.0,0.0,0.0,0.0,0.0,0.0,0.0,0.0,0.0,0.0,0.0,0.0,0.0,0.0,0.0,0.0,0.0,0.0,0.0,0.0,0.0,0.0,0.0,0.0,0.0,0.0,0.0,0.0,0.0,0.0,0.0,0.0,0.0,0.0,0.0,0.0,0.0,0.0,0.0,0.0,0.0,0.0,0.0,0.0,0.0,0.0,0.0,0.0,0.0,0.0,0.0,0.0,0.0,0.0,0.0,0.0,0.0,0.0,0.0,0.0,0.0,0.0,0.0,0.0,0.0,0.0,0.0,0.0,0.0,0.0,0.0,0.0,0.0,0.0,0.0,0.0,0.0,0.0,0.0,0.0,0.0,0.0,0.0,0.0,0.0,0.0,0.0,0.0,0.0,0.0,0.0,0.0,0.0,0.0,0.0,0.0,0.0,0.0,0.0,0.0,0.0,0.0,0.0,0.0,0.0,0.0,0.0,0.0,0.0,0.0,0.0,0.0,0.0,0.0,0.0,0.0,0.0,0.0,0.0,0.0,0.0,0.0,0.0,0.0,0.0,0.0,0.0,0.0,0.0,0.0,0.0,0.0,0.0,0.0,0.0,0.0,0.0,0.0,0.0,0.0,0.0,0.0,0.0,0.0,0.0,0.0,0.0,0.0,0.0,0.0,0.0,0.0,0.0,0.0,0.0,0.0,0.0,0.0,0.0,0.0,0.0,0.0,0.0,0.0,0.0,0.0,0.0,0.0,0.0,0.0,0.0,0.0,0.0,0.0,0.0,0.0,0.0,0.0,0.0,0.0,0.0,0.0,0.0,0.0,0.0,0.0,0.0,0.0,0.0,0.0,0.0,0.0,0.0,0.0,0.0,0.0,0.0,0.0,0.0,0.0,0.0,0.0,0.0,0.0,0.0,0.0,0.0,0.0,0.0,0.0,0.0,0.0,0.0,0.0,0.0,0.0,0.0,0.0,0.0,0.0,0.0,0.0,0.0,0.0,0.0,0.0,0.0,0.0,0.0,0.0,0.0,0.0,0.0,0.0,0.0,0.0,0.0,0.0,0.0,0.0,0.0,0.0,0.0,0.0,0.0,0.0,0.0,0.0,0.0,0.0,0.0,0.0,0.0,0.0,0.0,0.0,0.0,0.0,0.0,0.0,0.0,0.0,0.0,0.0,0.0,0.0,0.0,0.0,0.0,0.0,0.0,0.0,0.0,0.0,0.0,0.0,0.0,0.0,0.0,0.0,0.0,0.0,0.0,0.0,0.0,0.0,0.0,0.0,0.0,0.0,0.0,0.0,0.0,0.0,0.0,0.0,0.0,0.0,0.0,0.0,0.0,0.0,0.0,0.0,0.0,0.0,0.0,0.0,0.0,0.0,0.0,0.0,0.0,0.0,0.0,0.0,0.0,0.0,0.0,0.0,0.0,0.0,0.0,0.0,0.0,0.0,0.0,0.0,0.0,0.0,0.0,0.0,0.0,0.0,0.0,0.0,0.0,0.0,0.0,0.0,0.0,0.0,0.0,0.0,0.0,0.0,0.0,0.0,0.0,0.0,0.0,0.0,0.0,0.0,0.0,0.0,0.0,0.0,0.0,0.0,0.0,0.0,0.0,0.0,0.0,0.0,0.0,0.0,0.0,0.0,0.0,0.0,0.0,0.0,0.0,0.0,0.0,0.0,0.0,0.0,0.0,0.0,0.0,0.0,0.0,0.0,0.0,0.0,0.0,0.0,0.0,0.0,0.0,0.0,0.0,0.0,0.0,0.0,0.0,0.0,0.0,0.0,0.0,0.0,0.0,0.0,0.0,0.0,0.0,0.0,0.0,0.0,0.0,0.0,0.0,0.0,0.0,0.0,0.0,0.0,0.0,0.0,0.0,0.0,0.0,0.0,0.0,0.0,0.0,0.0,0.0,0.0,0.0,0.0,0.0,0.0,0.0,0.0,0.0,0.0,0.0,0.0,0.0,0.0,0.0,0.0,0.0,0.0,0.0,0.0,0.0,0.0,0.0,0.0,0.0,0.0,0.0,0.0,0.0,0.0,0.0,0.0,0.0,0.0,0.0,0.0,0.0,0.0,0.0,0.0,0.0,0.0,0.0,0.0,0.0,0.0,0.0,0.0,0.0,0.0,0.0,0.0,0.0,0.0,0.0,0.0,0.0,0.0,0.0,0.0,0.0,0.0,0.0,0.0,0.0,0.0,0.0,0.0,0.0,0.0,0.0,0.0,0.0,0.0,0.0,0.0,0.0,0.0,0.0,0.0,0.0,0.0,0.0,0.0,0.0,0.0,0.0,0.0,0.0,0.0,0.0,0.0,0.0,0.0,0.0,0.0,0.0,0.0,0.0,0.0,0.0,0.0,0.0,0.0,0.0,0.0,0.0,0.0,0.0,0.0,0.0,0.0,0.0,0.0,0.0,0.0,0.0,0.0,0.0,0.0,0.0,0.0,0.0,0.0,0.0,0.0,0.0,0.0,0.0,0.0,0.0,0.0,0.0,0.0,0.0,0.0,0.0,0.0,0.0,0.0,0.0,0.0,0.0,0.0,0.0,0.0,0.0,0.0,0.0,0.0,0.0,0.0,0.0,0.0,0.0,0.0,0.0,0.0,0.0,0.0,0.0,0.0,0.0,0.0,0.0,0.0,0.0,0.0,0.0,0.0,0.0,0.0,0.0,0.0,0.0,0.0,0.0,0.0,0.0,0.0,0.0,0.0,0.0,0.0,0.0,0.0,0.0,0.0,0.0,0.0,0.0,0.0,0.0,0.0,0.0,0.0,0.0,0.0,0.0,0.0,0.0,0.0,0.0,0.0,0.0,0.0,0.0,0.0,0.0,0.0,0.0,0.0,0.0,0.0,0.0,0.0,0.0,0.0,0.0,0.0,0.0,0.0,0.0,0.0,0.0,0.0,0.0,0.0,0.0,0.0,0.0,0.0,0.0,0.0,0.0,0.0,0.0,0.0,0.0,0.0,0.0,0.0,0.0,0.0,0.0,0.0,0.0,0.0,0.0,0.0,0.0,0.0,0.0,0.0,0.0,0.0,0.0,0.0,0.0,0.0,0.0,0.0,0.0,0.0,0.0,0.0,0.0,0.0,0.0,0.0,0.0,0.0,0.0,0.0,0.0,0.0,0.0,0.0,0.0,0.0,0.0,0.0,0.0,0.0,0.0,0.0,0.0,0.0,0.0,0.0,0.0,0.0,0.0,0.0,0.0,0.0,0.0,0.0,0.0,0.0,0.0,0.0,0.0,0.0,0.0,0.0,0.0,0.0,0.0,0.0,0.0,0.0,0.0,0.0,0.0,0.0,0.0,0.0,0.0,0.0,0.0,0.0,0.0,0.0,0.0,0.0,0.0,0.0,0.0,0.0,0.0,0.0,0.0,0.0,0.0,0.0,0.0,0.0,0.0,0.0,0.0,0.0,0.0,0.0,0.0,0.0,0.0,0.0,0.0,0.0,0.0,0.0,0.0,0.0,0.0,0.0,0.0,0.0,0.0,0.0,0.0,0.0,0.0,0.0,0.0,0.0,0.0,0.0,0.0,0.0,0.0,0.0,0.0,0.0,0.0,0.0,0.0,0.0,0.0,0.0,0.0,0.0,0.0,0.0,0.0,0.0,0.0,0.0,0.0,0.0,0.0,0.0,0.0,0.0,0.0,0.0,0.0,0.0,0.0,0.0,0.0,0.0,0.0,0.0,0.0,0.0,0.0,0.0,0.0,0.0,0.0,0.0,0.0,0.0,0.0,0.0,0.0,0.0,0.0,0.0,0.0,0.0,0.0,0.0,0.0,0.0,0.0,0.0,0.0,0.0,0.0,0.0,0.0,0.0,0.0,0.0,0.0,0.0,0.0,0.0,0.0,0.0,0.0,0.0,0.0,0.0,0.0,0.0,0.0,0.0,0.0,0.0,0.0,0.0,0.0,0.0,0.0,0.0,0.0,0.0,0.0,0.0,0.0,0.0,0.6222,0.0,0.0,0.0,0.0,0.0,0.0,0.0,0.0,0.0,0.0,0.0,0.0,0.0,0.0,0.0,0.0,0.0,0.0,0.0,0.0,0.0,0.0,0.0,0.0,0.0,0.0,0.0,0.0,0.0,0.0,0.0,0.0,0.0,0.0,0.0,0.0,0.0,0.0,0.0,0.0,0.0,0.0,0.0,0.0,0.0,0.0,0.0,0.0,0.0,0.0,0.0,0.0,0.0,0.0,0.0,0.0,0.0,0.0,0.0,0.0,0.0,0.0,0.0,0.0,0.0,0.0,0.0,0.0,0.0,0.0,0.0,0.0,0.0,0.0,0.0,0.0,0.0,0.0,0.0,0.0,0.0,0.0,0.0,0.0,0.0,0.0,0.0,0.0,0.0,0.0,0.0,0.0,0.0,0.0,0.0,0.0,0.0,0.0,0.0,0.0,0.0,0.0,0.0,0.0,0.0,0.0,0.0,0.0,0.0,0.0,1.1953,1.0856,0.8983,0.7484,0.6284,0.0,0.0,0.0,0.0,0.0,0.0,0.0,0.0,0.0,0.0,0.0,0.0,0.0,0.0,0.0,0.0,0.0,0.0,0.0,0.0,0.0,0.0,0.0,0.0,0.0,0.0,0.0,0.0,0.0,0.0,0.0,0.0,0.0,0.0,0.0,0.0,0.0,0.0,0.0,0.0,0.0,0.0,0.0,0.0,0.0,0.0,0.0,0.0,0.0,0.0,0.0,0.0,0.0,0.0,0.0,0.0,0.0,0.0,0.0,0.0,0.0,0.0,0.0,0.0,0.0,0.0,0.0,0.0,0.0,0.0,0.0,0.0,0.0,0.0,0.0,0.0,0.0,0.0,0.0,0.0,0.0,0.0,0.0,0.0,0.0,0.0,0.0,0.0,0.0,0.0,0.0,0.0,0.0,0.0,0.0,0.0,0.0,0.0,0.0,0.0,0.0,0.0,0.0,0.0,0.0,0.0,0.0,0.0,0.0,0.0,0.0,0.0,0.9803,0.8382,0.5855,0.0,0.0,0.0,0.0,0.0,0.0,0.0,0.0,0.0,0.0,0.0,0.0,0.0,0.0,0.0,0.0,0.0,0.0,0.0,0.0,0.0,0.0,0.0,0.0,0.0,0.0,0.0,0.0,0.0,0.0,0.0,0.0,0.0,0.0,0.0,0.0,0.0,0.0,0.0,0.0,0.0,0.0,0.0,0.0,0.0,0.0,0.0,0.0,0.0,0.0,0.0,0.0,0.0,0.0,0.0,0.0,0.0,0.0,0.0,0.0,0.0,0.0,0.0,0.0,0.0,0.0,0.0,0.0,0.0,0.0,0.0,0.0,0.0,0.0,0.0,0.0,0.0,0.0,0.0,0.0,0.0,0.0,0.0,0.0,0.0,0.0,0.0,0.0,0.0,0.0,0.0,0.0,0.0,0.0,0.0,0.0,0.0,0.0,0.0,0.0,0.0,0.0,0.0,0.0,0.0,0.0,0.0,0.0,0.0,0.0,1.2613,1.2848,1.1056,0.0,0.4347,0.0,0.0,0.0,0.0,0.0,0.0,0.0,0.0,0.0,0.0,0.0,0.0,0.0,0.0,0.0,0.0,0.0,0.0,0.0,0.0,0.0,0.0,0.0,0.0,0.0,0.0,0.0,0.0,0.0,0.0,0.0,0.0,0.0,0.0,0.0,0.0,0.0,0.0,0.0,0.0,0.0,0.0,0.0,0.0,0.0,0.0,0.0,0.0,0.0,0.0,0.0,0.0,0.0,0.0,0.0,0.0,0.0,0.0,0.0,0.0,0.0,0.0,0.0,0.0,0.0,0.0,0.0,0.0,0.0,0.0,0.0,0.0,0.0,0.0,0.0,0.0,0.0,0.0,0.0,0.0,0.0,0.0,0.0,0.0,0.0,0.0,0.0,0.0,0.0,0.0,0.0,0.0,0.0,0.0,0.0,0.0,0.0,0.0,0.0,0.0,0.0,0.0,0.0,0.0,0.0,0.0,0.0,0.0,0.0,0.0,0.0,1.3247,1.2344,0.9958,0.0,0.0,0.0,0.0,0.0,0.0,0.0,0.0,0.0,0.0,0.0,0.0,0.0,0.0,0.0,0.0,0.0,0.0,0.0,0.0,0.0,0.0,0.0,0.0,0.0,0.0,0.0,0.0,0.0,0.0,0.0,0.0,0.0,0.0,0.0,0.0,0.0,0.0,0.0,0.0,0.0,0.0,0.0,0.0,0.0,0.0,0.0,0.0,0.0,0.0,0.0,0.0,0.0,0.0,0.0,0.0,0.0,0.0,0.0,0.0,0.0,0.0,0.0,0.0,0.0,0.0,0.0,0.0,0.0,0.0,0.0,0.0,0.0,0.0,0.0,0.0,0.0,0.0,0.0,0.0,0.0,0.0,0.0,0.0,0.0,0.0,0.0,0.0,0.0,0.0,0.0,0.0,0.0,0.0,0.0,0.0,0.0,0.0,0.0,0.0,0.0,0.0,0.0,0.0,0.0,0.0,0.0,0.0,0.0,0.0,1.5209,0.0,1.3432,1.2688,1.0623,0.7051,0.0,0.0,0.0,0.0,0.0,0.0,0.0,0.0,0.0,0.0,0.0,0.0,0.0,0.0,0.0,0.0,0.0,0.0,0.0,0.0,0.0,0.0,0.0,0.0,0.0,0.0,0.0,0.0,0.0,0.0,0.0,0.0,0.0,0.0,0.0,0.0,0.0,0.0,0.0,0.0,0.0,0.0,0.0,0.0,0.0,0.0,0.0,0.0,0.0,0.0,0.0,0.0,0.0,0.0,0.0,0.0,0.0,0.0,0.0,0.0,0.0,0.0,0.0,0.0,0.0,0.0,0.0,0.0,0.0,0.0,0.0,0.0,0.0,0.0,0.0,0.0,0.0,0.0,0.0,0.0,0.0,0.0,0.0,0.0,0.0,0.0,0.0,0.0,0.0,0.0,0.0,0.0,0.0,0.0,0.0,0.0,0.0,0.0,0.0,0.0,0.0,0.0,0.0,0.0,0.0,0.0,0.0,0.0,0.0,1.4676,1.3542,1.3875,1.139,0.9146,0.0,0.0,0.0,0.0,0.0,0.0,0.0,0.0,0.0,0.0,0.0,0.0,0.0,0.0,0.0,0.0,0.0,0.0,0.0,0.0,0.0,0.0,0.0,0.0,0.0,0.0,0.0,0.0,0.0,0.0,0.0,0.0,0.0,0.0,0.0,0.0,0.0,0.0,0.0,0.0,0.0,0.0,0.0,0.0,0.0,0.0,0.0,0.0,0.0,0.0,0.0,0.0,0.0,0.0,0.0,0.0,0.0,0.0,0.0,0.0,0.0,0.0,0.0,0.0,0.0,0.0,0.0,0.0,0.0,0.0,0.0,0.0,0.0,0.0,0.0,0.0,0.0,0.0,0.0,0.0,0.0,0.0,0.0,0.0,0.0,0.0,0.0,0.0,0.0,0.0,0.0,0.0,0.0,0.0,0.0,0.0,0.0,0.0,0.0,0.0,0.0,0.0,0.0,0.0,0.0,0.0,0.0,0.0,0.0,1.4229,1.3584,1.4923,1.8174,1.3076,0.9212,0.0,0.0,0.0,0.0,0.0,0.0,0.0,0.0,0.0,0.0,0.0,0.0,0.0,0.0,0.0,0.0,0.0,0.0,0.0,0.0,0.0,0.0,0.0,0.0,0.0,0.0,0.0,0.0,0.0,0.0,0.0,0.0,0.0,0.0,0.0,0.0,0.0,0.0,0.0,0.0,0.0,0.0,0.0,0.0,0.0,0.0,0.0,0.0,0.0,0.0,0.0,0.0,0.0,0.0,0.0,0.0,0.0,0.0,0.0,0.0,0.0,0.0,0.0,0.0,0.0,0.0,0.0,0.0,0.0,0.0,0.0,0.0,0.0,0.0,0.0,0.0,0.0,0.0,0.0,0.0,0.0,0.0,0.0,0.0,0.0,0.0,0.0,0.0,0.0,0.0,0.0,0.0,0.0,0.0,0.0,0.0,0.0,0.0,0.0,0.0,0.0,0.0,0.0,0.0,0.0,0.0,0.0,0.0,0.0,1.2929,0.0,1.604,0.0,1.2421,0.8462,0.0,0.0,0.0,0.0,0.0,0.0,0.0,0.0,0.0,0.0,0.0,0.0,0.0,0.0,0.0,0.0,0.0,0.0,0.0,0.0,0.0,0.0,0.0,0.0,0.0,0.0,0.0,0.0,0.0,0.0,0.0,0.0,0.0,0.0,0.0,0.0,0.0,0.0,0.0,0.0,0.0,0.0,0.0,0.0,0.0,0.0,0.0,0.0,0.0,0.0,0.0,0.0,0.0,0.0,0.0,0.0,0.0,0.0,0.0,0.0,0.0,0.0,0.0,0.0,0.0,0.0,0.0,0.0,0.0,0.0,0.0,0.0,0.0,0.0,0.0,0.0,0.0,0.0,0.0,0.0,0.0,0.0,0.0,0.0,0.0,0.0,0.0,0.0,0.0,0.0,0.0,0.0,0.0,0.0,0.0,0.0,0.0,0.0,0.0,0.0,0.0,0.0,0.0,0.0,0.0,0.0,0.0,0.0,1.2942,1.3862,1.6404,1.6522,1.3944,0.9408,0.6601,0.0,0.0,0.0,0.0,0.0,0.0,0.0,0.0,0.0,0.0,0.0,0.0,0.0,0.0,0.0,0.0,0.0,0.0,0.0,0.0,0.0,0.0,0.0,0.0,0.0,0.0,0.0,0.0,0.0,0.0,0.0,0.0,0.0,0.0,0.0,0.0,0.0,0.0,0.0,0.0,0.0,0.0,0.0,0.0,0.0,0.0,0.0,0.0,0.0,0.0,0.0,0.0,0.0,0.0,0.0,0.0,0.0,0.0,0.0,0.0,0.0,0.0,0.0,0.0,0.0,0.0,0.0,0.0,0.0,0.0,0.0,0.0,0.0,0.0,0.0,0.0,0.0,0.0,0.0,0.0,0.0,0.0,0.0,0.0,0.0,0.0,0.0,0.0,0.0,0.0,0.0,0.0,0.0,0.0,0.0,0.0,0.0,0.0,0.0,0.0,0.0,0.0,0.0,0.0,0.0,0.0,0.0,0.0,0.0,1.5416,1.518,1.5433,1.6076,1.0062,0.6834,0.0,0.0,0.0,0.0,0.0,0.0,0.0,0.0,0.0,0.0,0.0,0.0,0.0,0.0,0.0,0.0,0.0,0.0,0.0,0.0,0.0,0.0,0.0,0.0,0.0,0.0,0.0,0.0,0.0,0.0,0.0,0.0,0.0,0.0,0.0,0.0,0.0,0.0,0.0,0.0,0.0,0.0,0.0,0.0,0.0,0.0,0.0,0.0,0.0,0.0,0.0,0.0,0.0,0.0,0.0,0.0,0.0,0.0,0.0,0.0,0.0,0.0,0.0,0.0,0.0,0.0,0.0,0.0,0.0,0.0,0.0,0.0,0.0,0.0,0.0,0.0,0.0,0.0,0.0,0.0,0.0,0.0,0.0,0.0,0.0,0.0,0.0,0.0,0.0,0.0,0.0,0.0,0.0,0.0,0.0,0.0,0.0,0.0,0.0,0.0,0.0,0.0,0.0,0.0,0.0,0.0,0.0,0.0,0.0,1.3986,1.4098,1.4854,1.6359,1.0223,0.7038,0.7176,0.0,0.0,0.0,0.0,0.0,0.0,0.0,0.0,0.0,0.0,0.0,0.0,0.0,0.0,0.0,0.0,0.0,0.0,0.0,0.0,0.0,0.0,0.0,0.0,0.0,0.0,0.0,0.0,0.0,0.0,0.0,0.0,0.0,0.0,0.0,0.0,0.0,0.0,0.0,0.0,0.0,0.0,0.0,0.0,0.0,0.0,0.0,0.0,0.0,0.0,0.0,0.0,0.0,0.0,0.0,0.0,0.0,0.0,0.0,0.0,0.0,0.0,0.0,0.0,0.0,0.0,0.0,0.0,0.0,0.0,0.0,0.0,0.0,0.0,0.0,0.0,0.0,0.0,0.0,0.0,0.0,0.0,0.0,0.0,0.0,0.0,0.0,0.0,0.0,0.0,0.0,0.0,0.0,0.0,0.0,0.0,0.0,0.0,0.0,0.0,0.0,0.0,0.0,0.0,0.0,0.0,0.0,0.0,1.0352,1.3285,1.4501,1.4022,0.959,0.6968,0.0,0.0,0.0,0.0,0.0,0.0,0.0,0.0,0.0,0.0,0.0,0.0,0.0,0.0,0.0,0.0,0.0,0.0,0.0,0.0,0.0,0.0,0.0,0.0,0.0,0.0,0.0,0.0,0.0,0.0,0.0,0.0,0.0,0.0,0.0,0.0,0.0,0.0,0.0,0.0,0.0,0.0,0.0,0.0,0.0,0.0,0.0,0.0,0.0,0.0,0.0,0.0,0.0,0.0,0.0,0.0,0.0,0.0,0.0,0.0,0.0,0.0,0.0,0.0,0.0,0.0,0.0,0.0,0.0,0.0,0.0,0.0,0.0,0.0,0.0,0.0,0.0,0.0,0.0,0.0,0.0,0.0,0.0,0.0,0.0,0.0,0.0,0.0,0.0,0.0,0.0,0.0,0.0,0.0,0.0,0.0,0.0,0.0,0.0,0.0,0.0,0.0,0.0,0.0,0.0,0.0,0.0,0.0,0.0,1.0461,1.1741,1.1508,0.9475,0.6246,0.4555,0.0,0.0,0.0,0.0,0.0,0.0,0.0,0.0,0.0,0.0,0.0,0.0,0.0,0.0,0.0,0.0,0.0,0.0,0.0,0.0,0.0,0.0,0.0,0.0,0.0,0.0,0.0,0.0,0.0,0.0,0.0,0.0,0.0,0.0,0.0,0.0,0.0,0.0,0.0,0.0,0.0,0.0,0.0,0.0,0.0,0.0,0.0,0.0,0.0,0.0,0.0,0.0,0.0,0.0,0.0,0.0,0.0,0.0,0.0,0.0,0.0,0.0,0.0,0.0,0.0,0.0,0.0,0.0,0.0,0.0,0.0,0.0,0.0,0.0,0.0,0.0,0.0,0.0,0.0,0.0,0.0,0.0,0.0,0.0,0.0,0.0,0.0,0.0,0.0,0.0,0.0,0.0,0.0,0.0,0.0,0.0,0.0,0.0,0.0,0.0,0.0,0.0,0.0,0.0,0.0,0.0,0.0,0.0,1.3152,1.0784,1.0329,0.8879,0.622,0.4585,0.3661,0.0,0.0,0.0,0.0,0.0,0.0,0.0,0.0,0.0,0.0,0.0,0.0,0.0,0.0,0.0,0.0,0.0,0.0,0.0,0.0,0.0,0.0,0.0,0.0,0.0,0.0,0.0,0.0,0.0,0.0,0.0,0.0,0.0,0.0,0.0,0.0,0.0,0.0,0.0,0.0,0.0,0.0,0.0,0.0,0.0,0.0,0.0,0.0,0.0,0.0,0.0,0.0,0.0,0.0,0.0,0.0,0.0,0.0,0.0,0.0,0.0,0.0,0.0,0.0,0.0,0.0,0.0,0.0,0.0,0.0,0.0,0.0,0.0,0.0,0.0,0.0,0.0,0.0,0.0,0.0,0.0,0.0,0.0,0.0,0.0,0.0,0.0,0.0,0.0,0.0,0.0,0.0,0.0,0.0,0.0,0.0,0.0,0.0,0.0,0.0,0.0,0.0,0.0,0.0,0.0,0.0,0.0,0.0,1.3542,1.1443,0.9213,0.6843,0.4283,0.3738,0.3349,0.0,0.0,0.0,0.0,0.0,0.0,0.0,0.0,0.0,0.0,0.0,0.0,0.0,0.0,0.0,0.0,0.0,0.0,0.0,0.0,0.0,0.0,0.0,0.0,0.0,0.0,0.0,0.0,0.0,0.0,0.0,0.0,0.0,0.0,0.0,0.0,0.0,0.0,0.0,0.0,0.0,0.0,0.0,0.0,0.0,0.0,0.0,0.0,0.0,0.0,0.0,0.0,0.0,0.0,0.0,0.0,0.0,0.0,0.0,0.0,0.0,0.0,0.0,0.0,0.0,0.0,0.0,0.0,0.0,0.0,0.0,0.0,0.0,0.0,0.0,0.0,0.0,0.0,0.0,0.0,0.0,0.0,0.0,0.0,0.0,0.0,0.0,0.0,0.0,0.0,0.0,0.0,0.0,0.0,0.0,0.0,0.0,0.0,0.0,0.0,0.0,0.0,0.0,0.0,0.0,0.0,0.0,0.0,1.3827,1.1453,0.9322,0.6928,0.4286,0.1958,0.0748,0.0,0.0,0.0,0.0,0.0,0.0,0.0,0.0,0.0,0.0,0.0,0.0,0.0,0.0,0.0,0.0,0.0,0.0,0.0,0.0,0.0,0.0,0.0,0.0,0.0,0.0,0.0,0.0,0.0,0.0,0.0,0.0,0.0,0.0,0.0,0.0,0.0,0.0,0.0,0.0,0.0,0.0,0.0,0.0,0.0,0.0,0.0,0.0,0.6878,0.0,0.0,0.0,0.0,0.0,0.0,0.0,0.0,0.0,0.0,0.0,0.0,0.0,0.0,0.0,0.0,0.0,0.0,0.0,0.0,0.0,0.0,0.0,0.0,0.0,0.0,0.0,0.0,0.0,0.0,0.0,0.0,0.0,0.0,0.0,0.0,0.0,0.0,0.0,0.0,0.0,0.0,0.0,0.0,0.0,0.0,0.0,0.0,0.0,0.0,0.0,0.0,0.0,0.0,0.0,0.0,0.0,0.0,0.0,1.1671,1.1738,0.8232,0.5643,0.4159,0.1515,0.0,0.0,0.0,0.0,0.0,0.0,0.0,0.0,0.0,0.0,0.0,0.0,0.0,0.0,0.0,0.0,0.0,0.0,0.0,0.0,0.0,0.0,0.0,0.0,0.0,0.0,0.0,0.0,0.0,0.0,0.0,0.0,0.0,0.0,0.0,0.0,0.0,0.0,0.0,0.0,0.0,0.0,0.0,0.0,0.0,0.0,0.0,0.0,0.0,0.0,0.0,0.0,0.0,0.0,0.0,0.0,0.0,0.0,0.0,0.0,0.0,0.0,0.0,0.0,0.0,0.0,0.0,0.0,0.0,0.0,0.0,0.0,0.0,0.0,0.0,0.0,0.0,0.0,0.0,0.0,0.0,0.0,0.0,0.0,0.0,0.0,0.0,0.0,0.0,0.0,0.0,0.0,0.0,0.0,0.0,0.0,0.0,0.0,0.0,0.0,0.0,0.0,0.0,0.0,0.0,0.0,0.0,0.0,0.8364,0.8849,1.1362,0.6687,0.4113,0.4143,0.1466,0.0,0.0,0.0,0.0,0.0,0.0,0.0,0.0,0.0,0.0,0.0,0.0,0.0,0.0,0.0,0.0,0.0,0.0,0.0,0.0,0.0,0.0,0.0,0.0,0.0,0.0,0.0,0.0,0.0,0.0,0.0,0.0,0.0,0.0,0.0,0.0,0.0,0.0,0.0,0.0,0.5918,0.6435,0.0,0.0,0.0,0.0,0.0,0.0,0.0,0.0,0.0,0.0,0.0,0.0,0.0,0.0,0.0,0.0,0.0,0.0,0.0,0.0,0.0,0.0,0.0,0.0,0.0,0.0,0.0,0.0,0.0,0.0,0.0,0.0,0.0,0.0,0.0,0.0,0.0,0.0,0.0,0.0,0.0,0.0,0.0,0.0,0.0,0.0,0.0,0.0,0.0,0.0,0.0,0.0,0.0,0.0,0.0,0.0,0.0,0.0,0.0,0.0,0.0,0.0,0.0,0.0,0.0,0.5232,0.7013,0.8222,0.8861,0.5802,0.414,0.4145,0.1466,0.0,0.0,0.0,0.0,0.0,0.0,0.0,0.0,0.0,0.0,0.0,0.0,0.0,0.0,0.0,0.0,0.0,0.0,0.0,0.0,0.0,0.0,0.0,0.0,0.0,0.0,0.0,0.0,0.0,0.0,0.0,0.0,0.0,0.0,0.0,0.0,0.0,0.0,0.0,0.0,0.0,0.4246,0.4234,0.0,0.0,0.0,0.0,0.0,0.0,0.0,0.0,0.0092,0.0,0.0,0.0,0.0,0.0,0.0,0.0,0.0,0.0,0.0,0.0,0.0,0.0,0.0,0.0,0.0,0.0,0.0,0.0,0.0,0.0,0.0,0.0,0.0,0.0,0.0,0.0,0.0,0.0,0.0,0.0,0.0,0.0,0.0,0.0,0.0,0.0,0.0,0.0,0.0,0.0,0.0,0.0,0.0,0.0,0.0,0.0,0.0,0.0,0.0,0.0,0.0,0.0,0.0,0.0,0.405,0.3924,0.4585,0.6005,0.3501,0.2022,0.2021,0.1644,0.0982,0.0,0.0,0.0,0.0,0.0,0.0,0.0,0.0,0.0,0.0,0.0,0.0,0.0,0.0,0.0,0.0,0.0,0.0,0.0,0.0,0.0,0.0,0.0,0.0,0.0,0.0,0.0,0.0,0.0,0.0,0.0,0.0,0.0,0.0,0.0,0.0,0.0,0.0,0.0,0.0,0.2623,0.2289,0.3736,0.0,0.0,0.0,0.0,0.0,0.0,0.0,0.0,0.0,0.0,0.0,0.0,0.0,0.0,0.0,0.0,0.0,0.0,0.0,0.0,0.0,0.0,0.0,0.0,0.0,0.0,0.0,0.0,0.0,0.0,0.0,0.0,0.0,0.0,0.0,0.0,0.0,0.0,0.0,0.0,0.0,0.0,0.0,0.0,0.0,0.0,0.0,0.0,0.0,0.0,0.0,0.0,0.0,0.0,0.0,0.0,0.0,0.0,0.0,0.0,0.0,0.0,0.0,0.3143,0.119,0.1039,0.3186,0.1171,0.032,0.0852,0.2334,0.2419,0.0,0.0,0.0,0.0,0.0,0.0,0.0,0.0,0.0,0.0,0.0,0.0,0.0,0.0,0.0,0.0,0.0,0.0,0.0,0.0,0.0,0.0,0.0,0.0,0.0,0.0,0.0,0.0,0.0,0.0,0.0,0.0,0.0,0.0,0.0,0.0,0.0,0.0,0.0,0.0,0.0,0.1654,0.3718,0.2233,0.0,0.0,0.0,0.0,0.0,0.0,0.0,0.0,0.0,0.0,0.0,0.0,0.0,0.0,0.0,0.0,0.0,0.0,0.0,0.0,0.0,0.0,0.0,0.0,0.0,0.0,0.0,0.0,0.0,0.0,0.0,0.0,0.0,0.0,0.0,0.0,0.0,0.0,0.0,0.0,0.0,0.0,0.0,0.0,0.0,0.0,0.0,0.0,0.0,0.0,0.0,0.0,0.0,0.0,0.0,0.0,0.0,0.0,0.0,0.0,0.0,0.0,0.0462,0.0193,0.0,0.0425,0.0,0.1171,0.3614,0.3719,0.3736,0.0,0.0,0.0,0.0,0.0,0.0,0.0,0.0,0.0,0.0,0.0,0.0,0.0,0.0,0.0,0.0,0.0,0.0,0.0,0.0,0.0,0.0,0.0,0.0,0.0,0.0,0.0,0.0,0.0,0.0,0.0,0.0,0.0,0.0,0.0,0.0,0.0,0.0,0.0,0.0,0.0,0.4057,0.4131,0.4064,0.3886,0.0,0.0,0.0,0.0,0.0,0.0,0.0,0.0,0.0,0.0,0.0,0.0,0.0,0.0,0.0,0.0,0.0,0.0,0.0,0.0,0.0,0.0,0.0,0.0,0.0,0.0,0.0,0.0,0.0,0.0,0.0,0.0,0.0,0.0,0.0,0.0,0.0,0.0,0.0,0.0,0.0,0.0,0.0,0.0,0.0,0.0,0.0,0.0,0.0,0.0,0.0,0.0,0.0,0.0,0.0,0.0,0.0,0.0,0.0,0.0,0.0,0.0,0.0,0.0,0.0,0.0,0.1384,0.4147,0.4921,0.4952,0.0,0.0,0.0,0.0,0.0,0.0,0.0,0.0,0.0,0.0,0.0,0.0,0.0,0.0,0.0,0.0,0.0,0.0,0.0,0.0,0.0,0.0,0.0,0.0,0.0,0.0,0.0,0.0,0.0,0.0,0.0,0.0,0.0,0.0,0.0,0.0,0.0,0.0,0.0,0.0,0.0,0.0,0.4211,0.422,0.0,0.0,0.0,0.0,0.0,0.0,0.0,0.0,0.0,0.0,0.0,0.0,0.0,0.0,0.0,0.0,0.0,0.0,0.0,0.0,0.0,0.0,0.0,0.0,0.0,0.0,0.0,0.0,0.0,0.0,0.0,0.0,0.0,0.0,0.0,0.0,0.0,0.0,0.0,0.0,0.0,0.0,0.0,0.0,0.0,0.0,0.0,0.0,0.0,0.0,0.0,0.0,0.0,0.0,0.0,0.0,0.0,0.0,0.0,0.0,0.0,0.0,0.0,0.0,0.0317,0.1068,0.1066,0.2766,0.6152,0.7333,0.0,0.0,0.0,0.0,0.0,0.0,0.0,0.0,0.0,0.0,0.0,0.0,0.0,0.0,0.0,0.0,0.0,0.0,0.0,0.0,0.0,0.0,0.0,0.0,0.0,0.0,0.0,0.0,0.0,0.0,0.0,0.0,0.0,0.0,0.0,0.0,0.0,0.0,0.0,0.0,0.0,0.0,0.4295,0.4162,0.4279,0.4297,0.0,0.0,0.0,0.0,0.0,0.0,0.0,0.0,0.0,0.0,0.0,0.0,0.0,0.0,0.0,0.0,0.0,0.0,0.0,0.0,0.0,0.0,0.0,0.0,0.0,0.0,0.0,0.0,0.0,0.0,0.0,0.0,0.0,0.0,0.0,0.0,0.0,0.0,0.0,0.0,0.0,0.0,0.0,0.0,0.0,0.0,0.0,0.0,0.0,0.0,0.0,0.0,0.0,0.0,0.0,0.0,0.0,0.0,0.0,0.0,0.0,0.0,0.0,0.1273,0.3765,0.3951,0.6581,1.1863,1.1638,1.0289,0.0,0.0,0.0,0.0,0.0,0.0,0.0,0.0,0.0,0.0,0.0,0.0,0.0,0.0,0.0,0.0,0.0,0.0,0.0,0.0,0.0,0.0,0.0,0.0,0.0,0.0,0.0,0.0,0.0,0.0,0.0,0.0,0.0,0.0,0.0,0.0,0.0,0.0,0.0,0.0,0.0,0.4409,0.4242,0.4356,0.4449,0.0,0.0,0.0,0.0,0.0,0.0,0.0,0.0,0.0,0.0,0.0,0.0,0.0,0.0,0.0,0.0,0.0,0.0,0.0,0.0,0.0,0.0,0.0,0.0,0.0,0.0,0.0,0.0,0.0,0.0,0.0,0.0,0.0,0.0,0.0,0.0,0.0,0.0,0.0,0.0,0.0,0.0,0.0,0.0,0.0,0.0,0.0,0.0,0.0,0.0,0.0,0.0,0.0,0.0,0.0,0.0,0.0,0.0,0.0,0.0,0.0,0.0,0.0,0.0539,0.151,0.1613,0.3529,0.7323,0.7035,0.6492,0.0,0.0,0.0,0.0,0.0,0.0,0.0,0.0,0.0,0.0,0.0,0.0,0.0,0.0,0.0,0.0,0.0,0.0,0.0,0.0,0.0,0.0,0.0,0.0,0.0,0.0,0.0,0.0,0.0,0.0,0.0,0.0,0.0,0.0,0.0,0.0,0.0,0.0,0.0,0.0,0.0,0.4317,0.4232,0.4305,0.0,0.0,0.1804,0.0,0.0,0.0,0.0,0.0,0.0,0.0,0.0,0.0,0.0,0.0,0.0,0.0,0.0,0.0,0.0,0.0,0.0,0.0,0.0,0.0,0.0,0.0,0.0,0.0,0.0,0.0,0.0,0.0,0.0,0.0,0.0,0.0,0.0,0.0,0.0,0.0,0.0,0.0,0.0,0.0,0.0,0.0,0.0,0.0,0.0,0.0,0.0,0.0,0.0,0.0,0.0,0.0,0.0,0.0,0.0,0.0,0.0,0.0,0.0,0.0,0.0434,0.1191,0.1293,0.257,0.5309,0.5126,0.4698,0.0,0.0,0.0,0.0,0.0,0.0,0.0,0.0,0.0,0.0,0.0,0.0,0.0,0.0,0.0,0.0,0.0,0.0,0.0,0.0,0.0,0.0,0.0,0.0,0.0,0.0,0.0,0.0,0.0,0.0,0.0,0.0,0.0,0.0,0.0,0.0,0.0,0.0,0.0,0.0,0.0,0.2602,0.1781,0.1694,0.1385,0.0531,-0.0529,-0.1163,-0.1272,-0.0522,0.0,0.0,0.0,0.0,0.0,0.0,0.0,0.0,0.0,0.0,0.0,0.0,0.0,0.0,0.0,0.0,0.0,0.0,0.0,0.0,0.0,0.0,0.0,0.0,0.0,0.0,0.0,0.0,0.0,0.0,0.0,0.0,0.0,0.0,0.0,0.0,0.0,0.0,0.0,0.0,0.0,0.0,0.0,0.0,0.0,0.0,0.0,0.0,0.0,0.0,0.0,0.0,0.0,0.0,0.0,0.0,0.0,0.0,0.129,0.392,0.4076,0.5315,0.8061,0.8026,0.664,0.4086,0.0,0.0,0.0,0.0,0.0,0.0,0.0,0.0,0.0,0.0,0.0,0.0,0.0,0.0,0.0,0.0,0.0,0.0,0.0,0.0,0.0,0.0,0.0,0.0,0.0,0.0,0.0,0.0,0.0,0.0,0.0,0.0,0.0,0.0,0.0,0.0,0.0,0.0,0.0,0.0104,-0.0964,-0.3471,-0.3834,-0.4721,-0.7544,-0.5757,-0.395,-0.409,-0.1891,0.0,0.0,0.0,0.0,0.0,0.0,0.0,0.0,0.0,0.0,0.0,0.0,0.0,0.0,0.0,0.0,0.0,0.0,0.0,0.0,0.0,0.0,0.0,0.0,0.0,0.0,0.0,0.0,-0.5457,-0.5023,0.0,0.0,0.0,0.0,0.0,0.0,0.0,0.0,0.0,0.0,0.0,0.3221,0.2449,0.0,0.0,0.0,0.0,0.0,0.0,0.0,0.0,0.0,0.0,0.0,0.0,0.0,0.0,0.0,0.0434,0.1408,0.14,0.182,0.2765,0.0939,-0.1301,-0.3821,0.0,0.0,0.0,0.0,0.0,0.0,0.0,0.0,0.0,0.0,0.0,0.0,0.0,0.0,0.0,0.0,0.0,0.0,0.0,0.0,0.0,0.0,0.0,0.0,0.0,0.0,0.0,0.0,0.0,0.0,0.0,0.0,0.0,0.0,0.0,0.0,0.0,0.0,0.0,-0.1582,-0.3112,-0.4029,-0.5905,-0.7446,0.0,0.0,0.0,0.0,0.0,0.0,0.0,0.0,0.0,0.0,0.0,0.0,0.0,0.0,-0.3433,-0.4355,-0.5945,-0.8015,-1.0422,0.0,0.0,0.0,0.0,0.0,0.0,0.0,0.0,0.0,0.0,0.0,0.0,0.0,0.0,-0.8478,0.0,-0.8072,0.0,0.0,0.0,0.0,0.0,0.0,0.0,0.0,0.0,0.0816,0.2124,0.0732,0.073,0.0,0.0698,0.0673,0.0,0.0,0.0,0.0,0.0,0.0,0.0,0.0,0.0,0.0,-0.0953,-0.1412,-0.1516,-0.2475,-0.2995,-0.2977,-0.4684,-0.6409,-0.8011,-0.6383,-0.5335,0.0,0.0,0.0,0.0,0.0,0.0,0.0,0.0,0.0,0.0,0.0,0.0,0.0,0.0,0.0,0.0,0.0,0.0,0.0,0.0,0.0,0.0,0.0,0.0,0.0,0.0,0.0,0.0,0.0,0.0,0.0,0.0,0.0,0.0,0.0,-0.0414,-0.1476,-0.3106,-0.4965,-0.7075,0.0,0.0,0.0,0.0,0.0,0.0,0.0,-0.8355,-0.6537,-0.5187,-0.338,-0.0439,0.0,-0.1035,-0.4089,0.0,0.0,-0.7601,-0.9195,-1.1143,-1.365,-1.3935,-1.4159,-1.5491,-1.4649,-1.2524,0.0,0.0,0.0,0.0,0.0,0.0,0.0,0.0,-0.9279,-0.9424,0.0,-0.9424,0.0,0.0,0.0,0.0,0.0,-0.1453,0.0,0.0,0.0,-0.011,-0.0109,0.0,0.0,0.0,0.0,0.0,0.0,0.0,0.0,0.0,0.0,0.0,0.0,0.0,-0.02,0.0,-0.2979,-0.4326,-0.4353,-0.696,-0.8487,-0.8586,-0.8582,-0.8661,-0.8615,-0.8398,-0.8031,-0.7707,-0.5308,0.0,0.0,0.0,0.0,0.0,0.0,0.0,0.0,0.0,0.0,0.0,0.0,0.0,0.0,0.0,0.0,0.0,0.0,0.0,0.0,-0.0089,0.0,0.0,0.0,0.0,0.0,0.0,0.0,0.0,0.0,0.0,0.0,0.0,-0.1287,-0.4245,0.0,0.0,0.0,0.0,-1.3916,-1.686,-1.5147,-1.3396,-1.349,-1.1374,-0.9772,-0.9513,0.0,0.0,-0.0683,0.0,-0.1276,-0.4101,-0.7401,-1.0525,-1.3669,-1.3632,-1.433,-1.7059,-1.7016,-1.6698,-1.6651,-1.6207,-1.447,-1.653,0.0,0.0,0.0,0.0,-1.58,-1.5667,-1.5284,-1.5284,-1.5003,-1.4524,-1.4488,0.0,0.0,0.0,0.0,0.0,0.0,-0.6215,-0.62,-0.4216,-0.3183,-0.3196,-0.1014,0.0,0.0,0.0,0.0,0.0,0.0,0.0,0.0,0.0,0.0,0.0,0.0,-0.4172,-0.6102,-0.7005,-0.7431,-0.7446,-0.8109,-0.9439,-1.1446,-1.1403,-1.2272,-1.4024,-1.2217,-1.106,-1.0794,-0.8137,0.0,0.0,0.0,0.0,0.0,0.0,0.0,0.0,0.0,0.0,0.0,0.0,0.0,0.0,0.0,0.0,0.0,0.0,0.0,-0.3092,-0.2651,-0.1841,0.0,0.0,0.0,0.0,0.0,0.0,0.0,0.0,0.0,-0.3255,-0.3162,-0.427,0.0,0.0,-1.1282,-1.296,-1.5034,-1.6653,-1.748,0.0,0.0,0.0,-1.6163,-1.4871,-1.2849,-0.8142,-0.4443,-0.3452,-0.3474,-0.4429,-0.7454,-1.0633,-1.3817,-1.6828,-1.7079,-1.702,-1.7736,-1.7602,-1.7358,-1.7143,-1.5573,-1.2971,-1.8247,-1.769,-1.7304,-1.7297,-1.7548,-1.7616,-1.7792,-1.8036,-1.7982,-1.7731,-1.7372,-1.7311,-1.6035,-1.3998,-1.2607,0.0,0.0,0.0,-0.8871,-0.8933,-0.7181,-0.6367,-0.631,-0.4594,-0.3094,-0.1912,-0.191,-0.1226,0.0,0.0,0.0,0.0,0.0,0.0,-0.4177,-0.5516,-0.6934,-0.8563,-0.9682,-1.0314,-1.0314,-1.1294,-1.2721,-1.4312,-1.4348,-1.4983,-1.6509,-1.4942,-1.3901,-1.3627,-1.0933,-0.8188,0.0,0.0,0.0,0.0,0.0,0.0,0.0,0.0,0.0,0.0,0.0,-1.3437,-1.2908,0.0,0.0,0.0,-0.91,-0.862,-0.5941,-0.4662,0.0,0.0,0.0,0.0,0.0,0.0,0.0,-0.1835,-0.4518,-0.6911,-0.7876,-0.8116,-0.8788,-1.0416,-1.2111,-1.3601,-1.4948,0.0,-1.7853,-1.7826,-1.8206,-1.8443,-1.8294,-1.8369,-1.7416,-1.4427,-1.0944,-0.803,-0.6869,-0.6763,-0.7823,-1.0681,-1.2879,-1.5168,-1.832,-1.8552,-1.8267,-1.8219,-1.8002,-1.7462,-1.615,-1.4288,-1.1922,-1.9156,-1.921,-1.8525,-1.8213,-1.8192,-1.8328,-1.8382,-1.8355,-1.8199,-1.8199,-1.8308,-1.8158,-1.7697,-1.6914,-1.4111,0.0,-1.2767,-1.0595,-0.9822,-0.9839,-0.9686,-0.9647,-0.9722,-0.9448,-0.7906,-0.5045,-0.4818,-0.3189,-0.0449,0.0,0.0,-0.0427,-0.3333,-0.4802,-0.475,-0.7563,-0.9064,-0.9235,-1.1774,-1.3108,-1.3087,-1.5655,-1.6978,-1.6978,-1.6978,-1.691,-1.6775,-1.6619,-1.6341,-1.5913,-1.3513,-1.0829,-0.8071,0.0,0.0,0.0,0.0,0.0,0.0,0.0,0.0,0.0,0.0,0.0,0.0,0.0,0.0,0.0,-0.9804,0.0,-0.9029,-0.6487,0.0,0.0,0.0,-0.0104,-0.0317,-0.3047,-0.4875,-0.4875,0.0,0.0,-1.3121,0.0,-1.3873,-1.3764,-1.3675,-1.4604,-1.7508,-1.7907,-1.7968,-1.8104,-1.8484,-1.8708,-1.8593,-1.8762,-1.802,-1.5204,-1.4295,-1.2858,-1.0506,-0.9914,-1.1203,-1.3525,-1.4415,-1.5487,-1.8311,-1.8626,-1.8579,-1.8708,-1.8182,-1.6759,-1.4231,-1.2752,-1.042,-1.9854,-1.9861,-1.9569,-1.925,-1.8945,-1.8979,-1.8932,-1.881,-1.8545,-1.8389,-1.8314,-1.8158,-1.7867,-1.7372,-1.6641,-1.6333,-1.6391,-1.5802,-1.5655,-1.5818,-1.3588,-1.2635,-1.2616,-1.041,-0.9016,-0.8133,-0.5847,-0.4338,-0.3505,-0.1123,-0.1222,-0.3508,-0.6345,-0.7711,-0.7616,-1.0606,-1.3124,-1.5099,-1.5879,-1.6175,-1.5971,-1.6676,-1.6978,-1.6978,-1.6978,-1.6965,-1.6924,-1.6781,-1.6592,-1.6361,-1.5401,-1.3644,-1.0921,-0.9696,0.0,0.0,0.0,0.0,0.0,0.0,0.0,0.0,0.0,-1.4787,-1.3661,0.0,-1.4419,0.0,-1.1543,-1.1654,-1.1905,-0.9045,0.0,0.0,-0.1834,-0.0981,-0.3251,-0.4299,-0.5679,-0.7941,-1.0906,-1.302,-1.3659,-1.5723,-1.711,-1.7185,-1.7031,-1.7282,-1.7925,-1.8233,-1.8382,-1.8437,-1.862,-1.8789,-1.8857,-1.8837,-1.853,-1.7563,-1.5598,-1.3827,-1.2966,-1.3079,-1.3387,-1.4163,-1.6192,-1.7865,-1.8666,-1.8633,-1.8606,-1.8599,-1.6713,-1.4591,-1.3592,-1.0053,-0.6279,-2.0295,-2.0282,-2.0139,-1.9854,-1.9488,-1.9359,-1.9183,-1.8966,-1.8667,-1.8484,-1.8403,-1.8253,-1.8104,-1.7941,-1.7785,-1.7765,-1.7846,-1.7846,-1.8002,-1.8167,-1.6563,-1.5834,-1.5957,-1.4402,-1.217,-0.9435,-0.9091,-0.7455,-0.4786,-0.4309,-0.5075,-0.6732,-0.9501,-1.0782,-1.0819,-1.3632,-1.5822,-1.7195,-1.7277,-1.7236,-1.708,-1.7073,-1.7046,-1.6985,-1.6978,-1.6951,-1.6883,-1.6795,-1.668,-1.6524,-1.6157,-1.4781,-1.2191,-1.1512,-1.0092,0.0,0.0,0.0,0.0,0.0,0.0,0.0,0.0,0.0,0.0,0.0,-1.5717,-1.4343,-1.4602,-1.4988,-1.5404,-1.2551,-1.0113,-0.8998,-0.6069,-0.4859,-0.6554,-0.8108,-0.9624,-1.1164,-1.4217,-1.6116,-1.5942,-1.7332,-1.8443,-1.8504,-1.8382,-1.826,-1.8226,-1.8389,-1.8552,-1.8626,-1.8816,-1.8979,-1.9074,-1.8905,-1.8735,-1.8552,-1.7239,-1.6151,-1.6145,-1.6256,-1.6366,-1.6633,-1.7861,-1.8986,-1.9033,-1.8938,-1.8864,-1.8554,-1.6355,-1.3678,-1.1987,-0.8034,-0.4419,-2.0614,-2.0587,-2.0444,-2.022,-1.9936,-1.9981,-1.9663,-1.9,-1.8715,-1.8565,-1.8525,-1.8403,-1.8335,-1.8308,-1.8179,-1.8118,-1.8124,-1.8124,-1.8267,-1.8525,-1.8531,-1.8613,-1.8762,-1.8762,-1.5889,-1.092,-1.2982,-1.1316,-0.6094,-0.825,-0.9608,-1.006,-1.2274,-1.3637,-1.407,-1.6275,-1.7385,-1.7249,-1.7236,-1.7222,-1.7222,-1.7222,-1.7154,-1.7019,-1.7005,-1.6937,-1.6788,-1.6761,-1.6686,-1.6551,-1.6286,-1.5155,-1.2897,-1.2477,-1.1423,0.0,-1.1036,0.0,0.0,0.0,0.0,0.0,0.0,0.0,0.0,-1.668,-1.7134,-1.7711,-1.7765,-1.7989,-1.8538,-1.5676,-1.394,-1.4071,-1.1279,-0.954,-1.0127,-1.2713,-1.4532,-1.446,-1.7308,-1.9,-1.8457,-1.8559,-1.8674,-1.8755,-1.8701,-1.8586,-1.8457,-1.8531,-1.8654,-1.8762,-1.9013,-1.9169,-1.9169,-1.8986,-1.8823,-1.8803,-1.8686,-1.8837,-1.8724,-1.8868,-1.8956,-1.9185,-1.9145,-1.923,-1.9379,-1.9278,-1.9196,-1.9176,-1.6585,-1.3429,-1.0305,-0.7067,-0.376,-2.1021,-2.0899,-2.075,-2.0587,-2.0503,-2.275,-2.1925,-1.9149,-1.8979,-1.8762,-1.8531,-1.8504,-1.8423,-1.8321,-1.8287,-1.828,-1.8274,-1.8274,-1.8369,-1.8531,-1.8531,-1.8613,-1.8755,-1.8762,-1.8221,-1.7105,-1.5144,-1.3583,-1.2482,-1.0361,-1.0638,-1.2915,-1.3368,-1.4764,-1.7124,0.0,0.0,0.0,-1.7439,-1.7378,-1.7378,-1.7378,-1.7304,-1.7161,-1.7154,0.0,-1.6944,-1.6815,-1.6734,-1.6707,-1.6537,0.0,0.0,0.0,0.0,0.0,0.0,0.0,0.0,0.0,0.0,0.0,-1.7433,-1.7141,-1.6564,-1.7195,-1.7853,-1.8314,-1.8362,-1.8511,-1.8864,-1.6057,-1.4323,-1.4286,-1.1678,-1.0724,-1.3111,-1.4214,-1.545,-1.8052,-1.8866,-1.921,-1.9189,-1.9142,-1.904,-1.8972,-1.902,-1.9013,-1.8877,-1.8877,-1.8864,-1.881,-1.904,-1.9196,-1.9203,-1.9149,-1.9054,-1.8986,-1.8945,-1.8959,-1.8979,-1.8993,-1.904,-1.9223,-1.9223,-1.921,-1.925,-1.9217,-1.9223,-1.9203,-1.6739,-1.3482,-1.0231,-0.6962,-0.3753,-2.1401,0.0,-2.1089,-2.0858,0.0,-2.3705,-2.3747,-2.1999,-2.3195,-2.2816,-2.1147,-1.9472,-1.8674,-1.8531,-1.8457,-1.8464,-1.8538,-1.8538,-1.866,-1.8857,-1.8864,-1.8905,-1.8979,-1.8979,-1.815,-1.672,-1.6589,-1.5703,-1.429,-1.4066,-1.4782,-1.6104,-1.5985,-1.6684,-1.8084,-1.7867,-1.7684,-1.7534,-1.7534,-1.7568,-1.7636,-1.7636,-1.7568,-1.7426,0.0,0.0,0.0,0.0,0.0,0.0,0.0,0.0,0.0,0.0,0.0,-1.6619,-1.7997,-1.835,-1.7161,-1.7304,-1.765,-1.7955,-1.8179,-1.8084,-1.7555,-1.7935,-1.8375,-1.881,-1.8735,-1.883,-1.9264,-1.7744,-1.6751,-1.687,-1.5391,-1.513,-1.6637,-1.6894,-1.7523,-1.8919,-1.9359,-1.9325,-1.9318,-1.9257,-1.9217,-1.9203,-1.9196,-1.921,-1.9203,-1.9142,-1.9081,-1.9094,-1.9203,-1.9312,-1.9305,-1.9244,-1.9189,-1.9108,-1.9033,-1.9,-1.8993,-1.8993,-1.904,-1.9176,-1.9257,-1.9332,-1.942,-1.9481,-1.9508,-1.9334,-1.8141,-1.5932,-1.2745,-0.9424,-0.6762,-2.1713,-2.1679,-2.1414,-2.1136,-2.1123,-2.3913,-2.5596,-2.6461,0.0,0.0,0.0,-2.1092,-1.9559,-1.8837,-1.8708,-1.8721,-1.8837,-1.8837,-1.8972,-1.9196,-1.9203,-1.9217,-1.9244,-1.9217,-1.7844,-1.5513,-1.7855,-1.7667,-1.5214,-1.7645,-1.8742,-1.8606,-1.8443,-1.828,-1.8131,-1.8002,-1.7826,-1.7595,-1.7677,-1.7785,-1.7901,-1.7928,-1.786,-1.769,-1.7684,-1.7487,-1.708,-1.706,-1.6998,-1.6876,-1.687,-1.6924,-1.7158,-2.0044,-2.0807,-1.8748,-2.1023,-2.1498,-1.9011,-1.8703,-1.8491,-1.8294,-1.8633,-1.8796,-1.8694,-1.864,-1.8803,-1.9244,-1.9013,-1.9067,-1.9603,-1.944,-1.9332,-1.9454,-1.9359,-1.9226,-1.9481,-1.9508,-1.9408,-1.9542,-1.9542,-1.9468,-1.9366,-1.9318,-1.9325,-1.9427,-1.94,-1.9359,-1.9454,-1.9352,-1.9291,-1.942,-1.9461,-1.9474,-1.9454,-1.9379,-1.9291,-1.9298,-1.9176,-1.9081,-1.9101,-1.9088,-1.9128,-1.9284,-1.9393,-1.9508,-1.963,-1.9719,-1.9793,-1.9685,-1.9664,-1.8888,-1.6197,-1.3419,-1.1052,-2.1855,-2.1842,-2.1679,-2.1502,-2.1569,-2.4317,-2.8303,-3.2623,-3.0158,-2.733,-2.4104,-2.3732,-2.1865,-1.9142,-1.9115,-1.9122,-1.9135,-1.9142,-1.9162,0.0,-1.9203,-1.9271,-1.9386,-1.9264,-1.9086,-1.8918,-1.9179,-1.8992,-1.8694,-1.8838,-1.8945,-1.8891,-1.864,-1.843,-1.8294,-1.8267,-1.824,-1.8192,-1.8084,-1.8036,-1.8063,-1.8186,-1.8118,-1.7853,-1.7833,-1.7684,-1.7378,-1.7358,-1.7344,-1.7324,-1.7324,-1.7338,-1.7472,-2.0518,-2.2109,-2.1756,-2.253,-2.2875,-2.2465,-2.0174,-1.8823,-1.902,-1.9108,-1.9183,-1.9284,-1.9074,-1.9115,-1.9529,-1.9291,-1.9278,-1.961,-1.961,-1.959,-1.9617,-1.961,-1.9651,-1.9786,-1.98,-1.9847,-1.9956,-1.9888,-1.98,-1.9725,-1.9651,-1.9603,-1.9637,-1.9685,-1.9773,-1.9746,-1.9569,-1.9481,-1.959,-1.963,-1.963,-1.9637,-1.9617,-1.9576,-1.9596,-1.9461,-1.9393,-1.9508,-1.9427,-1.9406,-1.9563,-1.9603,-1.9637,-1.9671,-1.9671,-1.9712,-1.9698,-1.9691,-1.9434,-1.8645,-1.79,-1.605,-2.2174,-2.2201,-2.1916,-2.1747,-2.1906,-2.4586,-2.797,-3.1596,-3.0249,-2.9571,-2.9144,-2.5843,-2.345,-2.1922,-2.007,-1.942,-1.9563,-1.9563,-1.961,-1.9685,-1.9691,-1.9725,-1.9786,-1.9719,-1.9719,-1.9766,-1.9556,-1.944,-1.9413,-1.921,-1.902,-1.8864,-1.864,-1.8498,-1.8437,-1.8437,-1.8477,-1.8552,-1.8328,-1.8253,-1.8328,-1.8403,-1.8369,-1.8226,-1.8226,-1.8084,-1.7792,-1.7785,-1.7745,-1.7663,-1.7663,-1.8491,-2.0403,-2.3603,-2.5354,-2.5589,-2.7423,-2.7026,-2.3577,-2.0604,-1.9047,-1.9406,-1.9298,-1.9305,-1.9535,-1.921,-1.9081,-1.9278,-1.923,-1.9291,-1.9515,-1.961,-1.9664,-1.9664,-1.9725,-1.9834,-1.9963,-1.9997,-2.0024,-2.0085,-2.0044,-1.9936,-1.978,-1.9841,-1.9861,-1.9813,-1.9902,-1.9997,-2.0003,-1.9963,-1.9875,-1.9793,-1.9719,-1.9746,-1.9847,-1.9752,-1.9746,-1.9861,-1.9705,-1.9637,-1.9732,-1.9651,-1.9603,-1.9651,-1.9719,-1.9773,-1.978,-1.9922,-1.9936,-1.9813,-1.9936,-1.9942,-1.9746,-1.9535,-1.8267,-2.3056,-2.3801,-2.2599,-2.1977,-2.2098,-2.4776,-2.7016,-2.8933,-2.9683,-3.1517,-3.3116,-2.793,-2.54,-2.524,-2.2734,-2.1752,-2.1971,-2.1993,-2.2061,-2.2182,-2.2189,-2.1864,-2.1195,-2.1202,-2.0788,-2.0093,-1.9861,-1.9719,-1.9529,-1.9379,-1.9156,-1.8877,-1.8742,-1.8681,-1.8681,-1.9367,-1.9886,-1.9986,-1.9648,-1.9219,-1.8579,-1.8586,-1.8565,-1.8531,-1.8559,-1.845,-1.8165,-1.8172,-1.8124,-1.8086,-1.8621,-2.0302,-2.3078,-2.6778,-2.8908,-2.9474,-3.1795,-3.0446,-2.419,-2.0827,-1.9237,-1.9569,-1.9393,-1.9352,-1.9542,-1.9298,-1.9108,-1.9142,-1.923,-1.9318,-1.9481,-1.963,-1.9712,-1.9719,-1.9841,-1.9983,-2.0126,-2.0153,-2.0153,-2.0153,-2.0153,-2.0051,-1.9875,-1.9956,-2.0071,-2.0064,-2.0132,-2.0193,-2.0214,-2.0288,-2.0207,-2.0044,-1.9881,-1.9868,-2.0031,-1.9908,-1.9881,-2.0078,-1.9915,-1.9847,-1.9881,-1.9827,-1.9773,-1.9793,-1.9854,-1.9936,-1.9983,-2.0105,-2.0159,-2.0031,-2.0112,-2.0132,-1.9854,-1.9705,-1.9508,-2.4822,-2.7158,-2.4204,-2.2249,-2.2389,-2.491,-2.6097,-2.662,-2.8922,-3.182,-3.4208,-3.0607,-2.8891,-2.8722,-2.8345,-2.8027,-2.8095,-2.8275,-2.8205,-2.8114,-2.8414,-2.6935,-2.464,-2.4516,-2.2982,-2.0762,-2.0623,-2.0692,-2.0412,-2.0022,-1.9574,-1.9196,-1.9149,-1.9365,-1.9602,-2.2158,-2.344,-2.3465,-2.3432,-2.1884,-1.8987,-1.8742,-1.8674,-1.8538,-1.8674,-1.8606,-1.8335,-1.8423,-1.8423,-1.8514,-2.1038,-2.2757,-2.3989,-2.8754,-3.2114,-3.2802,-3.3033,-3.0449,-2.478,-2.116,-1.9406,-1.944,-1.9434,-1.942,-1.9468,-1.942,-1.9447,-1.9535,-1.9474,-1.9481,-1.9624,-1.9766,-1.9847,-1.9847,-1.9997,-2.0139,-2.0268,-2.0309,-2.0309,-2.0309,-2.0421,-2.0241,-2.0209,-2.0092,-2.02,-2.039,-2.0417,-2.0444,-2.0444,-2.039,-2.0336,-2.0282,-2.0261,-2.0153,-2.0024,-2.001,-2.0064,-2.0105,-2.0092,-2.0092,-2.0119,-2.0119,-2.0058,-2.0064,-2.0071,-2.0139,-2.018,-2.0227,-2.0187,-2.0214,-2.0193,-2.0119,-2.0064,-2.0037,-1.9888,-2.8534,-3.1811,-3.0114,-2.7805,-2.5885,-2.6496,-2.6661,-2.6412,-2.7542,-3.0775,-3.4929,-3.3829,-3.3117,-3.2762,-3.0805,-3.0098,-3.0474,-3.0484,-3.0484,-3.0484,-3.0484,-2.9841,-2.8875,-2.8768,-2.7826,-2.6414,-2.6184,-2.5922,-2.5555,-2.524,-2.5122,-2.4982,-2.4964,-2.4964,-2.5082,-2.6251,-2.7012,-2.7018,-2.6899,-2.6164,-2.461,-2.1039,-1.8993,-1.9166,-2.0627,-2.056,-1.9293,-2.2105,-2.3174,-2.1626,-2.4109,-2.675,-2.9135,-3.1466,-3.3779,-3.5787,-3.2574,-2.9517,-2.7259,-2.232,-1.9508,-1.9678,-1.9529,-1.9495,-1.9671,-1.9617,-1.963,-1.9739,-1.9657,-1.9569,-1.9563,-1.9813,-1.9976,-1.9936,-2.0159,-2.0356,-2.0329,-2.0485,-2.056,-2.0598,-2.1991,-2.2286,-2.0741,-2.0234,-2.0322,-2.0492,-2.0546,-2.0553,-2.0539,-2.0492,-2.0424,-2.0363,-2.0397,-2.0404,-2.0268,-2.0146,-2.0234,-2.0397,-2.0417,-2.039,-2.0566,-2.0539,-2.0478,-2.0376,-2.0363,-2.0343,-2.0309,-2.037,-2.037,-2.0383,-2.0322,-2.0254,-2.0343,-2.0363,-2.0254,-3.2561,-3.5674,-3.5743,-3.3245,-2.9583,-2.9241,-2.8758,-2.8339,-2.8259,-3.1278,-3.594,-3.6096,-3.6601,-3.6756,-3.4277,-3.3415,-3.3857,-3.3967,-3.3956,-3.3923,-3.4023,-3.3711,-3.2826,-3.2764,-3.211,-3.1036,-3.0378,-2.9945,-2.9421,-2.9137,-2.9053,-2.9053,-2.9053,-2.9053,-2.9171,-2.9759,-3.0431,-3.044,-3.0261,-3.0187,-2.9589,-2.4907,-2.1865,-2.2008,-2.3732,-2.3781,-2.1946,-2.5839,-2.7131,-2.4951,-2.7543,-3.0446,-3.3219,-3.3956,-3.5522,-3.7496,-3.3141,-2.9863,-2.9259,-2.4015,-2.0615,-1.9997,-1.9698,-1.9995,-2.088,-2.1066,-2.1509,-2.2541,-2.2396,-2.2062,-1.9738,-1.9881,-2.0051,-2.0024,-2.037,-2.056,-2.0546,-2.0695,-2.1079,-2.1809,-2.363,-2.4283,-2.2331,-2.1924,-2.195,-2.0855,-2.0648,-2.0641,-2.0614,-2.06,-2.0553,-2.0417,-2.0478,-2.0505,-2.0485,-2.0424,-2.0465,-2.0607,-2.0675,-2.0743,-2.096,-2.0872,-2.0824,-2.0682,-2.0675,-2.0689,-2.0695,-2.0702,-2.0634,-2.0546,-2.0492,-2.0512,-2.0641,-2.0661,-2.0668,-3.665,-3.9662,-3.967,-3.7188,-3.3338,-3.3242,-3.2875,-3.2593,-3.2412,-3.4163,-3.6942,-3.6846,-3.8395,-4.1269,-4.0146,-4.0009,-4.0101,-4.0256,-4.0392,-4.0355,-4.0519,-3.9185,-3.6261,-3.6243,-3.4802,-3.2615,-3.1912,-3.0916,-2.9892,-2.9517,-2.9168,-2.9395,-2.974,-2.9513,-3.0096,-3.2456,-3.3677,-3.3677,-3.363,-3.3642,-3.3301,-3.044,-2.8572,-2.8369,-2.8278,-2.8152,-2.8036,-2.8374,-2.8586,-2.848,-3.1346,-3.3345,-3.3952,-3.6092,-3.7729,-3.7893,-3.5311,-3.2343,-2.967,-2.6089,-2.3039,-2.076,-2.0401,-2.1182,-2.3609,-2.4181,-2.5284,-2.8256,-2.8062,-2.608,-2.1527,-2.1196,-2.0996,-2.0992,-2.08,-2.102,-2.1042,-2.1311,-2.2215,-2.4221,-2.534,-2.5622,-2.5081,-2.5491,-2.3862,-2.1833,-2.0878,-2.0906,-2.077,-2.075,-2.0682,-2.058,-2.0539,-2.0505,-2.041,-2.0499,-2.0668,-2.0824,-2.0926,-2.098,-2.0987,-2.0987,-2.0987,-2.0973,-2.0953,-2.0987,-2.1089,-2.1075,-2.096,-2.0865,-2.0797,-2.0831,-2.0946,-2.0973,-2.0994,-4.0476,-4.3606,-4.3462,-4.1137,-3.7747,-3.7217,-3.6769,-3.6523,-3.6277,-3.7977,-4.0567,-4.0813,-4.135,-4.2452,-4.422,-4.4915,-4.4742,-4.4843,-4.6025,-4.7697,-4.624,-4.4821,-4.383,-4.1677,-3.9781,-3.8358,-3.7333,-3.6443,-3.5492,-3.5297,-3.5261,-3.5261,-3.5248,-3.5248,-3.5495,-3.6325,-3.6921,-3.6921,-3.6921,-3.6921,-3.6804,-3.5845,-3.5151,-3.498,-3.2909,-3.0833,-2.8957,-3.2436,-3.363,-3.178,-3.457,-3.6321,-3.6692,-3.7755,-3.8437,-3.8197,-3.5667,-3.3371,-3.1925,-2.7509,-2.4293,-2.3359,-2.2988,-2.343,-2.4797,-2.6416,-2.8046,-2.923,-2.9428,-2.7803,-2.6878,-2.6078,-2.6176,-2.5948,-2.4598,-2.3659,-2.3872,-2.411,-2.4741,-2.6032,-2.7768,-2.9161,-2.8323,-2.7287,-2.479,-2.1702,-2.0973,-2.0933,-2.0817,-2.077,-2.075,-2.0709,-2.0689,-2.0709,-2.0777,-2.0736,-2.0811,-2.0987,-2.1116,-2.1184,-2.1211,-2.1231,-2.1238,-2.1143,-2.1136,-2.1116,-2.1163,-2.1095,-2.1034,-2.1034,-2.098,-2.1062,-2.1252,-2.1211,-2.1285,-4.3748,-4.5458,-4.5531,-4.3996,-4.177,-4.114,-4.0834,-4.0564,-4.0294,-4.1378,-4.3147,-4.3287,-4.3521,-4.4444,-4.6495,-4.8848,-5.0222,-4.9577,-5.0305,-5.2177,-4.942,-4.8149,-4.7686,-4.4566,-4.2592,-4.2098,-4.1216,-4.0147,-3.9159,-3.9199,-3.9092,-3.8628,-3.8891,-3.8905,-3.8758,-3.8718,-3.8718,-3.8718,-3.8718,-3.8718,-3.8718,-3.8718,-3.8718,-3.833,-3.6369,-3.4271,-3.2253,-3.5888,-3.7198,-3.5633,-3.7061,-3.8197,-3.841,-3.8611,-3.8811,-3.8725,-3.6954,-3.539,-3.4283,-3.0584,-2.7897,-2.6732,-2.657,-2.7099,-2.9148,-3.1343,-3.3154,-3.4903,-3.5573,-3.5654,-3.5447,-3.4893,-3.3086,-3.0421,-2.7971,-2.6895,-2.7056,-2.728,-2.7994,-2.9598,-3.27,-3.3426,-3.1103,-2.9163,-2.6055,-2.1794,-2.1068,-2.1062,-2.0838,-2.0817,-2.0817,-2.0783,-2.0763,-2.0858,-2.096,-2.098,-2.0912,-2.1055,-2.1238,-2.1333,-2.1374,-2.1414,-2.1414,-2.1326,-2.1265,-2.1224,-2.117,-2.1109,-2.1102,-2.1123,-2.1129,-2.1177,-2.1313,-2.1408,-2.1435,-4.5888,-4.5758,-4.5732,-4.5395,-4.4761,-4.4668,-4.4955,-4.4341,-4.4089,-4.3758,-4.3808,-4.3634,-4.4872,-4.7005,-4.7841,-5.1223,-5.5409,-5.4462,-5.3618,-5.3484,-5.0925,-4.9403,-4.8778,-4.5316,-4.3183,-4.2752,-4.1844,-4.0735,-3.9693,-4.0027,-3.9813,-3.9065,-3.9319,-3.9265,-3.8758,-3.8758,-3.8718,-3.8718,-3.8718,-3.8718,-3.8718,-3.8718,-3.8718,-3.8718,-3.8459,-3.8214,-3.8214,-3.8295,-3.8269,-3.8393,-3.8548,-3.8718,-3.8744,-3.8744,-3.8985,-3.9493,-3.9467,-3.8253,-3.6389,-3.5462,-3.3211,-3.1174,-3.0516,-3.2785,-3.6547,-3.8557,-4.1298,-4.5387,-4.6857,-4.7608,-4.6743,-4.4651,-3.9984,-3.2392,-3.0823,-3.0247,-3.067,-3.0479,-3.1346,-3.4556,-3.8114,-3.779,-3.3087,-3.087,-2.8376,-2.2957,-2.1231,-2.1252,-2.0933,-2.0933,-2.0926,-2.0851,-2.0858,-2.0973,-2.1102,-2.1204,-2.1116,-2.1095,-2.1285,-2.1421,-2.1401,-2.1421,-2.1475,-2.1408,-2.138,-2.1346,-2.1319,-2.1265,-2.1272,-2.1292,-2.1292,-2.1292,-2.1408,-2.1496,-2.1469,-4.6199,-4.5732,-4.5531,-4.5398,-4.5277,-4.5104,-4.485,-4.4583,-4.4463,-4.4155,-4.3754,-4.3808,-4.5422,-4.8119,-5.0422,-5.3869,-5.7881,-5.9374,-6.0269,-5.9606,-5.6894,-5.4237,-5.1809,-4.8381,-4.4896,-4.2368,-4.175,-4.1149,-4.0522,-4.0522,-4.0241,-3.9974,-3.968,-3.9519,-3.9265,-3.8945,-3.8718,-3.8718,-3.8718,-3.8718,-3.8718,-3.8718,-3.8718,-3.8718,-3.8718,-3.8718,-3.8718,-3.8624,-3.8624,-3.8718,-3.8718,-3.8905,-3.9172,-3.8945,-3.9199,-4.0014,-3.98,-3.9628,-3.8996,-3.7138,-3.5427,-3.4342,-3.5679,-3.75,-3.9595,-4.3441,-4.6482,-4.8961,-4.8944,-4.8944,-4.87,-4.8064,-4.4949,-4.0184,-3.5644,-3.3556,-3.4156,-3.4458,-3.639,-3.9237,-4.1137,-3.8644,-3.3604,-3.1786,-2.9061,-2.3017,-2.1519,-2.1326,-2.115,-2.1089,-2.1136,-2.1082,-2.1095,-2.1095,-2.1238,-2.1313,-2.1258,-2.1224,-2.136,-2.1428,-2.1414,-2.1489,-2.153,-2.1523,-2.1489,-2.1455,-2.1435,-2.1414,-2.1401,-2.1401,-2.1367,-2.1435,-2.1543,-2.1277,-2.0678,-4.6346,-4.5892,-4.5598,-4.5411,-4.5318,-4.5211,-4.5037,-4.477,-4.465,-4.4382,-4.4102,-4.3995,-4.6397,-4.9913,-5.2501,-5.5977,-6.0157,-6.2674,-6.3769,-6.3384,-6.0348,-5.7636,-5.5194,-5.1741,-4.8567,-4.5896,-4.5612,-4.4676,-4.2738,-4.2547,-4.1761,-4.0374,-3.9773,-3.9466,-3.9279,-3.8931,-3.8718,-3.8718,-3.8718,-3.8718,-3.8718,-3.8718,-3.8718,-3.8718,-3.8718,-3.8718,-3.8718,-3.8718,-3.8718,-3.8718,-3.8718,-3.8918,-3.9212,-3.8945,-3.9159,-3.9827,-3.9893,-3.9947,-4.0424,-3.909,-3.7767,-3.7961,-4.0495,-4.2848,-4.4048,-4.8487,-5.1223,-5.2762,-5.3031,-5.2699,-5.2716,-5.1547,-4.9993,-4.7836,-4.3283,-3.9928,-3.934,-3.8711,-3.9339,-4.1177,-4.2031,-3.9195,-3.5462,-3.2188,-2.9872,-2.4664,-2.2307,-2.1428,-2.1292,-2.1204,-2.1197,-2.119,-2.1157,-2.1224,-2.1387,-2.1414,-2.1394,-2.1401,-2.1441,-2.1428,-2.1401,-2.1584,-2.1686,-2.1625,-2.1584,-2.1509,-2.1482,-2.1448,-2.1421,-2.1428,-2.1408,-2.1421,-2.1189,-1.9461,-1.8627,-4.7121,-4.6699,-4.6484,-4.6567,-4.6524,-4.6675,-4.6701,-4.6144,-4.5495,-4.544,-4.5277,-4.5016,-4.7794,-5.241,-5.4029,-5.7689,-6.2828,-6.361,-6.3965,-6.3412,-6.1277,-5.9174,-5.7528,-5.4217,-5.1954,-5.1214,-5.158,-5.0,-4.6692,-4.6465,-4.4361,-4.1674,-4.1388,-3.9989,-3.9883,-3.916,-3.9249,-3.8731,-3.8718,-3.8718,-3.8718,-3.8718,-3.8718,-3.8718,-3.8718,-3.8718,-3.8718,-3.8718,-3.8718,-3.8718,-3.8784,-3.8918,-3.8878,-3.8811,-3.9118,-3.992,-3.9773,-4.0321,-4.1096,-4.1044,-4.084,-4.0956,-4.4202,-4.7536,-4.9513,-5.2476,-5.5834,-5.81,-5.8341,-5.8504,-5.7924,-5.644,-5.4764,-5.3944,-4.9673,-4.6611,-4.5308,-4.276,-4.1523,-4.1381,-4.1758,-4.0823,-3.7083,-3.4002,-3.0548,-2.7035,-2.3732,-2.1867,-2.1346,-2.1252,-2.117,-2.1177,-2.1231,-2.1292,-2.1435,-2.1435,-2.1428,-2.153,-2.157,-2.157,-2.1516,-2.1679,-2.1713,-2.1658,-2.1631,-2.1564,-2.1502,-2.1462,-2.1408,-2.1374,-2.1353,-2.1333,-2.0421,-1.8863,-1.703,-5.4377,-5.4119,-5.3137,-5.2871,-5.2949,-5.2489,-5.2395,-5.2227,-4.9711,-4.8391,-4.8159,-4.8145,-5.0123,-5.3669,-5.6516,-6.0182,-6.3233,-6.4121,-6.418,-6.4156,-6.3547,-6.0876,-5.7818,-5.4994,-5.3174,-5.2549,-5.316,-5.2128,-5.0524,-5.0049,-4.911,-4.8241,-4.7093,-4.5804,-4.3665,-4.3007,-4.1281,-3.9119,-3.8847,-3.8977,-3.8963,-3.8977,-3.8718,-3.8718,-3.8963,-3.8977,-3.8718,-3.8718,-3.8718,-3.8758,-3.9159,-3.9586,-3.9853,-3.9599,-3.992,-4.0935,-4.0682,-4.0735,-4.1657,-4.205,-4.1764,-4.1899,-4.6858,-5.0055,-5.0518,-5.5455,-5.8404,-5.9726,-5.9433,-5.9199,-5.9107,-5.8626,-5.8347,-5.7722,-5.2008,-4.7041,-4.5983,-4.366,-4.1991,-4.2031,-4.2325,-4.08,-3.8104,-3.476,-3.1292,-2.7731,-2.4507,-2.1509,-2.1554,-2.1374,-2.134,-2.1346,-2.138,-2.1401,-2.1428,-2.1435,-2.1489,-2.1618,-2.1713,-2.1801,-2.176,-2.1808,-2.1706,-2.157,-2.1577,-2.1536,-2.1489,-2.1441,-2.1387,-2.1333,-2.0838,-2.0454,-2.0056,-1.8754,-1.6384,-5.7284,-5.7137,-5.6063,-5.5716,-5.5896,-5.5485,-5.532,-5.4962,-5.313,-5.1952,-5.1546,-5.1483,-5.3197,-5.6125,-5.8327,-6.1106,-6.4054,-6.4316,-6.4316,-6.4316,-6.4195,-6.2548,-5.998,-5.7939,-5.692,-5.6279,-5.6621,-5.5684,-5.4095,-5.3443,-5.2473,-5.0813,-5.0518,-4.9204,-4.7181,-4.6876,-4.582,-4.3803,-4.3237,-4.3192,-4.2944,-4.293,-4.3045,-4.3045,-4.3045,-4.3089,-4.3222,-4.3367,-4.2179,-3.9993,-3.9439,-3.9867,-4.0374,-4.0174,-4.0454,-4.143,-4.0815,-4.0895,-4.1853,-4.2943,-4.3884,-4.49,-4.9894,-5.2812,-5.3905,-5.7467,-6.0078,-6.0039,-5.9531,-5.9336,-5.9453,-5.9687,-6.0176,-5.9668,-5.3321,-4.8434,-4.8391,-4.6181,-4.3942,-4.3094,-4.2518,-4.2319,-3.9934,-3.6723,-3.3346,-3.006,-2.6722,-2.394,-2.2097,-2.181,-2.1608,-2.1819,-2.1825,-2.1972,-2.2132,-2.2146,-2.1697,-2.1827,-2.1815,-2.1916,-2.1909,-2.1889,-2.174,-2.1604,-2.1564,-2.1523,-2.1489,-2.1441,-2.1374,-2.1089,-2.0341,-1.8996,-1.8043,-1.5825,-1.3719,-5.8472,-5.8422,-5.7631,-5.716,-5.7349,-5.7257,-5.7585,-5.6645,-5.6012,-5.552,-5.5171,-5.4854,-5.6252,-5.9179,-5.9799,-6.1494,-6.4316,-6.4316,-6.4316,-6.4258,-6.4121,-6.3252,-6.2531,-6.1861,-6.1281,-6.0899,-6.1992,-5.9862,-5.7444,-5.6463,-5.4783,-5.327,-5.2173,-5.122,-5.0837,-5.0687,-5.0404,-4.9064,-4.8422,-4.803,-4.7819,-4.7738,-4.7559,-4.7559,-4.769,-4.7982,-4.8456,-4.8702,-4.6703,-4.1186,-4.083,-4.1785,-4.2096,-4.1868,-4.2113,-4.2453,-4.286,-4.2822,-4.3052,-4.5833,-4.7132,-4.8371,-5.308,-5.6536,-5.6421,-5.8573,-6.0371,-6.0351,-5.9746,-5.9687,-5.9922,-6.0,-6.0449,-6.038,-5.5702,-5.253,-5.0961,-4.8803,-4.5879,-4.3298,-4.2913,-4.306,-4.2273,-3.9872,-3.6145,-3.1438,-2.7919,-2.3911,-2.2229,-2.1799,-2.2181,-2.2907,-2.2819,-2.2649,-2.2824,-2.3008,-2.2455,-2.2036,-2.2025,-2.1977,-2.1957,-2.1903,-2.1781,-2.1679,-2.1618,-2.157,-2.1523,-2.1462,-2.0593,-1.9249,-1.7551,-1.5887,-1.4375,-1.1002,-0.8498,-6.5887,-6.5793,-6.4621,-6.4262,-6.4375,-6.3903,-6.3588,-6.3267,-6.0387,-5.8998,-5.8698,-5.8556,-5.8844,-5.9445,-6.1862,-6.3688,-6.4195,-6.4297,-6.4316,-6.4219,-6.3555,-6.3281,-6.3086,-6.3144,-6.2715,-6.2031,-6.1797,-6.1077,-5.9937,-5.9016,-5.8787,-5.8099,-5.7181,-5.6784,-5.4587,-5.4534,-5.3026,-5.0703,-5.002,-5.0083,-5.0047,-4.9908,-4.9807,-4.9824,-4.9483,-4.9422,-4.954,-4.9607,-4.9176,-4.8821,-4.8657,-4.8586,-4.8147,-4.8314,-4.8278,-4.8512,-4.855,-4.8854,-4.965,-5.0005,-5.0832,-5.1295,-5.4317,-5.6348,-5.6393,-5.8764,-6.0221,-6.041,-6.0273,-6.0195,-6.0586,-6.0762,-6.0957,-6.0303,-5.793,-5.4301,-5.1309,-4.6974,-4.4134,-4.311,-4.2939,-4.318,-4.3133,-3.7961,-3.4695,-3.2406,-2.8552,-2.3596,-2.2347,-2.2057,-2.3066,-2.4284,-2.5452,-2.5804,-2.6199,-2.5778,-2.4111,-2.3021,-2.2465,-2.1937,-2.1923,-2.1943,-2.1821,-2.1733,-2.1672,-2.1337,-2.0311,-1.8309,-1.6923,-1.5711,-1.3943,-1.0953,-0.8012,-0.5383,-0.3643,-6.8476,-6.834,-6.707,-6.6543,-6.6484,-6.6074,-6.5781,-6.5214,-6.3453,-6.2223,-6.2029,-6.1849,-6.1718,-6.1758,-6.3406,-6.4316,-6.4258,-6.4101,-6.4121,-6.4062,-6.3476,-6.3066,-6.2988,-6.2969,-6.2539,-6.1797,-6.1719,-6.1387,-6.082,-6.0547,-6.0221,-6.0469,-6.0625,-5.9802,-5.8495,-5.8204,-5.727,-5.568,-5.4634,-5.425,-5.4147,-5.5227,-5.5861,-5.5544,-5.4885,-5.4268,-5.5092,-5.5146,-5.5446,-5.587,-5.5968,-5.4412,-5.2025,-5.1544,-5.1759,-5.1804,-5.1826,-5.1693,-5.2041,-5.3457,-5.4284,-5.4302,-5.701,-5.8013,-5.8489,-5.9706,-6.0104,-6.0156,-6.0019,-6.0078,-6.0703,-6.1015,-6.1113,-6.0825,-5.8825,-5.5591,-5.1919,-4.7806,-4.4369,-4.3542,-4.314,-4.3434,-4.159,-3.7382,-3.4657,-3.3063,-2.9602,-2.5016,-2.3285,-2.3235,-2.4929,-2.6332,-2.8205,-2.9218,-2.9834,-2.8794,-2.6155,-2.4666,-2.3285,-2.241,-2.1794,-2.1842,-2.1876,-2.1484,-2.0942,-1.9128,-1.7729,-1.5612,-1.2647,-1.018,-0.775,-0.4544,-0.1874,0.0134,0.1211,-6.8789,-6.8613,-6.7383,-6.6621,-6.625,-6.6191,-6.5742,-6.5019,-6.4941,-6.4256,-6.4375,-6.4316,-6.3849,-6.4175,-6.4175,-6.4316,-6.4219,-6.4043,-6.4062,-6.4004,-6.3535,-6.3542,-6.3563,-6.3031,-6.2696,-6.2301,-6.1716,-6.1035,-6.0703,-6.0683,-6.0508,-6.0508,-6.0859,-6.0921,-6.1349,-6.1269,-6.0264,-5.9495,-5.9617,-5.9697,-5.9941,-6.1837,-6.31,-6.2116,-6.0927,-5.9734,-5.9878,-6.0053,-6.0864,-6.1758,-6.1816,-5.8918,-5.5421,-5.3474,-5.3457,-5.3699,-5.4302,-5.4577,-5.5041,-5.631,-5.7813,-5.774,-5.9791,-6.0864,-6.053,-6.0298,-6.0296,-6.0137,-5.998,-6.0058,-6.041,-6.084,-6.123,-6.0922,-5.8874,-5.599,-5.3158,-5.0231,-4.719,-4.3751,-4.3046,-4.3247,-4.1855,-3.8823,-3.6167,-3.3453,-2.9964,-2.7094,-2.5318,-2.5432,-2.7622,-2.975,-3.1868,-3.2825,-3.3326,-3.28,-2.9947,-2.663,-2.4719,-2.3283,-2.2222,-2.1686,-2.1565,-2.0688,-1.9644,-1.7735,-1.4504,-1.1161,-0.8055,-0.4943,-0.1203,0.2278,0.4159,0.5501,0.4703,-6.8613,-6.8203,-6.7265,-6.6621,-6.625,-6.6211,-6.5827,-6.5019,-6.4922,-6.4687,-6.4355,-6.4316,-6.4316,-6.4316,-6.4316,-6.4316,-6.4277,-6.4121,-6.4023,-6.3887,-6.3616,-6.3958,-6.4811,-6.3284,-6.3336,-6.4022,-6.2588,-6.0683,-6.0449,-6.0195,-6.0371,-6.0488,-6.084,-6.125,-6.1697,-6.1424,-6.1532,-6.2128,-6.27,-6.3073,-6.3695,-6.5068,-6.5842,-6.4561,-6.3369,-6.2343,-6.1224,-6.1133,-6.1445,-6.2168,-6.2246,-6.1713,-6.0525,-5.9791,-5.949,-5.9391,-5.946,-5.9242,-5.9353,-6.0425,-6.1132,-6.1018,-6.1135,-6.0939,-6.0683,-6.0703,-6.0625,-6.0527,-6.0723,-6.1015,-6.0488,-6.0898,-6.1209,-6.0516,-5.9253,-5.6956,-5.591,-5.375,-4.9793,-4.5624,-4.433,-4.2771,-4.1326,-3.9321,-3.623,-3.3648,-3.0924,-2.89,-2.7594,-2.9175,-3.2049,-3.4086,-3.6161,-3.6677,-3.6911,-3.6031,-3.3933,-2.9427,-2.6839,-2.4654,-2.3347,-2.1936,-2.1097,-2.0737,-1.8593,-1.59,-1.2256,-0.7536,-0.3354,0.0134,0.4424,0.8616,0.779,0.657,0.2694,-7.0004,-7.1169,-7.0201,-6.9348,-6.8759,-6.8455,-6.6947,-6.5083,-6.4707,-6.4512,-6.4355,-6.4316,-6.4316,-6.4316,-6.4316,-6.4316,-6.4277,-6.4062,-6.4004,-6.3887,-6.3459,-6.3563,-6.4826,-6.2853,-6.2847,-6.3028,-6.163,-6.0762,-6.0742,-6.0371,-6.0371,-6.0664,-6.082,-6.1726,-6.3382,-6.3473,-6.3886,-6.4805,-6.5647,-6.5865,-6.5951,-6.7286,-6.6848,-6.6341,-6.4879,-6.3271,-6.1666,-6.1601,-6.1914,-6.2324,-6.2598,-6.2812,-6.2773,-6.2519,-6.2051,-6.207,-6.2226,-6.2168,-6.1816,-6.1933,-6.1758,-6.166,-6.166,-6.1289,-6.082,-6.0742,-6.0801,-6.0527,-6.0859,-6.123,-6.084,-6.1248,-6.2137,-6.3152,-6.2094,-6.1285,-6.0611,-5.9242,-5.4904,-4.9497,-4.7005,-4.49,-4.1733,-3.9244,-3.6076,-3.3568,-3.1699,-3.0648,-2.9813,-3.2595,-3.5737,-3.6787,-3.8587,-3.9293,-3.917,-3.8142,-3.6954,-3.2714,-2.9354,-2.7176,-2.475,-2.348,-2.2342,-2.1484,-1.8512,-1.4823,-0.8605,-0.3357,0.0938,0.4819,0.7507,0.9526,0.8709,0.6835,0.1479,-7.2806,-7.4868,-7.3803,-7.2718,-7.1803,-7.1518,-6.9615,-6.6915,-6.6552,-6.607,-6.5347,-6.593,-6.5709,-6.454,-6.4316,-6.4297,-6.4277,-6.3965,-6.4004,-6.3887,-6.3381,-6.3089,-6.3404,-6.2618,-6.2399,-6.3339,-6.1754,-6.1113,-6.0801,-6.0547,-6.0968,-6.1846,-6.1593,-6.3217,-6.6023,-6.6271,-6.7584,-6.8076,-6.9034,-6.8746,-6.9236,-6.934,-6.9128,-6.889,-6.6799,-6.4534,-6.2642,-6.2029,-6.2324,-6.2539,-6.2812,-6.3066,-6.3086,-6.2832,-6.2558,-6.2402,-6.2363,-6.2129,-6.1875,-6.1875,-6.1914,-6.1738,-6.2031,-6.1543,-6.1035,-6.084,-6.084,-6.0351,-6.0742,-6.1133,-6.1052,-6.1943,-6.3402,-6.4874,-6.5918,-6.6394,-6.553,-6.4103,-6.1845,-5.6687,-5.1728,-4.8173,-4.6039,-4.1048,-3.8187,-3.7001,-3.5172,-3.3909,-3.3594,-3.6211,-3.8595,-3.9146,-4.0185,-4.1452,-4.1248,-3.9991,-3.843,-3.5687,-3.2883,-3.0641,-2.7838,-2.5293,-2.4048,-2.2356,-1.7495,-1.315,-0.6164,0.0134,0.4822,0.8166,0.9903,0.9212,0.6252,0.0931,-0.5212,-7.7982,-7.7384,-7.6927,-7.5881,-7.4628,-7.4545,-7.3755,-7.2329,-7.1988,-7.076,-6.8529,-7.0643,-6.9043,-6.593,-6.4883,-6.4661,-6.4622,-6.5026,-6.5209,-6.513,-6.4672,-6.5236,-6.5872,-6.3421,-6.449,-6.5142,-6.3339,-6.1287,-6.137,-6.1247,-6.2114,-6.3975,-6.5029,-6.6596,-6.9429,-6.9337,-6.9176,-6.9635,-7.1228,-7.2929,-7.4361,-7.4512,-7.3498,-7.1691,-6.96,-6.7036,-6.4604,-6.3339,-6.2617,-6.2812,-6.2949,-6.3223,-6.3515,-6.3574,-6.3066,-6.2637,-6.2324,-6.2187,-6.1855,-6.1953,-6.2012,-6.1777,-6.1855,-6.1523,-6.1211,-6.0996,-6.1015,-6.1015,-6.1328,-6.125,-6.1299,-6.3217,-6.451,-6.6059,-6.7627,-6.85,-6.873,-6.9235,-6.6925,-6.411,-5.914,-5.5056,-5.1813,-4.5855,-4.0756,-3.9882,-3.8965,-3.7984,-3.8104,-4.1207,-4.2746,-4.3561,-4.3786,-4.4796,-4.5229,-4.3717,-4.2285,-3.9652,-3.6721,-3.4574,-3.2218,-2.9433,-2.5344,-2.2841,-1.8291,-1.4844,-1.0823,-0.3737,0.6148,0.9096,0.7876,0.5044,0.1847,-0.476,-1.3396,-8.292,-8.0504,-7.9994,-7.9394,-7.8489,-7.7909,-7.6365,-7.4527,-7.3758,-7.2553,-7.1478,-7.2619,-7.1784,-6.959,-6.9493,-6.9611,-6.9493,-6.9258,-6.9409,-6.8878,-6.8763,-6.9214,-6.9609,-6.8451,-6.8431,-6.7921,-6.7621,-6.6707,-6.5286,-6.3963,-6.443,-6.7144,-6.7715,-6.9179,-7.2212,-7.2326,-7.3311,-7.4216,-7.5004,-7.5605,-7.6183,-7.6181,-7.5183,-7.3211,-7.1986,-6.9214,-6.6224,-6.5215,-6.3648,-6.3267,-6.2851,-6.3105,-6.3183,-6.3066,-6.2695,-6.2461,-6.2109,-6.1914,-6.1777,-6.1914,-6.1855,-6.1875,-6.1875,-6.1894,-6.1523,-6.123,-6.1113,-6.1074,-6.123,-6.1133,-6.1279,-6.3466,-6.5493,-6.7322,-6.9545,-7.1484,-7.2564,-7.302,-7.2274,-6.9547,-6.6752,-6.2611,-5.827,-5.2668,-4.8157,-4.6612,-4.6113,-4.5422,-4.5793,-4.7716,-4.8538,-4.8645,-4.8709,-4.888,-4.9004,-4.8541,-4.8293,-4.5691,-4.1401,-3.9285,-3.7211,-3.4196,-3.073,-2.7609,-2.4855,-2.1015,-1.6641,-0.7459,0.2535,0.4132,0.4393,-0.1318,-0.7575,-1.732,-2.5249,-8.6379,-8.3423,-8.3013,-8.2484,-8.1923,-8.0983,-7.9329,-7.7052,-7.6357,-7.517,-7.3881,-7.3608,-7.3652,-7.4129,-7.3649,-7.2978,-7.3168,-7.3512,-7.3512,-7.331,-7.2817,-7.2188,-7.1606,-7.125,-7.0737,-7.1203,-7.0049,-6.9999,-6.9748,-6.8825,-6.8608,-7.045,-7.0307,-7.2112,-7.4341,-7.5178,-7.576,-7.6849,-7.6507,-7.6608,-7.6733,-7.6482,-7.5704,-7.4696,-7.3327,-7.1077,-6.7294,-6.5819,-6.4684,-6.2813,-6.2441,-6.2637,-6.2773,-6.2637,-6.2383,-6.2148,-6.1894,-6.1777,-6.1719,-6.1758,-6.1719,-6.1816,-6.1933,-6.1953,-6.1738,-6.1387,-6.125,-6.1289,-6.1152,-6.1152,-6.1781,-6.3854,-6.6491,-6.9156,-7.1846,-7.4327,-7.6082,-7.5405,-7.5027,-7.338,-7.1165,-7.0125,-6.5456,-6.0,-5.6166,-5.3944,-5.3034,-5.2639,-5.2872,-5.3381,-5.2577,-5.2153,-5.1817,-5.158,-5.1523,-5.1775,-5.214,-5.1952,-4.7649,-4.5064,-4.3873,-4.1122,-3.7715,-3.4642,-3.2566,-2.9355,-2.6201,-1.3564,-0.213,-0.305,-0.5142,-1.162,-1.8956,-2.8805,-3.5975,-8.6939,-8.5762,-8.5712,-8.4975,-8.4001,-8.3461,-8.2718,-8.15,-8.1737,-7.9747,-7.6781,-7.4667,-7.5161,-7.6239,-7.5764,-7.4697,-7.3832,-7.3512,-7.4198,-7.3632,-7.2235,-7.2837,-7.2966,-7.2556,-7.1503,-7.148,-7.1913,-7.3037,-7.3923,-7.4016,-7.3155,-7.2677,-7.3609,-7.5486,-7.6683,-7.6994,-7.6876,-7.7411,-7.6808,-7.6758,-7.6933,-7.6959,-7.6858,-7.665,-7.4726,-7.1915,-6.8949,-6.6814,-6.4604,-6.2493,-6.1894,-6.2012,-6.2187,-6.2129,-6.1914,-6.166,-6.166,-6.1601,-6.1621,-6.168,-6.1719,-6.1719,-6.1758,-6.1836,-6.1719,-6.1719,-6.166,-6.1504,-6.1152,-6.0976,-6.2516,-6.5042,-6.7037,-6.9283,-7.1691,-7.437,-7.5833,-7.6107,-7.5784,-7.5957,-7.4898,-7.323,-7.2504,-6.7072,-6.2788,-6.027,-5.9013,-5.8541,-5.6982,-5.6967,-5.5491,-5.4699,-5.4212,-5.3867,-5.3266,-5.4267,-5.7201,-5.7302,-5.442,-5.2754,-5.1732,-4.8432,-4.564,-4.4886,-4.3233,-3.9485,-3.5598,-2.7072,-1.9523,-1.4137,-1.5304,-2.3108,-3.1048,-4.019,-4.5408,-8.6977,-8.5973,-8.527,-8.4918,-8.4767,-8.424,-8.3688,-8.316,-8.2809,-8.1771,-7.9885,-7.8862,-7.8886,-7.9539,-7.9869,-7.9112,-7.8654,-7.8606,-7.8219,-7.8125,-7.7571,-7.7402,-7.7233,-7.6503,-7.6569,-7.6082,-7.5996,-7.5927,-7.7018,-7.8129,-7.8518,-7.8135,-7.7859,-7.7411,-7.8039,-7.8166,-7.7863,-7.7536,-7.7461,-7.7687,-7.7712,-7.7586,-7.7812,-7.8436,-7.7229,-7.4712,-7.2159,-6.9102,-6.6413,-6.406,-6.207,-6.152,-6.1523,-6.1426,-6.125,-6.1074,-6.1191,-6.1328,-6.1426,-6.1562,-6.1719,-6.1719,-6.1719,-6.1719,-6.1719,-6.1719,-6.1543,-6.1308,-6.0976,-6.0723,-6.0936,-6.3362,-6.5823,-6.8167,-7.0944,-7.3931,-7.5335,-7.5658,-7.6105,-7.6083,-7.5858,-7.5059,-7.4803,-7.4133,-7.0139,-6.6689,-6.5503,-6.4245,-6.2566,-6.1719,-6.0939,-6.0666,-6.0546,-6.1038,-6.0748,-6.183,-6.2968,-6.185,-6.0748,-5.9894,-5.863,-5.7507,-5.5217,-5.4763,-5.3983,-5.0998,-4.7319,-4.2626,-3.6254,-2.8486,-2.9887,-3.625,-4.4192,-5.156,-5.3369,-8.7077,-8.6123,-8.5044,-8.4692,-8.4793,-8.4115,-8.3612,-8.3236,-8.2834,-8.2357,-8.1805,-8.1805,-8.1805,-8.1955,-8.2275,-8.2143,-8.1346,-8.1204,-8.1035,-8.0579,-8.0149,-8.0599,-8.0398,-7.9889,-7.8814,-7.9721,-7.9595,-7.8937,-7.8687,-8.15,-8.1289,-8.1114,-8.2237,-8.1531,-7.9996,-7.8836,-7.8593,-7.7863,-7.7762,-7.8314,-7.8289,-7.8013,-7.8038,-7.8716,-7.7735,-7.5907,-7.3213,-7.017,-6.7387,-6.4861,-6.2549,-6.0991,-6.0781,-6.0742,-6.0586,-6.0586,-6.0683,-6.0918,-6.1152,-6.1445,-6.1699,-6.1719,-6.1719,-6.1719,-6.1719,-6.1699,-6.1562,-6.1152,-6.0723,-6.0254,-6.005,-6.2419,-6.4204,-6.6375,-7.0263,-7.3154,-7.4312,-7.4987,-7.5633,-7.6081,-7.6082,-7.6358,-7.6008,-7.5754,-7.3968,-7.0482,-6.8658,-6.79,-6.7776,-6.7469,-6.8163,-6.8163,-6.8431,-6.9115,-6.9782,-6.8299,-6.667,-6.6345,-6.5518,-6.6072,-6.5159,-6.4122,-6.3455,-6.2468,-6.1781,-6.1641,-5.9166,-5.5177,-4.8559,-4.102,-4.4904,-4.9578,-5.3733,-5.9653,-5.8964,-8.7253,-8.6651,-8.5546,-8.4818,-8.4315,-8.3186,-8.2784,-8.2784,-8.2683,-8.2357,-8.1855,-8.183,-8.1779,-8.1905,-8.2282,-8.2106,-8.1579,-8.1202,-8.0926,-8.065,-8.0072,-7.962,-7.9545,-7.9495,-7.9419,-7.8892,-7.9068,-7.9344,-7.9372,-8.1445,-8.1701,-8.3103,-8.4917,-8.5702,-8.3877,-8.1524,-7.9321,-7.7282,-7.7109,-7.7687,-7.8114,-7.7938,-7.8114,-7.8139,-7.7586,-7.5946,-7.4295,-7.0488,-6.7775,-6.5825,-6.2549,-6.0991,-6.0644,-6.0781,-6.0644,-6.041,-6.041,-6.0644,-6.1035,-6.1445,-6.164,-6.1699,-6.1719,-6.168,-6.168,-6.164,-6.1387,-6.084,-6.0547,-6.0195,-6.0779,-6.1564,-6.2747,-6.4982,-6.8773,-7.1406,-7.2551,-7.3937,-7.4563,-7.5907,-7.6833,-7.736,-7.6959,-7.6533,-7.601,-7.4002,-7.185,-7.1344,-7.1877,-7.256,-7.3244,-7.3306,-7.3501,-7.3129,-7.2866,-7.1553,-7.0482,-7.0234,-7.0272,-7.0728,-7.0682,-6.9632,-6.9262,-6.931,-6.9023,-6.8234,-6.8428,-6.7971,-6.1301,-5.5908,-5.8158,-6.2172,-6.5619,-6.6125,-6.4286,-8.7278,-8.6676,-8.5596,-8.4818,-8.424,-8.3537,-8.301,-8.2708,-8.2633,-8.2357,-8.198,-8.2181,-8.1905,-8.1679,-8.1704,-8.1629,-8.085,-8.065,-8.0398,-7.9921,-7.952,-7.9469,-7.9394,-7.9344,-7.9243,-7.9193,-7.9344,-7.9369,-7.9447,-8.1289,-8.2912,-8.4449,-8.6778,-8.7087,-8.4112,-8.146,-7.9269,-7.7432,-7.7235,-7.7637,-7.7913,-7.7812,-7.7762,-7.7938,-7.721,-7.6481,-7.5506,-7.1123,-6.8181,-6.6883,-6.3752,-6.0818,-6.0605,-6.0703,-6.0234,-6.0058,-6.0039,-6.0215,-6.0625,-6.1035,-6.1426,-6.1562,-6.1621,-6.1504,-6.1367,-6.1308,-6.0918,-6.0488,-6.0215,-5.9844,-5.9843,-5.9948,-6.108,-6.3188,-6.6243,-6.875,-7.033,-7.2019,-7.3308,-7.536,-7.6707,-7.731,-7.7285,-7.7009,-7.6576,-7.6765,-7.4896,-7.5304,-7.5991,-7.6663,-7.7336,-7.7164,-7.7042,-7.6411,-7.5541,-7.4264,-7.3887,-7.3765,-7.44,-7.5382,-7.5079,-7.384,-7.4048,-7.3527,-7.4208,-7.4678,-7.3458,-7.2645,-7.3241,-7.1939,-6.97,-6.7659,-6.8078,-6.7916,-6.6606,-8.7379,-8.6902,-8.547,-8.4667,-8.4265,-8.3738,-8.3186,-8.2734,-8.2658,-8.2357,-8.198,-8.2206,-8.1905,-8.1302,-8.1076,-8.1026,-8.0198,-7.9972,-7.9846,-7.9394,-7.9394,-7.9243,-7.9168,-7.9218,-7.8992,-7.9068,-7.9193,-7.9269,-7.8895,-8.0951,-8.3196,-8.569,-8.7988,-8.7207,-8.4765,-8.271,-8.0523,-7.8781,-7.8107,-7.7461,-7.7586,-7.7536,-7.7385,-7.726,-7.6984,-7.6708,-7.5521,-7.2517,-6.8543,-6.7409,-6.4617,-6.0834,-6.0547,-6.0351,-5.9922,-5.9883,-5.9844,-5.9961,-6.0254,-6.0625,-6.0957,-6.1152,-6.1269,-6.1133,-6.0918,-6.0859,-6.0508,-6.0098,-5.9844,-5.957,-5.9297,-5.9219,-6.0032,-6.2138,-6.371,-6.6243,-6.7702,-6.9294,-7.1917,-7.4084,-7.6283,-7.6908,-7.7511,-7.7335,-7.7008,-7.7535,-7.796,-7.8515,-7.8817,-7.8917,-7.8917,-7.8639,-7.8311,-7.7348,-7.6945,-7.687,-7.6774,-7.736,-7.7385,-7.7335,-7.7234,-7.569,-7.6755,-7.7285,-7.6205,-7.5603,-7.6132,-7.6108,-7.5054,-7.4349,-7.3013,-7.1421,-7.0663,-6.9628,-6.8674,-8.7693,-8.7367,-8.5466,-8.4804,-8.4434,-8.388,-8.3135,-8.2683,-8.2683,-8.2357,-8.183,-8.183,-8.1503,-8.0976,-8.0499,-8.0248,-7.9997,-7.9595,-7.9369,-7.9243,-7.9093,-7.8842,-7.8766,-7.8892,-7.8591,-7.8415,-7.849,-7.8693,-7.809,-8.0068,-8.2991,-8.5733,-8.6888,-8.6976,-8.6105,-8.4203,-8.194,-7.9782,-7.7824,-7.7209,-7.7159,-7.7059,-7.6883,-7.6707,-7.6507,-7.6557,-7.5125,-7.1912,-6.9306,-6.6973,-6.3925,-6.1454,-6.0351,-6.0273,-6.0117,-5.9941,-5.9824,-5.9824,-5.9844,-6.0195,-6.0293,-6.041,-6.0332,-6.0351,-6.043,-6.041,-6.0117,-5.9863,-5.9648,-5.9453,-5.9277,-5.9238,-5.9291,-6.0658,-6.1809,-6.3405,-6.466,-6.688,-6.9917,-7.2533,-7.5146,-7.6427,-7.7159,-7.7285,-7.7034,-7.7009,-7.726,-7.7285,-7.7611,-7.8063,-7.8038,-7.7888,-7.7586,-7.7436,-7.7285,-7.7134,-7.6908,-7.6557,-7.6657,-7.6682,-7.6808,-7.6883,-7.6707,-7.6507,-7.623,-7.6055,-7.603,-7.5753,-7.5206,-7.4515,-7.4021,-7.3994,-7.2796,-7.1879,-7.084,-9.0336,-9.0035,-9.095,-8.9728,-8.6952,-8.4124,-8.2809,-8.2683,-8.2683,-8.2332,-8.1805,-8.1805,-8.1227,-8.0449,-8.0273,-7.9972,-7.952,-7.9118,-7.8842,-7.8691,-7.849,-7.8164,-7.8088,-7.8164,-7.7963,-7.7913,-7.7963,-7.8063,-7.8114,-7.96,-8.1527,-8.3995,-8.5935,-8.7145,-8.686,-8.5171,-8.2474,-7.9936,-7.766,-7.6828,-7.6557,-7.6431,-7.6331,-7.6205,-7.618,-7.6356,-7.548,-7.174,-6.9494,-6.85,-6.4256,-6.1481,-6.1289,-6.0996,-6.0644,-5.9902,-5.9785,-5.9707,-5.9512,-5.9746,-6.0109,-6.0059,-5.9823,-5.9531,-5.9746,-6.0128,-5.9972,-5.9512,-5.9433,-5.9297,-5.9238,-5.9219,-5.9199,-5.981,-6.0768,-6.15,-6.2882,-6.466,-6.7724,-7.1047,-7.3669,-7.5598,-7.6481,-7.7009,-7.6758,-7.6507,-7.6381,-7.6381,-7.6482,-7.6984,-7.7159,-7.7009,-7.6808,-7.6557,-7.6306,-7.613,-7.5904,-7.5728,-7.5829,-7.6004,-7.623,-7.623,-7.5979,-7.5753,-7.5527,-7.5427,-7.5377,-7.505,-7.4674,-7.4649,-7.4262,-7.483,-7.4955,-7.3601,-7.2618,-9.1907,-9.2631,-9.3467,-9.163,-8.7958,-8.5336,-8.3656,-8.2571,-8.2332,-8.2005,-8.1503,-8.1252,-8.07,-7.9972,-7.9821,-7.957,-7.9018,-7.8766,-7.8465,-7.8114,-7.7812,-7.7812,-7.7712,-7.7637,-7.7561,-7.7536,-7.7486,-7.7511,-7.7756,-7.9196,-8.1123,-8.4559,-8.5795,-8.6797,-8.6713,-8.4595,-8.199,-7.9646,-7.7594,-7.6298,-7.5904,-7.5929,-7.5929,-7.5854,-7.5904,-7.6331,-7.6358,-7.2228,-7.0907,-7.0138,-6.5783,-6.2945,-6.2294,-6.1499,-6.0426,-5.9629,-5.9512,-5.9414,-5.9521,-6.0787,-6.0858,-6.11,-6.1434,-6.2623,-6.1561,-6.1261,-6.0012,-5.8984,-5.9101,-5.9199,-5.9199,-5.9199,-5.9199,-5.9291,-5.9607,-6.0032,-6.13,-6.2773,-6.5841,-6.9279,-7.1902,-7.4041,-7.5329,-7.6083,-7.6507,-7.6306,-7.608,-7.5954,-7.5904,-7.603,-7.618,-7.6105,-7.5904,-7.5678,-7.5452,-7.5327,-7.5176,-7.505,-7.5025,-7.5226,-7.5552,-7.5678,-7.5527,-7.5226,-7.4875,-7.4774,-7.4649,-7.4372,-7.4096,-7.4071,-7.4021,-7.4197,-7.4322,-7.3932,-7.3243,-9.2764,-9.5114,-9.4053,-9.1932,-8.847,-8.7366,-8.5263,-8.2601,-8.279,-8.18,-8.1111,-8.0474,-7.9997,-7.957,-7.9369,-7.9068,-7.8641,-7.8314,-7.7913,-7.7611,-7.7385,-7.731,-7.7335,-7.7511,-7.7109,-7.7059,-7.7059,-7.708,-7.7358,-7.8924,-8.1872,-8.5738,-8.568,-8.5992,-8.5622,-8.3679,-8.1262,-7.9171,-7.7183,-7.5603,-7.5603,-7.5703,-7.5804,-7.5552,-7.5778,-7.618,-7.5883,-7.4516,-7.2623,-7.089,-6.8632,-6.5175,-6.4075,-6.287,-6.1382,-6.0827,-6.1261,-6.1271,-6.17,-6.2753,-6.343,-6.4317,-6.5792,-6.5808,-6.4317,-6.2192,-6.0638,-5.9766,-5.9885,-5.9227,-5.9023,-5.914,-5.9199,-5.9199,-5.9403,-5.9607,-6.0143,-6.163,-6.3815,-6.6738,-6.8377,-7.0827,-7.4102,-7.4859,-7.5161,-7.5509,-7.5854,-7.5628,-7.5153,-7.5078,-7.5128,-7.5128,-7.5176,-7.505,-7.4975,-7.4824,-7.4573,-7.4448,-7.4397,-7.4623,-7.505,-7.5126,-7.5126,-7.4749,-7.4372,-7.4071,-7.387,-7.3669,-7.3468,-7.3293,-7.3268,-7.3343,-7.3368,-7.3197,-7.3167,-9.4951,-9.7391,-9.6263,-9.5159,-9.3894,-9.0444,-8.8469,-8.7627,-8.6736,-8.4046,-8.0973,-8.0327,-8.0207,-8.0089,-7.9684,-7.938,-7.8898,-7.8894,-7.7486,-7.7258,-7.7031,-7.6981,-7.6532,-7.6657,-7.6431,-7.6205,-7.6275,-7.6857,-7.8414,-8.0151,-8.217,-8.5566,-8.5533,-8.5183,-8.4305,-8.2423,-8.0637,-7.8173,-7.6452,-7.5475,-7.5628,-7.5502,-7.5477,-7.5502,-7.5778,-7.5778,-7.5335,-7.4094,-7.294,-7.1737,-6.96,-6.8123,-6.7646,-6.6625,-6.6213,-6.6039,-6.5025,-6.466,-6.4896,-6.5471,-6.5932,-6.5834,-6.647,-6.6225,-6.525,-6.3311,-6.2068,-6.1312,-6.0327,-5.9434,-5.8926,-5.9082,-5.9199,-5.9199,-5.9199,-5.9199,-5.918,-6.0567,-6.2179,-6.3712,-6.5086,-6.7978,-7.1539,-7.3139,-7.3772,-7.4368,-7.5107,-7.5053,-7.4132,-7.376,-7.4107,-7.4254,-7.4476,-7.4498,-7.4448,-7.4247,-7.3971,-7.3946,-7.3946,-7.4197,-7.4523,-7.4573,-7.4573,-7.4247,-7.392,-7.3569,-7.3268,-7.3117,-7.2916,-7.259,-7.2439,-7.2464,-7.19,-7.1631,-7.1918,-9.746,-9.9537,-9.8666,-9.7533,-9.598,-9.2825,-9.0616,-8.9259,-8.8209,-8.6111,-8.351,-8.3184,-8.3,-8.2712,-8.2444,-8.1446,-8.1282,-8.0973,-7.9814,-7.8666,-7.7753,-7.6992,-7.6596,-7.6202,-7.5879,-7.5678,-7.5721,-7.6702,-7.9798,-8.1253,-8.3134,-8.6301,-8.6042,-8.4685,-8.3222,-8.1338,-7.9497,-7.64,-7.5103,-7.5022,-7.5402,-7.5126,-7.4799,-7.4925,-7.5,-7.5201,-7.5458,-7.456,-7.4405,-7.341,-7.1691,-6.9004,-6.8279,-6.7447,-6.7704,-6.7548,-6.7197,-6.7395,-6.7814,-6.8259,-6.8628,-6.8604,-6.9766,-7.0596,-7.0348,-6.8445,-6.4527,-6.3378,-6.0097,-5.8783,-5.8965,-5.916,-5.918,-5.9199,-5.9199,-5.9199,-5.9062,-5.9612,-6.1345,-6.3072,-6.4102,-6.5089,-6.8033,-6.9264,-6.9766,-6.9766,-7.1098,-7.2297,-7.1737,-7.2019,-7.2531,-7.3186,-7.3332,-7.3799,-7.3971,-7.3694,-7.3343,-7.3368,-7.3519,-7.3644,-7.387,-7.4021,-7.4021,-7.372,-7.3368,-7.2941,-7.269,-7.2464,-7.2113,-7.1761,-7.161,-7.1535,-7.0831,-7.0061,-6.9554,-9.9111,-10.1049,-10.0573,-9.9041,-9.6841,-9.4789,-9.2513,-9.0187,-8.9023,-8.8408,-8.7839,-8.7728,-8.754,-8.6964,-8.6703,-8.5957,-8.4867,-8.3329,-8.2037,-8.0909,-8.0225,-7.8893,-7.7665,-7.6665,-7.6039,-7.5659,-7.5503,-7.8271,-8.1504,-8.2418,-8.4134,-8.7573,-8.7054,-8.5262,-8.1851,-8.0042,-7.8713,-7.5782,-7.4322,-7.4473,-7.4473,-7.4372,-7.4247,-7.4121,-7.4146,-7.4849,-7.5352,-7.5628,-7.568,-7.5037,-7.3562,-7.1506,-6.9888,-6.95,-6.9409,-6.9443,-6.9338,-6.9258,-6.942,-7.072,-7.1298,-7.2277,-7.4219,-7.4511,-7.3847,-7.1378,-6.7474,-6.4919,-6.1532,-5.9477,-5.9644,-5.914,-5.916,-5.918,-5.918,-5.9101,-5.8926,-5.873,-6.0275,-6.2005,-6.24,-6.2909,-6.423,-6.5454,-6.5778,-6.58,-6.6361,-6.7329,-6.8281,-6.9332,-7.0106,-7.1112,-7.1922,-7.2411,-7.3323,-7.3217,-7.2866,-7.3042,-7.3192,-7.3167,-7.3142,-7.3167,-7.3192,-7.3167,-7.2791,-7.2263,-7.1937,-7.1661,-7.1309,-7.0983,-7.0958,-7.0765,-6.9772,-6.8782,-6.704,-9.7475,-9.9885,-9.9735,-9.9309,-9.8585,-9.6803,-9.5614,-9.4841,-9.313,-9.2451,-9.1865,-9.1308,-8.9867,-8.6206,-8.5709,-8.5499,-8.5879,-8.5012,-8.3958,-8.2695,-8.2494,-8.1003,-7.9298,-7.7764,-7.6381,-7.5615,-7.5782,-7.8373,-8.1212,-8.2509,-8.4511,-8.7575,-8.7167,-8.4673,-8.0719,-7.9263,-7.7968,-7.5028,-7.3569,-7.3594,-7.3971,-7.4046,-7.4347,-7.4197,-7.3946,-7.4272,-7.4498,-7.4623,-7.4699,-7.4554,-7.4264,-7.3208,-7.2542,-7.2072,-7.2217,-7.1942,-7.18,-7.2117,-7.2612,-7.2838,-7.3306,-7.338,-7.4426,-7.405,-7.2978,-7.1322,-6.8879,-6.8481,-6.5415,-6.2372,-6.1624,-5.9743,-5.9082,-5.9101,-5.9101,-5.8867,-5.8652,-5.8476,-5.903,-5.9198,-5.8994,-6.0244,-6.1853,-6.2754,-6.3098,-6.3321,-6.3923,-6.4774,-6.5116,-6.6331,-6.7773,-6.9135,-7.0388,-7.2012,-7.3242,-7.2841,-7.259,-7.2765,-7.274,-7.2489,-7.2288,-7.2213,-7.2213,-7.2313,-7.1962,-7.1435,-7.1133,-7.0983,-7.0681,-7.0405,-7.043,-7.0113,-6.8801,-6.6639,-6.425]},{"header":{"parameterUnit":"m.s-1","parameterCategory":1,"la1":31.0,"la2":29.5877,"lo1":-88.7671,"lo2":-86.6584,"dy":0.0162,"dx":0.0185,"nx":115,"ny":88,"refTime":"2024-09-11T00:00:00:Z","depth":0,"parameterNumber":3,"parameterNumberName":"V-component_of_WINDS"},"data":[0.0,0.0,0.0,0.0,0.0,0.0,0.0,0.0,0.0,0.0,0.0,0.0,0.0,0.0,0.0,0.0,0.0,0.0,0.0,0.0,0.0,0.0,0.0,0.0,0.0,0.0,0.0,0.0,0.0,0.0,0.0,0.0,0.0,0.0,0.0,0.0,0.0,0.0,0.0,0.0,0.0,0.0,0.0,0.0,0.0,0.0,0.0,0.0,0.0,0.0,0.0,0.0,0.0,0.0,0.0,0.0,0.0,0.0,0.0,0.0,0.0,0.0,0.0,0.0,0.0,0.0,0.0,0.0,0.0,0.0,0.0,0.0,0.0,0.0,0.0,0.0,0.0,0.0,0.0,0.0,0.0,0.0,0.0,0.0,0.0,0.0,0.0,0.0,0.0,0.0,0.0,0.0,0.0,0.0,0.0,0.0,0.0,0.0,0.0,0.0,0.0,0.0,0.0,0.0,0.0,0.0,0.0,0.0,0.0,0.0,0.0,0.0,0.0,0.0,0.0,0.0,0.0,0.0,0.0,0.0,0.0,0.0,0.0,0.0,0.0,0.0,0.0,0.0,0.0,0.0,0.0,0.0,0.0,0.0,0.0,0.0,0.0,0.0,0.0,0.0,0.0,0.0,0.0,0.0,0.0,0.0,0.0,0.0,0.0,0.0,0.0,0.0,0.0,0.0,0.0,0.0,0.0,0.0,0.0,0.0,0.0,0.0,0.0,0.0,0.0,0.0,0.0,0.0,0.0,0.0,0.0,0.0,0.0,0.0,0.0,0.0,0.0,0.0,0.0,0.0,0.0,0.0,0.0,0.0,0.0,0.0,0.0,0.0,0.0,0.0,0.0,0.0,0.0,0.0,0.0,0.0,0.0,0.0,0.0,0.0,0.0,0.0,0.0,0.0,0.0,0.0,0.0,0.0,0.0,0.0,0.0,0.0,0.0,0.0,0.0,0.0,0.0,0.0,0.0,0.0,0.0,0.0,0.0,0.0,0.0,0.0,0.0,0.0,0.0,0.0,0.0,0.0,0.0,0.0,0.0,0.0,0.0,0.0,0.0,0.0,0.0,0.0,0.0,0.0,0.0,0.0,0.0,0.0,0.0,0.0,0.0,0.0,0.0,0.0,0.0,0.0,0.0,0.0,0.0,0.0,0.0,0.0,0.0,0.0,0.0,0.0,0.0,0.0,0.0,0.0,0.0,0.0,0.0,0.0,0.0,0.0,0.0,0.0,0.0,0.0,0.0,0.0,0.0,0.0,0.0,0.0,0.0,0.0,0.0,0.0,0.0,0.0,0.0,0.0,0.0,0.0,0.0,0.0,0.0,0.0,0.0,0.0,0.0,0.0,0.0,0.0,0.0,0.0,0.0,0.0,0.0,0.0,0.0,0.0,0.0,0.0,0.0,0.0,0.0,0.0,0.0,0.0,0.0,0.0,0.0,0.0,0.0,0.0,0.0,0.0,0.0,0.0,0.0,0.0,0.0,0.0,0.0,0.0,0.0,0.0,0.0,0.0,0.0,0.0,0.0,0.0,0.0,0.0,0.0,0.0,0.0,0.0,0.0,0.0,0.0,0.0,0.0,0.0,0.0,0.0,0.0,0.0,0.0,0.0,0.0,0.0,0.0,0.0,0.0,0.0,0.0,0.0,0.0,0.0,0.0,0.0,0.0,0.0,0.0,0.0,0.0,0.0,0.0,0.0,0.0,0.0,0.0,0.0,0.0,0.0,0.0,0.0,0.0,0.0,0.0,0.0,0.0,0.0,0.0,0.0,0.0,0.0,0.0,0.0,0.0,0.0,0.0,0.0,0.0,0.0,0.0,0.0,0.0,0.0,0.0,0.0,0.0,0.0,0.0,0.0,0.0,0.0,0.0,0.0,0.0,0.0,0.0,0.0,0.0,0.0,0.0,0.0,0.0,0.0,0.0,0.0,0.0,0.0,0.0,0.0,0.0,0.0,0.0,0.0,0.0,0.0,0.0,0.0,0.0,0.0,0.0,0.0,0.0,0.0,0.0,0.0,0.0,0.0,0.0,0.0,0.0,0.0,0.0,0.0,0.0,0.0,0.0,0.0,0.0,0.0,0.0,0.0,0.0,0.0,0.0,0.0,0.0,0.0,0.0,0.0,0.0,0.0,0.0,0.0,0.0,0.0,0.0,0.0,0.0,0.0,0.0,0.0,0.0,0.0,0.0,0.0,0.0,0.0,0.0,0.0,0.0,0.0,0.0,0.0,0.0,0.0,0.0,0.0,0.0,0.0,0.0,0.0,0.0,0.0,0.0,0.0,0.0,0.0,0.0,0.0,0.0,0.0,0.0,0.0,0.0,0.0,0.0,0.0,0.0,0.0,0.0,0.0,0.0,0.0,0.0,0.0,0.0,0.0,0.0,0.0,0.0,0.0,0.0,0.0,0.0,0.0,0.0,0.0,0.0,0.0,0.0,0.0,0.0,0.0,0.0,0.0,0.0,0.0,0.0,0.0,0.0,0.0,0.0,0.0,0.0,0.0,0.0,0.0,0.0,0.0,0.0,0.0,0.0,0.0,0.0,0.0,0.0,0.0,0.0,0.0,0.0,0.0,0.0,0.0,0.0,0.0,0.0,0.0,0.0,0.0,0.0,0.0,0.0,0.0,0.0,0.0,0.0,0.0,0.0,0.0,0.0,0.0,0.0,0.0,0.0,0.0,0.0,0.0,0.0,0.0,0.0,0.0,0.0,0.0,0.0,0.0,0.0,0.0,0.0,0.0,0.0,0.0,0.0,0.0,0.0,0.0,0.0,0.0,0.0,0.0,0.0,0.0,0.0,0.0,0.0,0.0,0.0,0.0,0.0,0.0,0.0,0.0,0.0,0.0,0.0,0.0,0.0,0.0,0.0,0.0,0.0,0.0,0.0,0.0,0.0,0.0,0.0,0.0,0.0,0.0,0.0,0.0,0.0,0.0,0.0,0.0,0.0,0.0,0.0,0.0,0.0,0.0,0.0,0.0,0.0,0.0,0.0,0.0,0.0,0.0,0.0,0.0,0.0,0.0,0.0,0.0,0.0,0.0,0.0,0.0,0.0,0.0,0.0,0.0,0.0,0.0,0.0,0.0,0.0,0.0,0.0,0.0,0.0,0.0,0.0,0.0,0.0,0.0,0.0,0.0,0.0,0.0,0.0,0.0,0.0,0.0,0.0,0.0,0.0,0.0,0.0,0.0,0.0,0.0,0.0,0.0,0.0,0.0,0.0,0.0,0.0,0.0,0.0,0.0,0.0,0.0,0.0,0.0,0.0,0.0,0.0,0.0,0.0,0.0,0.0,0.0,0.0,0.0,0.0,0.0,0.0,0.0,0.0,0.0,0.0,0.0,0.0,0.0,0.0,0.0,0.0,0.0,0.0,0.0,0.0,0.0,0.0,0.0,0.0,0.0,0.0,0.0,0.0,0.0,0.0,0.0,0.0,0.0,0.0,0.0,0.0,0.0,0.0,0.0,0.0,0.0,0.0,0.0,0.0,0.0,0.0,0.0,0.0,0.0,0.0,0.0,0.0,0.0,0.0,0.0,0.0,0.0,0.0,0.0,0.0,0.0,0.0,0.0,0.0,0.0,0.0,0.0,0.0,0.0,0.0,0.0,0.0,0.0,0.0,0.0,0.0,0.0,0.0,0.0,0.0,0.0,0.0,0.0,0.0,0.0,0.0,0.0,0.0,0.0,0.0,0.0,0.0,0.0,0.0,0.0,0.0,0.0,0.0,0.0,0.0,0.0,0.0,0.0,0.0,0.0,0.0,0.0,0.0,0.0,0.0,0.0,0.0,0.0,0.0,0.0,0.0,0.0,0.0,0.0,0.0,0.0,0.0,0.0,0.0,0.0,0.0,0.0,0.0,0.0,0.0,0.0,0.0,0.0,0.0,0.0,0.0,0.0,0.0,0.0,0.0,0.0,0.0,0.0,0.0,0.0,0.0,0.0,0.0,0.0,0.0,0.0,0.0,0.0,0.0,0.0,0.0,0.0,0.0,0.0,0.0,0.0,0.0,0.0,0.0,0.0,0.0,0.0,0.0,0.0,0.0,0.0,0.0,0.0,0.0,0.0,0.0,0.0,0.0,0.0,0.0,0.0,0.0,0.0,0.0,0.0,0.0,0.0,0.0,0.0,0.0,0.0,0.0,0.0,0.0,0.0,0.0,0.0,0.0,0.0,0.0,0.0,0.0,0.0,0.0,0.0,0.0,0.0,0.0,0.0,0.0,0.0,0.0,0.0,0.0,0.0,0.0,0.0,0.0,0.0,0.0,0.0,7.0233,0.0,0.0,0.0,0.0,0.0,0.0,0.0,0.0,0.0,0.0,0.0,0.0,0.0,0.0,0.0,0.0,0.0,0.0,0.0,0.0,0.0,0.0,0.0,0.0,0.0,0.0,0.0,0.0,0.0,0.0,0.0,0.0,0.0,0.0,0.0,0.0,0.0,0.0,0.0,0.0,0.0,0.0,0.0,0.0,0.0,0.0,0.0,0.0,0.0,0.0,0.0,0.0,0.0,0.0,0.0,0.0,0.0,0.0,0.0,0.0,0.0,0.0,0.0,0.0,0.0,0.0,0.0,0.0,0.0,0.0,0.0,0.0,0.0,0.0,0.0,0.0,0.0,0.0,0.0,0.0,0.0,0.0,0.0,0.0,0.0,0.0,0.0,0.0,0.0,0.0,0.0,0.0,0.0,0.0,0.0,0.0,0.0,0.0,0.0,0.0,0.0,0.0,0.0,0.0,0.0,0.0,0.0,0.0,0.0,0.0,7.0953,7.105,7.1233,7.1209,7.0933,0.0,0.0,0.0,0.0,0.0,0.0,0.0,0.0,0.0,0.0,0.0,0.0,0.0,0.0,0.0,0.0,0.0,0.0,0.0,0.0,0.0,0.0,0.0,0.0,0.0,0.0,0.0,0.0,0.0,0.0,0.0,0.0,0.0,0.0,0.0,0.0,0.0,0.0,0.0,0.0,0.0,0.0,0.0,0.0,0.0,0.0,0.0,0.0,0.0,0.0,0.0,0.0,0.0,0.0,0.0,0.0,0.0,0.0,0.0,0.0,0.0,0.0,0.0,0.0,0.0,0.0,0.0,0.0,0.0,0.0,0.0,0.0,0.0,0.0,0.0,0.0,0.0,0.0,0.0,0.0,0.0,0.0,0.0,0.0,0.0,0.0,0.0,0.0,0.0,0.0,0.0,0.0,0.0,0.0,0.0,0.0,0.0,0.0,0.0,0.0,0.0,0.0,0.0,0.0,0.0,0.0,0.0,0.0,0.0,0.0,0.0,0.0,7.2031,7.2171,7.2381,0.0,0.0,0.0,0.0,0.0,0.0,0.0,0.0,0.0,0.0,0.0,0.0,0.0,0.0,0.0,0.0,0.0,0.0,0.0,0.0,0.0,0.0,0.0,0.0,0.0,0.0,0.0,0.0,0.0,0.0,0.0,0.0,0.0,0.0,0.0,0.0,0.0,0.0,0.0,0.0,0.0,0.0,0.0,0.0,0.0,0.0,0.0,0.0,0.0,0.0,0.0,0.0,0.0,0.0,0.0,0.0,0.0,0.0,0.0,0.0,0.0,0.0,0.0,0.0,0.0,0.0,0.0,0.0,0.0,0.0,0.0,0.0,0.0,0.0,0.0,0.0,0.0,0.0,0.0,0.0,0.0,0.0,0.0,0.0,0.0,0.0,0.0,0.0,0.0,0.0,0.0,0.0,0.0,0.0,0.0,0.0,0.0,0.0,0.0,0.0,0.0,0.0,0.0,0.0,0.0,0.0,0.0,0.0,0.0,0.0,7.1989,7.4288,7.4536,0.0,7.5109,0.0,0.0,0.0,0.0,0.0,0.0,0.0,0.0,0.0,0.0,0.0,0.0,0.0,0.0,0.0,0.0,0.0,0.0,0.0,0.0,0.0,0.0,0.0,0.0,0.0,0.0,0.0,0.0,0.0,0.0,0.0,0.0,0.0,0.0,0.0,0.0,0.0,0.0,0.0,0.0,0.0,0.0,0.0,0.0,0.0,0.0,0.0,0.0,0.0,0.0,0.0,0.0,0.0,0.0,0.0,0.0,0.0,0.0,0.0,0.0,0.0,0.0,0.0,0.0,0.0,0.0,0.0,0.0,0.0,0.0,0.0,0.0,0.0,0.0,0.0,0.0,0.0,0.0,0.0,0.0,0.0,0.0,0.0,0.0,0.0,0.0,0.0,0.0,0.0,0.0,0.0,0.0,0.0,0.0,0.0,0.0,0.0,0.0,0.0,0.0,0.0,0.0,0.0,0.0,0.0,0.0,0.0,0.0,0.0,0.0,0.0,7.4654,7.4769,7.5006,0.0,0.0,0.0,0.0,0.0,0.0,0.0,0.0,0.0,0.0,0.0,0.0,0.0,0.0,0.0,0.0,0.0,0.0,0.0,0.0,0.0,0.0,0.0,0.0,0.0,0.0,0.0,0.0,0.0,0.0,0.0,0.0,0.0,0.0,0.0,0.0,0.0,0.0,0.0,0.0,0.0,0.0,0.0,0.0,0.0,0.0,0.0,0.0,0.0,0.0,0.0,0.0,0.0,0.0,0.0,0.0,0.0,0.0,0.0,0.0,0.0,0.0,0.0,0.0,0.0,0.0,0.0,0.0,0.0,0.0,0.0,0.0,0.0,0.0,0.0,0.0,0.0,0.0,0.0,0.0,0.0,0.0,0.0,0.0,0.0,0.0,0.0,0.0,0.0,0.0,0.0,0.0,0.0,0.0,0.0,0.0,0.0,0.0,0.0,0.0,0.0,0.0,0.0,0.0,0.0,0.0,0.0,0.0,0.0,0.0,7.3521,0.0,7.5692,7.5821,7.5585,7.4942,0.0,0.0,0.0,0.0,0.0,0.0,0.0,0.0,0.0,0.0,0.0,0.0,0.0,0.0,0.0,0.0,0.0,0.0,0.0,0.0,0.0,0.0,0.0,0.0,0.0,0.0,0.0,0.0,0.0,0.0,0.0,0.0,0.0,0.0,0.0,0.0,0.0,0.0,0.0,0.0,0.0,0.0,0.0,0.0,0.0,0.0,0.0,0.0,0.0,0.0,0.0,0.0,0.0,0.0,0.0,0.0,0.0,0.0,0.0,0.0,0.0,0.0,0.0,0.0,0.0,0.0,0.0,0.0,0.0,0.0,0.0,0.0,0.0,0.0,0.0,0.0,0.0,0.0,0.0,0.0,0.0,0.0,0.0,0.0,0.0,0.0,0.0,0.0,0.0,0.0,0.0,0.0,0.0,0.0,0.0,0.0,0.0,0.0,0.0,0.0,0.0,0.0,0.0,0.0,0.0,0.0,0.0,0.0,0.0,7.5501,7.5831,7.8192,7.8553,7.7273,0.0,0.0,0.0,0.0,0.0,0.0,0.0,0.0,0.0,0.0,0.0,0.0,0.0,0.0,0.0,0.0,0.0,0.0,0.0,0.0,0.0,0.0,0.0,0.0,0.0,0.0,0.0,0.0,0.0,0.0,0.0,0.0,0.0,0.0,0.0,0.0,0.0,0.0,0.0,0.0,0.0,0.0,0.0,0.0,0.0,0.0,0.0,0.0,0.0,0.0,0.0,0.0,0.0,0.0,0.0,0.0,0.0,0.0,0.0,0.0,0.0,0.0,0.0,0.0,0.0,0.0,0.0,0.0,0.0,0.0,0.0,0.0,0.0,0.0,0.0,0.0,0.0,0.0,0.0,0.0,0.0,0.0,0.0,0.0,0.0,0.0,0.0,0.0,0.0,0.0,0.0,0.0,0.0,0.0,0.0,0.0,0.0,0.0,0.0,0.0,0.0,0.0,0.0,0.0,0.0,0.0,0.0,0.0,0.0,7.32,7.4196,7.6328,7.9512,7.7617,7.64,0.0,0.0,0.0,0.0,0.0,0.0,0.0,0.0,0.0,0.0,0.0,0.0,0.0,0.0,0.0,0.0,0.0,0.0,0.0,0.0,0.0,0.0,0.0,0.0,0.0,0.0,0.0,0.0,0.0,0.0,0.0,0.0,0.0,0.0,0.0,0.0,0.0,0.0,0.0,0.0,0.0,0.0,0.0,0.0,0.0,0.0,0.0,0.0,0.0,0.0,0.0,0.0,0.0,0.0,0.0,0.0,0.0,0.0,0.0,0.0,0.0,0.0,0.0,0.0,0.0,0.0,0.0,0.0,0.0,0.0,0.0,0.0,0.0,0.0,0.0,0.0,0.0,0.0,0.0,0.0,0.0,0.0,0.0,0.0,0.0,0.0,0.0,0.0,0.0,0.0,0.0,0.0,0.0,0.0,0.0,0.0,0.0,0.0,0.0,0.0,0.0,0.0,0.0,0.0,0.0,0.0,0.0,0.0,0.0,7.3322,0.0,7.7538,0.0,7.7329,7.574,0.0,0.0,0.0,0.0,0.0,0.0,0.0,0.0,0.0,0.0,0.0,0.0,0.0,0.0,0.0,0.0,0.0,0.0,0.0,0.0,0.0,0.0,0.0,0.0,0.0,0.0,0.0,0.0,0.0,0.0,0.0,0.0,0.0,0.0,0.0,0.0,0.0,0.0,0.0,0.0,0.0,0.0,0.0,0.0,0.0,0.0,0.0,0.0,0.0,0.0,0.0,0.0,0.0,0.0,0.0,0.0,0.0,0.0,0.0,0.0,0.0,0.0,0.0,0.0,0.0,0.0,0.0,0.0,0.0,0.0,0.0,0.0,0.0,0.0,0.0,0.0,0.0,0.0,0.0,0.0,0.0,0.0,0.0,0.0,0.0,0.0,0.0,0.0,0.0,0.0,0.0,0.0,0.0,0.0,0.0,0.0,0.0,0.0,0.0,0.0,0.0,0.0,0.0,0.0,0.0,0.0,0.0,0.0,7.3399,7.8115,7.9297,7.9433,7.8577,7.8028,7.5454,0.0,0.0,0.0,0.0,0.0,0.0,0.0,0.0,0.0,0.0,0.0,0.0,0.0,0.0,0.0,0.0,0.0,0.0,0.0,0.0,0.0,0.0,0.0,0.0,0.0,0.0,0.0,0.0,0.0,0.0,0.0,0.0,0.0,0.0,0.0,0.0,0.0,0.0,0.0,0.0,0.0,0.0,0.0,0.0,0.0,0.0,0.0,0.0,0.0,0.0,0.0,0.0,0.0,0.0,0.0,0.0,0.0,0.0,0.0,0.0,0.0,0.0,0.0,0.0,0.0,0.0,0.0,0.0,0.0,0.0,0.0,0.0,0.0,0.0,0.0,0.0,0.0,0.0,0.0,0.0,0.0,0.0,0.0,0.0,0.0,0.0,0.0,0.0,0.0,0.0,0.0,0.0,0.0,0.0,0.0,0.0,0.0,0.0,0.0,0.0,0.0,0.0,0.0,0.0,0.0,0.0,0.0,0.0,0.0,7.5353,7.7193,7.8935,8.0361,7.708,7.5276,0.0,0.0,0.0,0.0,0.0,0.0,0.0,0.0,0.0,0.0,0.0,0.0,0.0,0.0,0.0,0.0,0.0,0.0,0.0,0.0,0.0,0.0,0.0,0.0,0.0,0.0,0.0,0.0,0.0,0.0,0.0,0.0,0.0,0.0,0.0,0.0,0.0,0.0,0.0,0.0,0.0,0.0,0.0,0.0,0.0,0.0,0.0,0.0,0.0,0.0,0.0,0.0,0.0,0.0,0.0,0.0,0.0,0.0,0.0,0.0,0.0,0.0,0.0,0.0,0.0,0.0,0.0,0.0,0.0,0.0,0.0,0.0,0.0,0.0,0.0,0.0,0.0,0.0,0.0,0.0,0.0,0.0,0.0,0.0,0.0,0.0,0.0,0.0,0.0,0.0,0.0,0.0,0.0,0.0,0.0,0.0,0.0,0.0,0.0,0.0,0.0,0.0,0.0,0.0,0.0,0.0,0.0,0.0,0.0,7.6863,7.8946,8.0635,8.1778,7.765,7.5689,7.6265,0.0,0.0,0.0,0.0,0.0,0.0,0.0,0.0,0.0,0.0,0.0,0.0,0.0,0.0,0.0,0.0,0.0,0.0,0.0,0.0,0.0,0.0,0.0,0.0,0.0,0.0,0.0,0.0,0.0,0.0,0.0,0.0,0.0,0.0,0.0,0.0,0.0,0.0,0.0,0.0,0.0,0.0,0.0,0.0,0.0,0.0,0.0,0.0,0.0,0.0,0.0,0.0,0.0,0.0,0.0,0.0,0.0,0.0,0.0,0.0,0.0,0.0,0.0,0.0,0.0,0.0,0.0,0.0,0.0,0.0,0.0,0.0,0.0,0.0,0.0,0.0,0.0,0.0,0.0,0.0,0.0,0.0,0.0,0.0,0.0,0.0,0.0,0.0,0.0,0.0,0.0,0.0,0.0,0.0,0.0,0.0,0.0,0.0,0.0,0.0,0.0,0.0,0.0,0.0,0.0,0.0,0.0,0.0,8.1375,8.3876,8.4388,8.2686,7.9541,7.6754,0.0,0.0,0.0,0.0,0.0,0.0,0.0,0.0,0.0,0.0,0.0,0.0,0.0,0.0,0.0,0.0,0.0,0.0,0.0,0.0,0.0,0.0,0.0,0.0,0.0,0.0,0.0,0.0,0.0,0.0,0.0,0.0,0.0,0.0,0.0,0.0,0.0,0.0,0.0,0.0,0.0,0.0,0.0,0.0,0.0,0.0,0.0,0.0,0.0,0.0,0.0,0.0,0.0,0.0,0.0,0.0,0.0,0.0,0.0,0.0,0.0,0.0,0.0,0.0,0.0,0.0,0.0,0.0,0.0,0.0,0.0,0.0,0.0,0.0,0.0,0.0,0.0,0.0,0.0,0.0,0.0,0.0,0.0,0.0,0.0,0.0,0.0,0.0,0.0,0.0,0.0,0.0,0.0,0.0,0.0,0.0,0.0,0.0,0.0,0.0,0.0,0.0,0.0,0.0,0.0,0.0,0.0,0.0,0.0,8.1519,8.6275,8.8158,8.6514,8.1636,7.8696,0.0,0.0,0.0,0.0,0.0,0.0,0.0,0.0,0.0,0.0,0.0,0.0,0.0,0.0,0.0,0.0,0.0,0.0,0.0,0.0,0.0,0.0,0.0,0.0,0.0,0.0,0.0,0.0,0.0,0.0,0.0,0.0,0.0,0.0,0.0,0.0,0.0,0.0,0.0,0.0,0.0,0.0,0.0,0.0,0.0,0.0,0.0,0.0,0.0,0.0,0.0,0.0,0.0,0.0,0.0,0.0,0.0,0.0,0.0,0.0,0.0,0.0,0.0,0.0,0.0,0.0,0.0,0.0,0.0,0.0,0.0,0.0,0.0,0.0,0.0,0.0,0.0,0.0,0.0,0.0,0.0,0.0,0.0,0.0,0.0,0.0,0.0,0.0,0.0,0.0,0.0,0.0,0.0,0.0,0.0,0.0,0.0,0.0,0.0,0.0,0.0,0.0,0.0,0.0,0.0,0.0,0.0,0.0,8.188,8.4037,8.8933,9.117,9.0372,8.5698,8.1793,0.0,0.0,0.0,0.0,0.0,0.0,0.0,0.0,0.0,0.0,0.0,0.0,0.0,0.0,0.0,0.0,0.0,0.0,0.0,0.0,0.0,0.0,0.0,0.0,0.0,0.0,0.0,0.0,0.0,0.0,0.0,0.0,0.0,0.0,0.0,0.0,0.0,0.0,0.0,0.0,0.0,0.0,0.0,0.0,0.0,0.0,0.0,0.0,0.0,0.0,0.0,0.0,0.0,0.0,0.0,0.0,0.0,0.0,0.0,0.0,0.0,0.0,0.0,0.0,0.0,0.0,0.0,0.0,0.0,0.0,0.0,0.0,0.0,0.0,0.0,0.0,0.0,0.0,0.0,0.0,0.0,0.0,0.0,0.0,0.0,0.0,0.0,0.0,0.0,0.0,0.0,0.0,0.0,0.0,0.0,0.0,0.0,0.0,0.0,0.0,0.0,0.0,0.0,0.0,0.0,0.0,0.0,0.0,8.431,8.7655,9.149,9.3461,9.3417,9.0118,8.5247,0.0,0.0,0.0,0.0,0.0,0.0,0.0,0.0,0.0,0.0,0.0,0.0,0.0,0.0,0.0,0.0,0.0,0.0,0.0,0.0,0.0,0.0,0.0,0.0,0.0,0.0,0.0,0.0,0.0,0.0,0.0,0.0,0.0,0.0,0.0,0.0,0.0,0.0,0.0,0.0,0.0,0.0,0.0,0.0,0.0,0.0,0.0,0.0,0.0,0.0,0.0,0.0,0.0,0.0,0.0,0.0,0.0,0.0,0.0,0.0,0.0,0.0,0.0,0.0,0.0,0.0,0.0,0.0,0.0,0.0,0.0,0.0,0.0,0.0,0.0,0.0,0.0,0.0,0.0,0.0,0.0,0.0,0.0,0.0,0.0,0.0,0.0,0.0,0.0,0.0,0.0,0.0,0.0,0.0,0.0,0.0,0.0,0.0,0.0,0.0,0.0,0.0,0.0,0.0,0.0,0.0,0.0,0.0,8.6084,8.7732,9.2579,9.4629,9.3495,8.9744,8.57,0.0,0.0,0.0,0.0,0.0,0.0,0.0,0.0,0.0,0.0,0.0,0.0,0.0,0.0,0.0,0.0,0.0,0.0,0.0,0.0,0.0,0.0,0.0,0.0,0.0,0.0,0.0,0.0,0.0,0.0,0.0,0.0,0.0,0.0,0.0,0.0,0.0,0.0,0.0,0.0,0.0,0.0,0.0,0.0,0.0,0.0,0.0,0.0,8.0645,0.0,0.0,0.0,0.0,0.0,0.0,0.0,0.0,0.0,0.0,0.0,0.0,0.0,0.0,0.0,0.0,0.0,0.0,0.0,0.0,0.0,0.0,0.0,0.0,0.0,0.0,0.0,0.0,0.0,0.0,0.0,0.0,0.0,0.0,0.0,0.0,0.0,0.0,0.0,0.0,0.0,0.0,0.0,0.0,0.0,0.0,0.0,0.0,0.0,0.0,0.0,0.0,0.0,0.0,0.0,0.0,0.0,0.0,0.0,8.8649,9.0689,9.4093,9.5693,9.5261,9.2605,8.8359,0.0,0.0,0.0,0.0,0.0,0.0,0.0,0.0,0.0,0.0,0.0,0.0,0.0,0.0,0.0,0.0,0.0,0.0,0.0,0.0,0.0,0.0,0.0,0.0,0.0,0.0,0.0,0.0,0.0,0.0,0.0,0.0,0.0,0.0,0.0,0.0,0.0,0.0,0.0,0.0,0.0,0.0,0.0,0.0,0.0,0.0,0.0,0.0,0.0,0.0,0.0,0.0,0.0,0.0,0.0,0.0,0.0,0.0,0.0,0.0,0.0,0.0,0.0,0.0,0.0,0.0,0.0,0.0,0.0,0.0,0.0,0.0,0.0,0.0,0.0,0.0,0.0,0.0,0.0,0.0,0.0,0.0,0.0,0.0,0.0,0.0,0.0,0.0,0.0,0.0,0.0,0.0,0.0,0.0,0.0,0.0,0.0,0.0,0.0,0.0,0.0,0.0,0.0,0.0,0.0,0.0,0.0,8.6864,9.0859,9.4239,9.5626,9.6631,9.7334,9.5965,9.125,8.3125,0.0,0.0,0.0,0.0,0.0,0.0,0.0,0.0,0.0,0.0,0.0,0.0,0.0,0.0,0.0,0.0,0.0,0.0,0.0,0.0,0.0,0.0,0.0,0.0,0.0,0.0,0.0,0.0,0.0,0.0,0.0,0.0,0.0,0.0,0.0,0.0,0.0,0.0,7.6255,8.0642,0.0,0.0,0.0,0.0,0.0,0.0,0.0,0.0,8.3515,0.0,0.0,0.0,0.0,0.0,0.0,0.0,0.0,0.0,0.0,0.0,0.0,0.0,0.0,0.0,0.0,0.0,0.0,0.0,0.0,0.0,0.0,0.0,0.0,0.0,0.0,0.0,0.0,0.0,0.0,0.0,0.0,0.0,0.0,0.0,0.0,0.0,0.0,0.0,0.0,0.0,0.0,0.0,0.0,0.0,0.0,0.0,0.0,0.0,0.0,0.0,0.0,0.0,0.0,0.0,0.0,8.7108,8.7884,9.0565,9.5292,9.6583,9.7255,9.7373,9.5965,9.1836,8.4883,0.0,0.0,0.0,0.0,0.0,0.0,0.0,0.0,0.0,0.0,0.0,0.0,0.0,0.0,0.0,0.0,0.0,0.0,0.0,0.0,0.0,0.0,0.0,0.0,0.0,0.0,0.0,0.0,0.0,0.0,0.0,0.0,0.0,0.0,0.0,0.0,0.0,0.0,0.0,8.4542,8.6185,0.0,0.0,0.0,0.0,0.0,0.0,0.0,0.0,8.4492,0.0,0.0,0.0,0.0,0.0,0.0,0.0,0.0,0.0,0.0,0.0,0.0,0.0,0.0,0.0,0.0,0.0,0.0,0.0,0.0,0.0,0.0,0.0,0.0,0.0,0.0,0.0,0.0,0.0,0.0,0.0,0.0,0.0,0.0,0.0,0.0,0.0,0.0,0.0,0.0,0.0,0.0,0.0,0.0,0.0,0.0,0.0,0.0,0.0,0.0,0.0,0.0,0.0,0.0,0.0,8.6272,8.9875,9.3325,9.6454,9.7202,9.7557,9.7479,9.4204,9.0033,0.0,0.0,0.0,0.0,0.0,0.0,0.0,0.0,0.0,0.0,0.0,0.0,0.0,0.0,0.0,0.0,0.0,0.0,0.0,0.0,0.0,0.0,0.0,0.0,0.0,0.0,0.0,0.0,0.0,0.0,0.0,0.0,0.0,0.0,0.0,0.0,0.0,0.0,0.0,0.0,8.5858,8.7431,8.7772,0.0,0.0,0.0,0.0,0.0,0.0,8.5469,8.4922,0.0,0.0,0.0,0.0,0.0,0.0,0.0,0.0,0.0,0.0,0.0,0.0,0.0,0.0,0.0,0.0,0.0,0.0,0.0,0.0,0.0,0.0,0.0,0.0,0.0,0.0,0.0,0.0,0.0,0.0,0.0,0.0,0.0,0.0,0.0,0.0,0.0,0.0,0.0,0.0,0.0,0.0,0.0,0.0,0.0,0.0,0.0,0.0,0.0,0.0,0.0,0.0,0.0,0.0,0.0,8.4707,9.089,9.5228,9.733,9.761,9.7695,9.7574,9.3017,8.8678,0.0,0.0,0.0,0.0,0.0,0.0,0.0,0.0,0.0,0.0,0.0,0.0,0.0,0.0,0.0,0.0,0.0,0.0,0.0,0.0,0.0,0.0,0.0,0.0,0.0,0.0,0.0,0.0,0.0,0.0,0.0,0.0,0.0,0.0,0.0,0.0,0.0,0.0,0.0,0.0,0.0,8.9164,8.9649,8.8995,0.0,0.0,0.0,0.0,8.6484,8.6875,0.0,0.0,0.0,0.0,0.0,0.0,0.0,0.0,0.0,0.0,0.0,0.0,0.0,0.0,0.0,0.0,0.0,0.0,0.0,0.0,0.0,0.0,0.0,0.0,0.0,0.0,0.0,0.0,0.0,0.0,0.0,0.0,0.0,0.0,0.0,0.0,0.0,0.0,0.0,0.0,0.0,0.0,0.0,0.0,0.0,0.0,0.0,0.0,0.0,0.0,0.0,0.0,0.0,0.0,0.0,0.0,8.4764,8.8632,9.289,9.7382,9.7695,9.761,9.7394,9.4653,9.0079,0.0,0.0,0.0,0.0,0.0,0.0,0.0,0.0,0.0,0.0,0.0,0.0,0.0,0.0,0.0,0.0,0.0,0.0,0.0,0.0,0.0,0.0,0.0,0.0,0.0,0.0,0.0,0.0,0.0,0.0,0.0,0.0,0.0,0.0,0.0,0.0,0.0,0.0,0.0,0.0,0.0,9.2919,9.01,9.0807,9.1284,0.0,0.0,9.0078,9.1484,9.1172,0.0,0.0,0.0,0.0,0.0,0.0,0.0,0.0,0.0,0.0,0.0,0.0,0.0,0.0,0.0,0.0,0.0,0.0,0.0,0.0,0.0,0.0,0.0,0.0,0.0,0.0,0.0,0.0,0.0,0.0,0.0,0.0,0.0,0.0,0.0,0.0,0.0,0.0,0.0,0.0,0.0,0.0,0.0,0.0,0.0,0.0,0.0,0.0,0.0,0.0,0.0,0.0,0.0,0.0,0.0,8.2187,8.4961,9.0703,9.5,9.7578,9.7695,9.7607,9.7412,9.1978,8.7203,0.0,0.0,0.0,0.0,0.0,0.0,0.0,0.0,0.0,0.0,0.0,0.0,0.0,0.0,0.0,0.0,0.0,0.0,0.0,0.0,0.0,0.0,0.0,0.0,0.0,0.0,0.0,0.0,0.0,0.0,0.0,0.0,0.0,0.0,0.0,0.0,0.0,0.0,0.0,0.0,0.0,0.0,9.1856,9.2052,0.0,0.0,0.0,9.2304,9.2539,0.0,0.0,0.0,0.0,0.0,0.0,0.0,0.0,0.0,0.0,0.0,0.0,0.0,0.0,0.0,0.0,0.0,0.0,0.0,0.0,0.0,0.0,0.0,0.0,0.0,0.0,0.0,0.0,0.0,0.0,0.0,0.0,0.0,0.0,0.0,0.0,0.0,0.0,0.0,0.0,0.0,0.0,0.0,0.0,0.0,0.0,0.0,0.0,0.0,0.0,0.0,0.0,0.0,0.0,0.0,0.0,0.0,8.5625,9.2773,9.6952,9.7924,9.7728,9.75,9.711,9.0641,0.0,0.0,0.0,0.0,0.0,0.0,0.0,0.0,0.0,0.0,0.0,0.0,0.0,0.0,0.0,0.0,0.0,0.0,0.0,0.0,0.0,0.0,0.0,0.0,0.0,0.0,0.0,6.4609,0.0,0.0,0.0,0.0,0.0,0.0,0.0,0.0,0.0,0.0,0.0,0.0,0.0,0.0,9.1501,9.2993,9.3339,9.3729,0.0,0.0,9.4336,9.3672,9.3594,9.2031,0.0,0.0,0.0,0.0,0.0,0.0,0.0,0.0,0.0,0.0,0.0,0.0,0.0,0.0,0.0,0.0,0.0,0.0,0.0,0.0,0.0,0.0,0.0,0.0,0.0,0.0,0.0,0.0,0.0,0.0,0.0,0.0,0.0,0.0,0.0,0.0,0.0,0.0,0.0,0.0,0.0,0.0,0.0,0.0,0.0,0.0,0.0,0.0,0.0,0.0,0.0,0.0,0.0,0.0,0.0,8.7422,9.3398,9.7218,9.8561,9.785,9.716,9.6618,9.3103,8.8584,0.0,0.0,0.0,0.0,0.0,0.0,0.0,0.0,0.0,0.0,0.0,0.0,0.0,0.0,0.0,0.0,0.0,0.0,0.0,0.0,0.0,0.0,0.0,0.0,0.0,0.0,0.0,0.0,0.0,0.0,0.0,0.0,0.0,0.0,0.0,0.0,0.0,0.0,0.0,0.0,0.0,9.392,9.252,9.5017,9.7046,0.0,0.0,9.6289,9.625,9.6211,9.4492,8.9375,0.0,0.0,0.0,0.0,0.0,0.0,0.0,0.0,0.0,0.0,0.0,0.0,0.0,0.0,0.0,0.0,0.0,0.0,0.0,0.0,0.0,0.0,0.0,0.0,0.0,0.0,0.0,0.0,0.0,0.0,0.0,0.0,0.0,0.0,0.0,0.0,0.0,0.0,0.0,0.0,0.0,0.0,0.0,0.0,0.0,0.0,0.0,0.0,0.0,0.0,0.0,0.0,0.0,8.5976,8.7578,9.5,9.8865,9.8855,9.858,9.7983,9.7107,9.329,8.8669,0.0,0.0,0.0,0.0,0.0,0.0,0.0,0.0,0.0,0.0,0.0,0.0,0.0,0.0,0.0,0.0,0.0,0.0,0.0,0.0,0.0,0.0,0.0,0.0,0.0,0.0,0.0,0.0,7.3398,7.4258,7.4414,0.0,0.0,0.0,0.0,0.0,0.0,0.0,0.0,0.0,0.0,9.4159,9.4554,9.6193,0.0,0.0,9.7288,9.7226,9.7265,9.5937,9.3867,9.082,8.8008,0.0,0.0,0.0,0.0,0.0,0.0,0.0,0.0,0.0,0.0,0.0,0.0,0.0,0.0,0.0,0.0,0.0,0.0,0.0,0.0,0.0,0.0,0.0,0.0,0.0,0.0,0.0,0.0,0.0,0.0,0.0,0.0,0.0,0.0,0.0,0.0,0.0,0.0,0.0,0.0,0.0,0.0,0.0,0.0,0.0,0.0,0.0,0.0,0.0,0.0,0.0,0.0,8.7031,8.8633,9.582,9.9452,9.925,9.878,9.813,9.7238,9.3883,8.9642,0.0,0.0,0.0,0.0,0.0,0.0,0.0,0.0,0.0,0.0,0.0,0.0,0.0,0.0,0.0,0.0,0.0,0.0,0.0,0.0,0.0,0.0,0.0,0.0,0.0,0.0,0.0,0.0,7.6601,7.6875,7.6015,0.0,0.0,0.0,0.0,0.0,0.0,0.0,0.0,0.0,0.0,9.5394,9.6038,9.7055,9.7685,9.7342,9.703,9.6907,9.7179,9.578,9.4023,9.1992,0.0,0.0,0.0,0.0,0.0,0.0,0.0,0.0,0.0,0.0,0.0,0.0,0.0,0.0,0.0,0.0,0.0,0.0,0.0,0.0,0.0,0.0,0.0,0.0,0.0,0.0,0.0,0.0,0.0,0.0,7.3476,0.0,0.0,0.0,0.0,0.0,0.0,0.0,0.0,0.0,0.0,0.0,0.0,0.0,0.0,0.0,0.0,0.0,0.0,0.0,0.0,0.0,0.0,8.7851,9.1172,9.5586,9.8507,9.9767,9.8275,9.7355,9.7009,9.5327,9.2065,8.7052,0.0,0.0,0.0,0.0,0.0,0.0,0.0,0.0,0.0,0.0,0.0,0.0,0.0,0.0,0.0,0.0,0.0,0.0,0.0,0.0,0.0,0.0,0.0,0.0,0.0,0.0,7.8476,7.7695,7.6914,0.0,0.0,0.0,0.0,0.0,0.0,0.0,0.0,0.0,0.0,9.5625,9.8198,9.6383,9.7581,9.8285,9.7207,9.5843,9.523,9.6085,9.6309,9.5586,0.0,0.0,0.0,0.0,0.0,0.0,0.0,0.0,0.0,0.0,0.0,0.0,0.0,0.0,0.0,0.0,0.0,0.0,0.0,0.0,0.0,0.0,0.0,0.0,0.0,0.0,0.0,8.1889,7.9294,0.0,0.0,0.0,0.0,0.0,0.0,0.0,0.0,0.0,0.0,0.0,8.6815,8.9771,0.0,0.0,0.0,0.0,0.0,0.0,0.0,0.0,0.0,0.0,0.0,0.0,8.8164,9.0586,9.6367,9.9413,9.9287,9.874,9.8147,9.7461,9.5659,9.1709,8.5383,0.0,0.0,0.0,0.0,0.0,0.0,0.0,0.0,0.0,0.0,0.0,0.0,0.0,0.0,0.0,0.0,0.0,0.0,0.0,0.0,0.0,0.0,0.0,0.0,0.0,8.2344,0.0,0.0,0.0,0.0,0.0,0.0,0.0,0.0,0.0,0.0,0.0,9.1953,9.3672,9.6706,9.8349,9.7143,9.8299,9.8743,0.0,0.0,0.0,0.0,0.0,0.0,0.0,0.0,0.0,0.0,0.0,0.0,0.0,0.0,9.8299,9.2788,9.0704,8.9368,8.8057,0.0,0.0,0.0,0.0,0.0,0.0,0.0,0.0,0.0,0.0,0.0,0.0,0.0,0.0,8.7049,0.0,8.3831,0.0,0.0,0.0,0.0,0.0,0.0,0.0,0.0,9.1914,9.3473,9.271,9.5895,9.5583,0.0,9.1442,8.8083,0.0,0.0,0.0,0.0,0.0,0.0,0.0,0.0,8.9492,9.1914,9.7026,9.9599,9.9285,9.8641,9.804,9.7454,9.5354,9.1651,8.6152,8.2253,7.8765,0.0,0.0,0.0,0.0,0.0,0.0,0.0,0.0,0.0,0.0,0.0,0.0,0.0,0.0,0.0,0.0,0.0,0.0,0.0,0.0,0.0,0.0,0.0,8.3437,0.0,0.0,0.0,0.0,0.0,0.0,0.0,0.0,0.0,9.1836,9.3281,9.496,9.6629,9.8154,9.886,9.8104,0.0,0.0,0.0,0.0,0.0,0.0,0.0,9.7964,9.8103,9.8966,9.9904,10.0663,10.3633,10.5463,10.406,0.0,0.0,9.7947,9.5496,9.4147,9.3422,9.255,9.1331,8.9568,8.9948,9.0544,0.0,0.0,0.0,0.0,0.0,0.0,0.0,0.0,9.2151,9.1587,0.0,8.9662,0.0,0.0,0.0,0.0,0.0,8.8777,0.0,0.0,9.8984,10.1093,10.0273,10.1211,10.0742,9.9179,9.9765,9.7539,9.2461,8.5195,0.0,0.0,0.0,0.0,0.0,0.0,9.1757,9.5039,9.7493,9.9085,9.9709,9.7995,9.7012,9.6925,9.4533,9.2054,8.9469,8.6232,8.2461,7.8254,7.5908,0.0,0.0,0.0,0.0,0.0,0.0,0.0,0.0,0.0,0.0,0.0,0.0,0.0,0.0,0.0,0.0,0.0,0.0,0.0,0.0,8.1875,0.0,0.0,0.0,0.0,0.0,0.0,0.0,0.0,0.0,0.0,9.5508,9.6758,9.8351,9.9714,0.0,0.0,0.0,0.0,9.8238,9.8766,9.8411,9.8428,9.9125,10.0805,10.1484,9.9939,0.0,0.0,10.4373,10.5781,10.632,10.4372,10.5835,10.6865,10.5603,10.1826,9.9599,10.0595,9.7749,9.5306,9.5037,9.4321,9.401,9.7475,0.0,0.0,0.0,0.0,9.5696,9.6866,9.8588,9.8588,9.6773,9.3685,9.3454,0.0,0.0,0.0,0.0,0.0,0.0,9.3269,9.6206,9.9051,10.0574,10.1004,10.3315,10.3164,10.0898,10.1133,9.9844,9.7109,9.375,8.8828,8.2617,0.0,0.0,0.0,0.0,9.3227,9.4686,9.713,9.8548,9.8743,9.7593,9.6924,9.6708,9.5454,9.4007,9.2458,9.0507,8.7704,8.4115,8.1705,0.0,0.0,0.0,0.0,0.0,0.0,0.0,0.0,0.0,0.0,0.0,0.0,0.0,0.0,0.0,0.0,0.0,0.0,0.0,8.3341,8.3786,8.4355,0.0,0.0,0.0,0.0,0.0,0.0,0.0,0.0,0.0,9.9439,9.9911,10.03,0.0,0.0,9.999,9.9275,9.9851,10.0188,9.9769,0.0,0.0,0.0,10.2048,10.256,10.2794,10.4919,10.7134,10.9086,10.9789,10.9676,10.8298,10.7954,10.7672,10.7005,10.4156,10.171,10.1231,9.9827,9.8442,9.7845,9.7633,9.7697,10.3482,10.0327,9.8134,9.8096,9.9519,9.9904,10.0904,10.2289,10.1981,10.0558,9.8519,9.8173,9.5182,9.0288,8.9704,0.0,0.0,0.0,9.6546,9.96,10.1112,10.2263,10.3166,10.5212,10.5032,10.3068,10.299,10.2141,10.0547,9.9179,9.539,8.9375,0.0,0.0,8.697,9.1826,9.4707,9.5476,9.7214,9.8131,9.8131,9.7237,9.6627,9.6483,9.6004,9.5274,9.4229,9.3026,9.0975,8.7895,8.52,8.221,0.0,0.0,0.0,0.0,0.0,0.0,0.0,0.0,0.0,0.0,0.0,7.6207,7.3206,0.0,0.0,0.0,8.1446,8.4679,8.6319,8.7141,0.0,0.0,0.0,0.0,0.0,0.0,0.0,9.8928,10.0953,10.2032,10.1491,10.1708,10.173,10.1223,10.0444,9.9938,10.0022,0.0,10.125,10.1096,10.3251,10.4597,10.3751,10.4174,10.4773,10.5147,10.6352,10.8061,11.0333,11.0574,11.0152,10.9676,10.8811,10.7923,10.7315,10.5213,10.3597,10.3328,10.2097,10.0962,10.0547,10.0079,9.9798,10.8636,10.8944,10.5059,10.3289,10.3174,10.3943,10.4251,10.4097,10.3212,10.3212,10.3828,10.2981,10.0366,9.6537,9.5131,0.0,9.6975,9.873,10.0851,10.3361,10.416,10.4987,10.5804,10.6652,10.6386,10.5035,10.5085,10.4365,10.2968,10.2109,10.0429,9.7968,9.5449,9.3588,9.2573,9.4777,9.6332,9.7022,9.7652,9.7915,9.776,9.6789,9.6288,9.6288,9.6288,9.5903,9.5134,9.4249,9.2672,9.0248,8.7162,8.4386,8.1947,0.0,0.0,0.0,0.0,0.0,0.0,0.0,0.0,0.0,0.0,0.0,0.0,0.0,0.0,0.0,8.6045,0.0,8.9664,9.1332,0.0,0.0,0.0,9.5117,9.6991,9.9719,10.1484,10.1484,0.0,0.0,10.2247,0.0,10.2779,10.1966,10.048,9.9954,10.1231,10.1558,10.1904,10.2674,10.4828,10.6097,10.5443,10.6405,10.6969,10.6498,10.6782,10.7633,10.9105,10.9199,10.8878,10.9165,10.8578,10.7641,10.6563,10.5636,10.5366,10.6097,10.4445,10.2902,10.2887,10.2018,10.1262,11.2599,11.2637,11.0983,10.9175,10.7444,10.7636,10.7367,10.6674,10.5174,10.4289,10.3866,10.2981,10.1327,9.9154,9.813,9.8261,9.9281,9.9772,10.0981,10.2774,10.3211,10.3843,10.4633,10.5699,10.571,10.4802,10.4993,10.4597,10.3612,10.2923,10.1828,10.0446,10.0151,9.7978,9.4145,9.6843,9.8031,9.7391,9.8177,9.797,9.6737,9.642,9.6288,9.6288,9.6288,9.6211,9.598,9.5172,9.4095,9.2787,9.0218,8.7378,8.4374,7.9686,0.0,0.0,0.0,0.0,0.0,0.0,0.0,0.0,0.0,8.3862,7.7476,0.0,8.7333,0.0,8.7681,9.0818,9.3581,9.394,0.0,0.0,9.8889,9.9917,10.2722,10.3661,10.4025,10.3798,10.4864,10.5095,10.3753,10.3658,10.3636,10.3386,10.2461,10.1904,10.2309,10.3405,10.4251,10.4559,10.5597,10.6559,10.6944,10.6828,10.6446,10.5659,10.6757,10.7749,10.7541,10.8472,10.9025,10.8493,10.7538,10.6757,10.6541,10.5674,10.552,10.6156,10.552,10.4651,10.4116,10.44,10.4538,11.5099,11.5022,11.4214,11.2599,11.0521,10.979,10.879,10.7559,10.5867,10.4828,10.4366,10.352,10.2674,10.175,10.0866,10.075,10.1212,10.1212,10.2097,10.3694,10.3843,10.4392,10.5203,10.5821,10.5786,10.5202,10.5233,10.497,10.4382,10.3895,10.3313,10.2709,10.2176,10.0478,9.7802,9.8554,9.8503,9.7519,9.798,9.775,9.6865,9.6826,9.6673,9.6326,9.6288,9.6134,9.5749,9.5249,9.4595,9.371,9.1633,8.953,8.7435,8.3231,8.0739,0.0,0.0,0.0,0.0,0.0,0.0,0.0,0.0,0.0,0.0,0.0,9.2066,9.1855,9.3515,9.5985,9.936,9.9524,10.0429,10.2849,10.2907,10.3519,10.5265,10.5979,10.6009,10.5112,10.6201,10.6245,10.4336,10.4272,10.4597,10.4943,10.4251,10.3558,10.3366,10.4289,10.5213,10.5636,10.6713,10.7636,10.8175,10.7213,10.6251,10.5887,10.6583,10.7267,10.7229,10.7963,10.8696,10.8854,10.8184,10.7675,10.7944,10.7405,10.6982,10.7274,10.7039,10.6587,10.624,10.6533,10.6549,11.6907,11.6753,11.5945,11.4676,11.306,11.1187,10.9419,10.7752,10.6136,10.529,10.5059,10.4366,10.3982,10.3828,10.3097,10.2751,10.2789,10.2789,10.3597,10.5059,10.5097,10.5559,10.6405,10.6405,10.6319,10.6119,10.5729,10.5449,10.5292,10.4832,10.4559,10.4477,10.2746,10.1864,10.1727,9.9933,9.8596,9.7827,9.775,9.7673,9.7673,9.7673,9.7288,9.6519,9.6442,9.6057,9.5211,9.5057,9.4634,9.3864,9.2364,9.1171,9.0334,8.7395,8.6042,0.0,8.5265,0.0,0.0,0.0,0.0,0.0,0.0,0.0,0.0,9.4595,9.7173,10.0442,10.075,10.202,10.5136,10.5679,10.5883,10.5984,10.6199,10.637,10.6394,10.7414,10.7656,10.6247,10.7759,10.7752,10.5348,10.5251,10.5905,10.6367,10.6059,10.5405,10.4674,10.5097,10.579,10.6405,10.7829,10.8713,10.8713,10.7675,10.6751,10.6636,10.6656,10.6828,10.7562,10.7695,10.8195,10.9504,10.9273,10.906,10.9906,10.9329,10.8867,10.8752,10.8545,10.839,10.826,10.7815,10.7669,11.9215,11.8523,11.7677,11.6753,11.5538,11.2448,11.0223,10.8598,10.7636,10.6405,10.5097,10.4943,10.4482,10.3905,10.3712,10.3674,10.3635,10.3635,10.4174,10.5097,10.5097,10.5559,10.6367,10.6405,10.6737,10.7238,10.6073,10.5851,10.6458,10.5194,10.4499,10.4242,10.3279,10.2615,10.2327,0.0,0.0,0.0,9.8904,9.8557,9.8557,9.8557,9.8134,9.7326,9.7288,0.0,9.6095,9.5365,9.4903,9.4749,9.3787,0.0,0.0,0.0,0.0,0.0,0.0,0.0,0.0,0.0,0.0,0.0,9.8865,9.7211,9.3941,9.7519,10.125,10.3866,10.4135,10.4982,10.6982,10.7439,10.7881,10.8516,10.8828,10.8887,10.8743,10.8881,10.9067,10.934,10.9083,10.8944,10.8829,10.8559,10.7982,10.7598,10.7867,10.7829,10.7059,10.7059,10.6982,10.6674,10.7982,10.8867,10.8906,10.8598,10.8059,10.7675,10.7444,10.7521,10.7636,10.7713,10.7982,10.9021,10.9021,10.8944,10.9175,10.8983,10.9021,10.8906,10.9549,10.98,10.8738,10.8018,10.7473,12.137,0.0,11.96,11.8292,0.0,11.3967,11.1723,10.9969,10.7966,10.6769,10.6315,10.6357,10.5905,10.5097,10.4674,10.4713,10.5136,10.5136,10.5828,10.6944,10.6982,10.7213,10.7636,10.7636,10.7739,10.7852,10.7003,10.6663,10.6743,10.5945,10.5177,10.4627,10.3855,10.3151,10.2558,10.1327,10.0289,9.9442,9.9442,9.9635,10.0019,10.0019,9.9635,9.8827,0.0,0.0,0.0,0.0,0.0,0.0,0.0,0.0,0.0,0.0,0.0,9.3654,9.3677,9.4405,9.6097,9.8134,10.0096,10.1827,10.3097,10.2558,9.9558,10.1712,10.4212,10.6674,10.6251,10.679,10.9252,10.8955,10.8835,10.9607,10.9509,10.9388,10.9683,10.9762,10.9861,11.0105,10.979,10.9598,10.956,10.9213,10.8983,10.8906,10.8867,10.8944,10.8906,10.8559,10.8213,10.829,10.8906,10.9521,10.9483,10.9136,10.8829,10.8367,10.7944,10.7752,10.7713,10.7713,10.7982,10.8752,10.9213,10.9637,11.0137,11.0483,11.0637,11.035,11.0632,11.0734,10.9731,10.9086,10.8618,12.3139,12.2947,12.1447,11.9869,11.8285,11.5599,11.3117,11.075,0.0,0.0,0.0,10.7879,10.7493,10.6828,10.6097,10.6174,10.6828,10.6828,10.7598,10.8867,10.8906,10.8983,10.9136,10.8983,10.882,10.8664,10.8145,10.774,10.7404,10.6873,10.629,10.552,10.4597,10.3674,10.2828,10.2097,10.1096,9.9788,10.025,10.0866,10.152,10.1673,10.1289,10.0327,10.0289,9.9173,9.6865,9.6749,9.6403,9.5711,9.5672,9.598,9.6692,9.6894,9.7891,9.9936,10.052,10.1139,10.1953,10.4075,10.4866,10.3751,10.5674,10.6597,10.602,10.5713,10.6636,10.9136,10.7829,10.8136,11.1175,11.0252,10.9637,11.0329,10.979,10.9735,11.0483,11.0637,11.0773,11.0829,11.0829,11.0406,10.9829,10.956,10.9598,11.0175,11.0021,10.979,11.0329,10.9752,10.9406,11.0137,11.0367,11.0444,11.0329,10.9906,10.9406,10.9444,10.8752,10.8213,10.8329,10.8252,10.8482,10.9367,10.9983,11.0637,11.1329,11.1829,11.2252,11.1637,11.1522,11.1378,11.0854,11.028,10.9757,12.3947,12.387,12.2947,12.1947,12.0784,11.755,11.3517,10.9257,10.8747,10.8606,10.8727,10.8729,10.8682,10.8559,10.8406,10.8444,10.8521,10.8559,10.8675,0.0,10.8906,10.929,10.9944,10.9252,10.964,11.0819,10.9465,10.9101,10.9509,10.8216,10.7444,10.7136,10.5713,10.452,10.3751,10.3597,10.3443,10.3174,10.2558,10.2289,10.2443,10.3135,10.2751,10.125,10.1135,10.0289,9.8557,9.8442,9.8365,9.825,9.825,9.8327,9.8462,9.9189,9.9727,10.0204,10.2154,10.3718,10.4567,10.563,10.6751,10.7867,10.8367,10.879,10.9367,10.8175,10.8406,11.0752,10.9406,10.9329,11.1214,11.1214,11.1098,11.1252,11.1214,11.1445,11.2214,11.2291,11.256,11.3176,11.2791,11.2291,11.1868,11.1445,11.1175,11.1368,11.1637,11.2137,11.1983,11.0983,11.0483,11.1098,11.1329,11.1329,11.1368,11.1252,11.1021,11.1137,11.0367,10.9983,11.0637,11.0175,11.006,11.0944,11.1175,11.1368,11.156,11.156,11.1791,11.1714,11.1675,11.1641,11.1419,11.0671,10.9849,12.5755,12.5909,12.4293,12.3332,12.2668,11.8851,11.4846,11.1102,11.095,10.9879,10.8295,10.8688,10.915,10.9586,10.9623,11.0137,11.0944,11.0944,11.1214,11.1637,11.1675,11.1868,11.2214,11.1829,11.1829,11.2099,11.0906,11.0252,11.0098,10.8944,10.7867,10.6982,10.5713,10.4905,10.4559,10.4559,10.4789,10.5213,10.3943,10.352,10.3943,10.4366,10.4174,10.3366,10.3366,10.2558,10.0904,10.0866,10.0635,10.0173,10.0173,10.0381,10.0847,10.123,10.1691,10.2156,10.3701,10.4975,10.5803,10.6621,10.8021,11.006,10.9444,10.9483,11.0791,10.8944,10.8213,10.9329,10.906,10.9406,11.0675,11.1214,11.1522,11.1522,11.1868,11.2483,11.3214,11.3407,11.356,11.3907,11.3676,11.306,11.2175,11.2522,11.2637,11.2368,11.2868,11.3407,11.3445,11.3214,11.2714,11.2252,11.1829,11.1983,11.256,11.2022,11.1983,11.2637,11.1752,11.1368,11.1906,11.1445,11.1175,11.1445,11.1829,11.2137,11.2175,11.2983,11.306,11.2368,11.306,11.3099,11.1983,11.0791,10.9898,12.7502,12.7643,12.5759,12.4639,12.3745,11.9769,11.6438,11.3922,11.3245,11.1287,10.8741,10.8978,10.9475,10.9872,10.99,11.0616,11.1727,11.1842,11.2187,11.28,11.2839,11.3141,11.3666,11.3704,11.3542,11.3231,11.2637,11.1829,11.0752,10.9906,10.8636,10.7059,10.629,10.5944,10.5944,10.5781,10.6002,10.654,10.5371,10.4974,10.5366,10.5405,10.529,10.5097,10.5251,10.4636,10.302,10.3058,10.2789,10.1923,10.1708,10.2063,10.3033,10.2618,10.2931,10.4071,10.4815,10.5743,10.6906,10.7771,10.9098,11.0983,10.9983,10.9752,11.0829,10.9444,10.8367,10.8559,10.906,10.956,11.0483,11.1329,11.1791,11.1829,11.2522,11.333,11.4137,11.4291,11.4291,11.4291,11.4291,11.3714,11.2714,11.3176,11.383,11.3791,11.4176,11.4522,11.4638,11.5061,11.4599,11.3676,11.2753,11.2676,11.3599,11.2906,11.2753,11.3868,11.2945,11.256,11.2753,11.2445,11.2137,11.2252,11.2599,11.306,11.333,11.4022,11.433,11.3599,11.406,11.4176,11.2599,11.1752,11.0637,12.8444,12.777,12.7488,12.6178,12.3812,12.0419,11.8328,11.705,11.4932,11.2825,11.1021,11.0366,10.9737,10.9095,10.9112,10.9356,10.9621,10.9332,10.9552,10.9697,10.9377,11.0595,11.2889,11.2916,11.3597,11.4817,11.4763,11.3719,11.2181,11.1418,11.0308,10.8867,10.8598,10.844,10.8398,10.7705,10.7393,10.7508,10.7355,10.6964,10.6326,10.629,10.5905,10.5136,10.5905,10.552,10.3982,10.4482,10.4482,10.3672,10.2831,10.3184,10.4428,10.2812,10.2632,10.4831,10.5168,10.6189,10.8415,10.9497,11.006,11.0252,11.0214,11.0137,11.0406,11.0137,11.0291,11.0791,11.0444,11.0483,11.1291,11.2099,11.256,11.256,11.3407,11.4214,11.4945,11.5176,11.5176,11.5176,11.5077,11.4791,11.3885,11.3945,11.4561,11.5638,11.5792,11.5945,11.5945,11.5638,11.533,11.5022,11.4907,11.4291,11.356,11.3483,11.3791,11.4022,11.3945,11.3945,11.4099,11.4099,11.3753,11.3791,11.383,11.4214,11.4445,11.4714,11.4484,11.4638,11.4522,11.4099,11.3791,11.3637,11.2791,12.8711,12.8182,12.7267,12.6071,12.4446,12.2679,12.0884,11.9138,11.812,11.5865,11.2924,11.2402,11.18,11.1049,11.1081,11.1841,11.3236,11.3274,11.3274,11.3274,11.3274,11.3849,11.4743,11.485,11.4801,11.4412,11.3984,11.2842,11.1243,10.9872,10.8817,10.8208,10.8132,10.8132,10.8105,10.7787,10.784,10.8362,10.7385,10.6923,10.7131,10.7611,10.7713,10.7325,10.6736,10.6391,10.6032,10.5123,10.4532,10.4544,10.3398,10.3433,10.5058,10.3731,10.3576,10.5048,10.6129,10.7344,10.8825,10.9705,11.0637,11.1598,11.0752,11.056,11.156,11.1252,11.1329,11.1945,11.1483,11.0983,11.0944,11.2368,11.3291,11.306,11.433,11.5445,11.5291,11.6176,11.6599,11.6077,11.5145,11.4651,11.4702,11.4753,11.5253,11.6215,11.6522,11.6561,11.6484,11.6215,11.583,11.5484,11.5676,11.5715,11.4945,11.4253,11.4753,11.5676,11.5792,11.5638,11.6638,11.6484,11.6138,11.5561,11.5484,11.5368,11.5176,11.5522,11.5522,11.5599,11.5253,11.4868,11.5368,11.5484,11.4868,12.8799,12.8094,12.6736,12.5717,12.5024,12.4182,12.273,12.0943,12.06,11.8278,11.486,11.4483,11.3913,11.3123,11.2552,11.3259,11.4758,11.5133,11.5095,11.4983,11.532,11.5656,11.591,11.6171,11.5786,11.4825,11.3869,11.2246,11.0283,10.8742,10.7956,10.7956,10.7956,10.7956,10.7924,10.7763,10.79,10.8384,10.7298,10.7035,10.7607,10.8426,10.8682,10.8174,10.7049,10.6718,10.727,10.5595,10.4908,10.5447,10.4154,10.4035,10.5356,10.4505,10.4271,10.5155,10.6731,10.814,10.9195,11.0027,11.123,11.2692,11.1714,11.1264,11.1976,11.1623,11.13,11.1414,11.1324,11.0913,11.1231,11.2753,11.3714,11.356,11.5522,11.6599,11.6522,11.7369,11.73,11.6253,11.486,11.4244,11.4881,11.5476,11.6306,11.6785,11.71,11.7061,11.6907,11.683,11.6561,11.5792,11.6138,11.6292,11.6176,11.583,11.6061,11.6869,11.7253,11.7638,11.8869,11.8369,11.81,11.7292,11.7253,11.733,11.7369,11.7407,11.7023,11.6522,11.6215,11.633,11.7061,11.7176,11.7215,12.8874,12.7243,12.6299,12.5545,12.4965,12.4061,12.3229,12.2172,12.1493,11.9632,11.7165,11.6417,11.5587,11.455,11.2588,11.1434,11.1691,11.2507,11.25,11.2015,11.3242,11.4207,11.5005,11.5829,11.6556,11.6618,11.5071,11.2914,11.0116,10.9206,10.8855,10.8753,10.8619,10.8721,10.8521,10.7839,10.7627,10.7627,10.7478,10.7516,10.7662,10.8384,10.8044,10.6804,10.6464,10.6457,10.6488,10.6358,10.622,10.6289,10.5398,10.5357,10.6065,10.4819,10.4366,10.5179,10.6691,10.8321,10.9772,11.0798,11.199,11.3388,11.2818,11.2237,11.1672,11.079,11.0063,10.9257,10.9992,11.076,11.2052,11.299,11.398,11.4656,11.6477,11.7708,11.8577,11.7854,11.7011,11.5814,11.4895,11.4392,11.4312,11.6181,11.7284,11.7798,11.8407,11.8561,11.7792,11.7677,11.7292,11.6715,11.6484,11.6292,11.5753,11.6253,11.7215,11.81,11.8677,11.8985,11.9023,11.9023,11.9023,11.8946,11.8831,11.9023,11.96,11.9523,11.8869,11.8331,11.7946,11.8138,11.8792,11.8946,11.9061,12.7888,12.6194,12.5334,12.5212,12.5419,12.4151,12.3143,12.232,12.1496,11.9993,11.8234,11.7695,11.7175,11.624,11.4449,11.3297,11.2861,11.3115,11.285,11.2366,11.3733,11.4886,11.5686,11.6479,11.6356,11.5475,11.3633,11.0924,10.803,10.7436,10.7325,10.7325,10.7287,10.7287,10.7247,10.701,10.6847,10.6847,10.6847,10.6847,10.6888,10.7131,10.6991,10.6471,10.6394,10.6648,10.7132,10.5681,10.5061,10.5594,10.4838,10.474,10.5439,10.5519,10.5605,10.6024,10.6984,10.7886,10.8649,11.0333,11.1885,11.2921,11.236,11.2029,11.1854,11.056,10.9432,10.9566,10.9351,10.9977,11.089,11.1843,11.2262,11.2395,11.4497,11.6289,11.6684,11.7194,11.7661,11.7422,11.6783,11.5879,11.5202,11.6455,11.789,11.8537,11.8946,11.8715,11.8061,11.7792,11.7677,11.7446,11.733,11.7446,11.783,11.76,11.8023,11.9023,11.9754,12.0139,12.0292,12.0408,12.0446,11.9908,11.9869,11.9754,12.0023,11.9638,11.9292,11.9292,11.8985,11.9446,12.0523,12.0292,12.0716,12.7054,12.5746,12.5096,12.5106,12.5291,12.4306,12.3379,12.2563,12.1747,12.0599,11.9354,11.893,11.797,11.6539,11.5441,11.4041,11.2801,11.3342,11.332,11.2858,11.5028,11.6243,11.656,11.7245,11.7021,11.5663,11.324,11.0304,10.7587,10.7697,10.7404,10.6492,10.6853,10.689,10.6486,10.6376,10.6376,10.6376,10.6376,10.6376,10.6376,10.6376,10.6376,10.6392,10.6376,10.6661,10.7165,10.5344,10.4681,10.5348,10.502,10.4944,10.5532,10.6082,10.6633,10.7121,10.7704,10.8515,10.9566,11.1223,11.241,11.2974,11.229,11.1801,11.1204,10.9306,10.8443,10.8222,10.788,10.773,10.8291,10.9004,10.9933,11.1106,11.3237,11.4781,11.5466,11.5855,11.6046,11.601,11.5946,11.5616,11.5575,11.6966,11.8137,11.9037,11.9485,11.9446,11.8177,11.8061,11.8061,11.7869,11.7753,11.8292,11.8869,11.8985,11.86,11.9408,12.0446,12.0985,12.1216,12.1447,12.1447,12.0946,12.06,12.0369,12.0062,11.9715,11.9677,11.9792,11.9831,12.01,12.0869,12.1408,12.1562,12.6505,12.572,12.5647,12.5146,12.4669,12.4411,12.3934,12.3076,12.2378,12.1459,12.0361,11.9884,11.8048,11.5614,11.5144,11.338,11.1438,11.2598,11.3046,11.2764,11.6078,11.7454,11.7039,11.7669,11.7845,11.7461,11.4965,11.1919,10.9055,10.9973,10.9386,10.733,10.8028,10.7881,10.6486,10.6486,10.6376,10.6376,10.6376,10.6376,10.6376,10.6376,10.6376,10.6376,10.6387,10.6434,10.6434,10.5573,10.55,10.6203,10.6271,10.6376,10.6449,10.6449,10.711,10.8505,10.8805,11.0313,11.2832,11.3331,11.3482,11.337,11.2901,11.1124,10.8832,10.7389,10.6198,10.5324,10.4935,10.4768,10.4986,10.5511,10.7658,11.25,11.2575,11.3378,11.4963,11.4246,11.2552,11.2589,11.3498,11.4182,11.5389,11.7254,11.8766,11.9494,12.0408,12.0523,11.8715,11.8715,11.8677,11.8254,11.8292,11.8946,11.9677,12.0254,11.9754,11.9638,12.0716,12.1485,12.137,12.1485,12.1793,12.1408,12.1254,12.1062,12.0908,12.06,12.0639,12.0754,12.0754,12.0754,12.1408,12.1908,12.1754,12.6932,12.5647,12.5096,12.4729,12.4399,12.3922,12.3224,12.249,12.216,12.1316,12.0214,12.0361,11.8716,11.617,11.5275,11.3575,11.1188,11.1373,11.1291,11.1515,11.3491,11.5,11.5686,11.6442,11.6198,11.5231,11.4708,11.3057,11.0957,11.0957,11.056,10.9826,10.9019,10.8578,10.7881,10.7,10.6376,10.6376,10.6376,10.6376,10.6376,10.6376,10.6376,10.6376,10.6376,10.6376,10.6376,10.6119,10.6119,10.6376,10.6376,10.689,10.7624,10.7,10.7697,10.9936,10.9349,10.9619,11.1668,11.304,11.3219,11.2328,11.146,11.0077,10.8052,10.6184,10.5016,10.4402,10.4366,10.4366,10.4438,10.456,10.5894,10.7834,10.9295,11.1056,11.3487,11.4946,11.5414,11.4767,11.4971,11.5915,11.7191,11.8627,11.9324,12.0517,12.1269,12.0946,11.9946,11.96,11.9869,11.9562,11.9638,11.9638,12.0446,12.0869,12.0562,12.0369,12.1139,12.1523,12.1447,12.187,12.21,12.2062,12.187,12.1677,12.1562,12.1447,12.137,12.137,12.1177,12.1562,12.2177,12.2224,12.1931,12.7335,12.6087,12.528,12.4766,12.4509,12.4215,12.3738,12.3004,12.2674,12.194,12.1169,12.0875,11.8926,11.6177,11.5202,11.351,11.1085,11.0494,11.0452,11.0899,11.2313,11.3422,11.411,11.486,11.4416,11.324,11.3607,11.3055,11.1336,11.1201,11.0956,11.0179,10.9276,10.8431,10.7918,10.6963,10.6376,10.6376,10.6376,10.6376,10.6376,10.6376,10.6376,10.6376,10.6376,10.6376,10.6376,10.6376,10.6376,10.6376,10.6376,10.6926,10.7734,10.7,10.7587,10.9423,10.9606,10.9753,11.1824,11.3124,11.3284,11.223,11.1258,10.9828,10.8003,10.5784,10.4443,10.4112,10.38,10.3706,10.3741,10.424,10.4518,10.4664,10.6459,10.8595,11.1092,11.4038,11.5475,11.5081,11.5479,11.6719,11.7826,11.9086,11.9809,12.1227,12.1842,12.1523,12.0754,12.0254,12.0216,12.0177,11.9985,12.0369,12.1293,12.1447,12.1331,12.137,12.16,12.1523,12.137,12.2408,12.2985,12.2639,12.2408,12.1985,12.1831,12.1639,12.1485,12.1523,12.1408,12.1485,12.1724,12.2012,12.1905,12.7301,12.6582,12.5579,12.4548,12.4022,12.4424,12.408,12.383,12.3321,12.2758,12.2318,12.1207,11.8666,11.5672,11.4882,11.322,11.0766,11.0454,11.079,11.1512,11.2566,11.3069,11.2601,11.3669,11.3347,11.2054,11.2531,11.2302,11.1348,11.1147,11.049,10.9276,10.8883,10.8031,10.7029,10.6505,10.6389,10.6413,10.6376,10.6376,10.6376,10.6376,10.6376,10.6376,10.6376,10.6376,10.6376,10.6376,10.6376,10.6376,10.6559,10.6926,10.6816,10.6633,10.7477,10.9679,10.9276,11.0781,11.291,11.3926,11.375,11.3293,11.1856,11.0311,10.8021,10.5829,10.4185,10.3745,10.3117,10.262,10.2903,10.368,10.409,10.3901,10.5621,10.7519,10.9048,11.2123,11.4084,11.4468,11.5121,11.6491,11.7612,11.9068,12.0283,12.1321,12.209,12.1683,12.1062,12.0523,12.0062,12.01,12.0408,12.0754,12.1562,12.1562,12.1523,12.21,12.2331,12.2331,12.2024,12.2947,12.3139,12.2831,12.2678,12.2293,12.1947,12.1716,12.1408,12.1216,12.11,12.0985,12.1221,12.1671,12.2139,12.3948,12.2995,12.1122,12.0514,12.0693,11.9999,11.9784,12.0113,12.1134,12.091,11.9951,11.9915,11.8083,11.5094,11.4289,11.2889,11.1479,11.1061,11.1162,11.1401,11.175,11.1539,11.1661,11.3382,11.3385,11.1736,11.2398,11.2751,11.1509,11.0781,11.0303,10.9961,10.863,10.7907,10.74,10.6782,10.6498,10.6395,10.637,10.6365,10.6328,10.6365,10.6376,10.6376,10.6328,10.6365,10.6376,10.6376,10.6376,10.6486,10.7587,10.8762,10.9496,10.8799,10.9679,11.2469,11.1772,11.1919,11.4451,11.514,11.4745,11.3572,11.1745,10.9835,10.8029,10.5403,10.4022,10.3449,10.2942,10.2536,10.2634,10.3359,10.392,10.467,10.6929,10.9163,11.0671,11.3368,11.5369,11.5479,11.6287,11.7244,11.8148,11.9256,12.0455,12.1324,12.1817,12.1985,12.1462,12.1216,12.1023,12.1062,12.1254,12.137,12.1523,12.1562,12.187,12.2601,12.3139,12.3639,12.3408,12.3678,12.3101,12.2331,12.237,12.2139,12.187,12.16,12.1293,12.0985,12.1269,12.1414,12.148,12.1846,12.2384,12.2847,12.2183,12.0227,11.9484,11.9529,11.8988,11.8634,11.8542,11.9332,11.9125,11.8194,11.8051,11.6731,11.4439,11.3859,11.2837,11.1505,11.1399,11.1399,11.1399,11.1469,11.0834,11.047,11.1598,11.1112,10.9861,11.0827,11.0776,10.9996,10.9271,10.9091,10.8969,10.8029,10.7346,10.7227,10.6849,10.6329,10.6077,10.6014,10.5906,10.5627,10.5591,10.5544,10.5544,10.5544,10.5652,10.5978,10.6003,10.6397,10.7322,10.8358,10.9533,11.0928,11.0377,11.1148,11.3827,11.2139,11.2359,11.4213,11.4476,11.3951,11.326,11.1408,10.9491,10.7823,10.5567,10.4058,10.399,10.3111,10.2773,10.2976,10.3382,10.4227,10.5732,10.8722,11.073,11.0961,11.3588,11.5602,11.642,11.7214,11.7867,11.849,11.9647,12.0753,12.1694,12.243,12.2447,12.2198,12.213,12.1769,12.1414,12.1453,12.1506,12.1635,12.1712,12.2269,12.3,12.3716,12.4293,12.4255,12.4139,12.3293,12.2524,12.2293,12.2062,12.187,12.16,12.1216,12.1147,12.1552,12.1651,12.1638,12.2261,12.279,12.2589,12.2483,12.0826,11.9839,11.9229,11.9706,11.8724,11.8094,11.8093,11.772,11.6978,11.6307,11.5333,11.3683,11.3358,11.267,11.1399,11.1399,11.1399,11.1298,11.1061,11.0389,10.9406,10.9338,10.8589,10.7638,10.7644,10.7995,10.7753,10.7036,10.694,10.7135,10.6675,10.6486,10.6582,10.6567,10.627,10.5819,10.5642,10.5392,10.493,10.4752,10.4662,10.4662,10.4645,10.4984,10.5411,10.5642,10.6456,10.8709,10.8843,10.9568,11.0745,11.0874,11.1157,11.132,11.129,11.1555,11.2889,11.238,11.2053,11.2588,11.0662,10.8894,10.7808,10.5941,10.4566,10.4532,10.3483,10.3382,10.3787,10.3923,10.4701,10.6451,10.9322,11.0752,11.1181,11.3252,11.573,11.697,11.7902,11.8306,11.8962,12.0035,12.1536,12.2111,12.2763,12.301,12.2928,12.2846,12.1904,12.0657,12.0912,12.1461,12.1666,12.191,12.2649,12.3399,12.4115,12.4639,12.4524,12.4216,12.3524,12.2947,12.2601,12.2331,12.2062,12.1716,12.143,12.1532,12.1986,12.1701,12.1457,12.2671,12.3458,11.917,11.8999,11.688,11.623,11.6435,11.5581,11.5308,11.5619,11.6313,11.6104,11.5512,11.5233,11.456,11.3588,11.2468,11.1714,11.1469,11.1365,11.1399,11.123,11.008,10.9606,10.9268,10.9369,10.8625,10.7441,10.7035,10.6863,10.6208,10.5381,10.4703,10.5354,10.5589,10.5404,10.5987,10.6454,10.6646,10.63,10.5759,10.5297,10.4925,10.4342,10.4131,10.4166,10.4328,10.4789,10.5338,10.5479,10.6671,10.8378,10.8966,10.9126,10.9747,10.9801,11.0372,11.0909,11.0338,11.0374,11.1517,11.1657,11.1541,11.1587,10.9843,10.8243,10.8043,10.6013,10.4832,10.4633,10.4396,10.4261,10.4938,10.5242,10.558,10.6584,10.838,11.0112,11.0979,11.4108,11.649,11.7247,11.7975,11.8636,11.9318,12.0858,12.1998,12.2545,12.3059,12.3548,12.3581,12.3514,12.2217,12.0706,12.0386,12.075,12.0665,12.1275,12.2612,12.3458,12.4235,12.4409,12.4332,12.4447,12.3755,12.3255,12.2908,12.257,12.219,12.2506,12.2351,12.2433,12.2372,12.2127,12.2237,12.3281,12.3657,11.8605,11.8368,11.6169,11.5256,11.5154,11.4444,11.3936,11.3812,11.4178,11.4007,11.3357,11.3322,11.3082,11.257,11.1785,11.1399,11.1298,11.1027,11.1061,11.0959,10.9944,10.9234,10.9099,10.9065,10.8321,10.7035,10.69,10.6325,10.5344,10.487,10.4832,10.4735,10.5005,10.57,10.6073,10.6366,10.6029,10.555,10.4951,10.4491,10.4016,10.2782,10.235,10.2833,10.3496,10.4525,10.5549,10.5653,10.651,10.7611,10.8088,10.8836,10.9997,11.0223,11.0683,11.1093,11.0824,11.0541,11.1284,11.0828,11.0381,11.0416,10.8646,10.7404,10.6611,10.5261,10.4629,10.4193,10.3957,10.4058,10.5141,10.5682,10.5851,10.6692,10.8341,10.9992,11.1341,11.4354,11.7111,11.7629,11.8526,11.9333,12.036,12.1324,12.2374,12.2855,12.3895,12.4344,12.4124,12.3855,12.2529,12.1276,12.0372,11.997,11.9657,12.0514,12.2393,12.3299,12.4124,12.3927,12.3601,12.387,12.4062,12.3417,12.2678,12.25,12.2276,12.2722,12.2905,12.2507,12.2333,12.2455,12.272,12.3125,12.3314,11.9146,11.8841,11.671,11.5391,11.4748,11.4647,11.3869,11.2617,11.2482,11.2425,11.1501,11.1399,11.1713,11.1435,11.1435,11.1399,11.123,11.0925,11.0959,11.0858,11.0046,10.8958,10.8448,10.808,10.7507,10.6562,10.6359,10.5716,10.5141,10.5107,10.4802,10.4802,10.5411,10.6052,10.6527,10.6122,10.5708,10.5156,10.3782,10.2879,10.2013,10.0417,9.9767,10.1116,10.2156,10.3986,10.5298,10.5873,10.622,10.6967,10.7069,10.8513,11.0252,11.0863,11.0828,11.0711,11.0416,11.0368,11.0094,10.9626,10.9017,10.8879,10.7588,10.622,10.5105,10.4968,10.4699,10.416,10.3889,10.4024,10.4633,10.5377,10.6054,10.6862,10.8715,11.0184,11.1448,11.3823,11.5708,11.7801,11.8269,11.8819,11.9855,12.083,12.2099,12.3235,12.421,12.4788,12.4442,12.3622,12.207,12.1006,11.998,11.9884,11.9664,11.9283,12.1239,12.265,12.3567,12.3369,12.2889,12.2985,12.3086,12.2801,12.2299,12.2314,12.2543,12.2932,12.29,12.24,12.2494,12.283,12.2937,12.2924,12.3113,11.8841,11.8131,11.6507,11.5391,11.4748,11.468,11.3729,11.2617,11.2448,11.2042,11.1467,11.1399,11.1399,11.1399,11.1399,11.1399,11.1331,11.1061,11.0892,11.0655,10.9909,10.885,10.7068,10.7434,10.6723,10.4988,10.494,10.5107,10.4701,10.4261,10.4566,10.4769,10.5377,10.6088,10.6326,10.6122,10.5246,10.4169,10.2317,10.0937,10.0222,9.8775,9.8308,10.0131,10.1166,10.2991,10.5245,10.5885,10.6426,10.7678,10.7813,10.8524,10.9191,10.8703,10.8156,10.8255,10.8662,10.8826,10.8186,10.8173,10.7776,10.7301,10.6694,10.5816,10.5107,10.5141,10.5005,10.4836,10.5174,10.5682,10.4769,10.5479,10.5751,10.6419,10.7171,10.8542,10.9435,11.0816,11.3162,11.5453,11.6624,11.7912,11.8757,11.9683,12.0858,12.1845,12.2887,12.3339,12.3197,12.211,12.066,11.9857,11.9206,11.9498,11.9794,11.9245,11.9819,12.1406,12.2324,12.2544,12.2243,12.2068,12.1978,12.2277,12.2582,12.2842,12.3063,12.3207,12.2962,12.2539,12.285,12.3214,12.2956,12.2793,12.3486,11.8844,11.7283,11.5403,11.4001,11.3034,11.2533,11.2528,11.2444,11.2076,11.1737,11.1467,11.1399,11.1399,11.1399,11.1399,11.1399,11.1331,11.0959,11.0858,11.0655,10.9638,10.872,10.683,10.7506,10.6694,10.5678,10.5415,10.5242,10.5208,10.4566,10.4566,10.5073,10.5344,10.5314,10.4965,10.4087,10.3238,10.1969,9.9891,9.8574,9.847,9.6993,9.7721,9.882,10.0624,10.2745,10.5213,10.6697,10.7238,10.7948,10.8422,10.8794,10.8727,10.8287,10.7475,10.7509,10.7779,10.7678,10.7069,10.7272,10.7238,10.7069,10.6798,10.6156,10.5344,10.5208,10.531,10.4836,10.5411,10.6054,10.5377,10.5818,10.5752,10.5103,10.5415,10.5616,10.5779,10.6328,10.8632,11.1499,11.2784,11.4352,11.704,11.8145,11.9395,12.053,12.1479,12.1789,12.1835,12.0594,11.9212,11.8932,11.832,11.8293,11.8786,11.871,11.8554,11.9995,12.1102,12.1329,12.1648,12.1502,12.2034,12.2624,12.295,12.2937,12.3059,12.3079,12.2848,12.2639,12.2739,12.2756,12.2621,12.2739,12.3272,11.7654,11.5562,11.3646,11.1975,11.0567,10.9866,11.0067,11.0817,11.0215,11.0231,11.0661,11.027,11.0447,11.1225,11.1399,11.1365,11.1331,11.079,11.0858,11.0655,10.9503,10.8724,10.7907,10.7643,10.673,10.5675,10.6157,10.5851,10.531,10.487,10.4806,10.4472,10.4304,10.3923,10.3138,10.2049,10.0197,9.8821,9.7006,9.6156,9.5514,9.5439,9.6025,9.7252,9.9736,10.228,10.4771,10.663,10.7678,10.8321,10.8794,10.9234,10.9268,10.8828,10.8354,10.8084,10.8016,10.761,10.717,10.717,10.7238,10.6934,10.7441,10.6595,10.5716,10.5377,10.5377,10.4532,10.5208,10.5885,10.548,10.5685,10.4999,10.3819,10.2974,10.2482,10.1877,10.209,10.2927,10.55,10.7845,11.046,11.2886,11.5915,11.7094,11.8252,11.9216,12.0231,12.0117,11.8905,11.7906,11.7848,11.7539,11.7057,11.7294,11.7811,11.7837,11.8574,11.9585,12.0098,12.0578,12.0938,12.159,12.2111,12.2546,12.2538,12.2736,12.2851,12.2718,12.254,12.2412,12.2153,12.1832,12.1949,12.2428,11.32,11.1809,11.089,10.9381,10.7826,10.7456,10.6815,10.6229,10.6225,10.6907,10.835,10.6984,10.8116,11.027,11.0979,11.1154,11.1087,11.0669,11.0153,10.9746,10.9245,10.777,10.6189,10.7399,10.5755,10.4757,10.5675,10.5886,10.4707,10.4236,10.3631,10.263,10.2568,10.2304,10.102,10.0182,9.9485,9.8304,9.604,9.3766,9.2033,9.181,9.3023,9.5353,9.7801,10.0564,10.3389,10.5675,10.7372,10.8794,10.9031,10.9505,11.0012,11.0114,10.9234,10.849,10.7948,10.7712,10.7137,10.7306,10.7407,10.7001,10.7137,10.6561,10.602,10.5648,10.5682,10.5682,10.6223,10.6088,10.5111,10.3923,10.2987,10.1721,10.0497,9.9668,9.8843,9.7965,9.8756,9.991,10.2434,10.548,10.8324,11.1738,11.4692,11.5826,11.6879,11.7776,11.8148,11.677,11.6258,11.6122,11.5953,11.5567,11.5188,11.577,11.6177,11.6812,11.7808,11.8618,11.9199,11.9716,12.0528,12.1027,12.1482,12.1991,12.2177,12.2325,12.2424,12.2397,12.2207,12.1614,12.0923,12.1156,12.1097,10.9046,10.9293,10.8601,10.7539,10.6314,10.5528,10.5592,10.5943,10.5338,10.5319,10.5721,10.5415,10.6174,10.7672,10.7781,10.7705,10.7781,10.7932,10.7649,10.734,10.6904,10.582,10.467,10.4405,10.3389,10.3351,10.2894,10.2231,10.1987,10.2362,10.2115,10.0726,10.0391,9.9721,9.8711,9.8191,9.7066,9.5636,9.3872,9.233,9.1397,9.0991,9.2019,9.4981,9.6401,9.9078,10.222,10.4619,10.6718,10.8214,10.8862,10.9302,10.9437,10.9234,10.8591,10.8185,10.7576,10.7238,10.7001,10.7238,10.7137,10.717,10.717,10.7204,10.6561,10.6054,10.5851,10.5783,10.6054,10.5885,10.5077,10.3313,10.1576,10.0044,9.8176,9.6385,9.5427,9.4733,9.4616,9.5723,9.7124,10.0443,10.3784,10.7389,11.0424,11.2186,11.3067,11.3851,11.4418,11.4138,11.4003,11.4255,11.4058,11.3772,11.3378,11.3322,11.3428,11.4165,11.5707,11.6566,11.7572,11.8281,11.8825,11.9588,12.0151,12.0723,12.1285,12.1959,12.2278,12.2156,12.1991,12.0813,11.9565,11.8546,11.8152,10.5722,10.6537,10.6014,10.5337,10.4387,10.3188,10.3384,10.4607,10.3663,10.3226,10.3577,10.4153,10.4457,10.4407,10.4937,10.5689,10.5226,10.4986,10.4986,10.4698,10.3994,10.3575,10.3219,10.2467,10.173,10.1452,10.1446,10.0435,9.961,9.9443,9.9593,9.8539,9.8113,9.7232,9.623,9.5578,9.4818,9.3432,9.2194,9.15,9.1446,9.1147,9.2451,9.4117,9.5778,9.7605,10.119,10.3315,10.504,10.7438,10.8151,10.849,10.8727,10.849,10.805,10.7644,10.7204,10.7001,10.69,10.6967,10.69,10.7069,10.7272,10.7306,10.6934,10.6325,10.6088,10.6156,10.5919,10.5919,10.5146,10.2936,10.0457,9.8307,9.6213,9.3861,9.209,9.2292,9.265,9.3712,9.4868,9.5639,9.9128,10.2884,10.5911,10.8196,10.934,11.0051,11.0848,11.1601,11.2112,11.2482,11.2723,11.2531,11.2084,11.1667,11.1497,11.1412,11.2938,11.4036,11.4667,11.5723,11.6508,11.7418,11.7929,11.8287,11.8185,12.0213,12.2051,12.1524,12.0789,11.9318,11.8018,11.6612,11.4972,10.384,10.2889,10.2829,10.2172,10.1,10.0129,9.9679,9.9973,9.9375,10.0032,10.1201,10.277,10.2506,10.2097,10.3566,10.4722,10.4713,10.4986,10.4262,10.3706,10.3162,10.2114,10.159,10.1018,10.0475,10.0443,9.9893,9.8929,9.7877,9.6678,9.6204,9.5144,9.5068,9.4686,9.4274,9.3818,9.3258,9.2254,9.1536,9.1476,9.1686,9.1716,9.2207,9.3191,9.479,9.6746,9.8929,10.0946,10.3389,10.6358,10.6934,10.7407,10.7712,10.761,10.7238,10.6798,10.6798,10.6697,10.6731,10.6832,10.69,10.69,10.6967,10.7103,10.69,10.69,10.6798,10.6528,10.5919,10.5614,10.4301,10.2096,9.9387,9.7356,9.5353,9.3078,9.1586,9.1104,9.1525,9.2143,9.2905,9.373,9.4489,9.8278,10.1712,10.4128,10.6188,10.6983,10.8881,10.9726,11.0392,11.0918,11.146,11.1367,11.105,11.0346,10.8722,10.8625,10.9748,11.0602,11.1256,11.2391,11.2964,11.3224,11.3364,11.4268,11.5089,11.6104,11.7451,11.9439,11.9256,11.6838,11.4376,11.2323,11.0992,10.3655,10.2458,10.162,10.1201,10.1022,10.0393,9.9735,9.9107,9.8688,9.8537,9.887,9.9588,9.9618,9.9548,10.0184,10.1031,10.0447,10.0385,10.0341,9.977,9.9063,9.8848,9.8632,9.836,9.7565,9.7599,9.727,9.6529,9.5109,9.4148,9.2136,9.1282,9.1363,9.205,9.198,9.2538,9.2588,9.2404,9.2314,9.2583,9.2613,9.2464,9.2733,9.3892,9.327,9.5199,9.7295,9.8917,10.1537,10.3773,10.5111,10.6022,10.6561,10.6392,10.6088,10.5783,10.5986,10.6223,10.6392,10.6629,10.69,10.69,10.69,10.69,10.69,10.69,10.6595,10.6189,10.5614,10.5174,10.3966,10.1401,9.8744,9.6902,9.479,9.2529,9.1389,9.0969,9.0698,9.148,9.1616,9.1868,9.258,9.3616,9.6982,10.0044,10.208,10.4072,10.5952,10.717,10.7436,10.7501,10.7837,10.7065,10.6556,10.6022,10.5578,10.6056,10.6556,10.6949,10.7424,10.7587,10.8079,10.8353,10.8569,10.9055,10.9808,11.1045,11.2834,11.5323,11.5048,11.3246,11.0768,10.8098,10.7042,10.3775,10.2638,10.1351,10.0932,10.1052,10.0244,9.9645,9.9197,9.8718,9.8149,9.7491,9.7491,9.7491,9.767,9.8269,9.8329,9.8026,9.7637,9.7218,9.6886,9.6583,9.6055,9.5815,9.5631,9.5609,9.5007,9.4858,9.4491,9.4192,9.1716,9.028,8.8909,8.7229,8.7623,8.9236,9.1091,9.2021,9.2384,9.2673,9.3332,9.3302,9.2972,9.3002,9.381,9.3052,9.3947,9.6062,9.7922,9.9905,10.2304,10.4099,10.5109,10.5276,10.5208,10.4938,10.4938,10.5107,10.5513,10.5919,10.6426,10.6866,10.69,10.69,10.69,10.69,10.6866,10.6629,10.5919,10.5174,10.4363,10.3488,10.1114,9.9339,9.7713,9.4955,9.2796,9.1972,9.1372,9.0939,9.0871,9.1074,9.1607,9.1593,9.2512,9.4888,9.8131,10.0601,10.2101,10.2885,10.3646,10.3472,10.3472,10.3389,10.2226,10.1061,10.1975,10.2908,10.2653,10.309,10.2968,10.3271,10.3367,10.3549,10.3965,10.4102,10.3867,10.431,10.5152,10.8111,11.1565,11.0101,10.8163,10.6029,10.3582,10.3166,10.3984,10.3266,10.195,10.1082,10.0483,9.9137,9.8658,9.8658,9.8538,9.8149,9.7551,9.7521,9.7461,9.7611,9.8059,9.785,9.7222,9.6773,9.6444,9.6114,9.5426,9.4888,9.4798,9.4738,9.4648,9.402,9.4229,9.4558,9.4382,9.1452,8.9749,8.7,8.4179,8.2762,8.4612,8.7042,8.9263,9.129,9.1691,9.2583,9.3092,9.2883,9.3092,9.3122,9.2464,9.3161,9.488,9.7019,9.9075,10.1361,10.4099,10.5109,10.5039,10.5276,10.5039,10.4633,10.4633,10.5039,10.5716,10.6426,10.6764,10.6866,10.69,10.6832,10.6832,10.6764,10.6325,10.5377,10.487,10.4261,10.2925,10.1454,10.0173,9.8411,9.5752,9.3903,9.307,9.2124,9.1668,9.0864,9.1566,9.2194,9.1716,9.2021,9.3864,9.6442,9.912,10.0252,10.0304,10.01,9.9892,9.9749,9.9557,9.9054,9.8472,9.9622,10.0192,9.9841,9.9432,9.9156,9.9093,9.9214,9.9377,9.9677,9.9496,9.9281,9.91,9.913,10.2023,10.4322,10.4115,10.2456,10.0563,9.9668,9.9705,10.4014,10.3296,10.2009,10.1082,10.0393,9.9556,9.8927,9.8568,9.8478,9.8149,9.77,9.794,9.7611,9.7341,9.7371,9.7281,9.6354,9.6114,9.5815,9.5247,9.4768,9.4708,9.4618,9.4558,9.4439,9.4379,9.4558,9.4588,9.4472,9.1277,8.8524,8.5749,8.1633,8.0327,8.3382,8.6405,8.9204,9.1265,9.2045,9.2524,9.2853,9.2733,9.2673,9.2883,9.2015,9.2368,9.3869,9.6117,9.8511,10.0572,10.3274,10.5074,10.4971,10.5141,10.4329,10.4024,10.399,10.4295,10.5005,10.5716,10.6392,10.6629,10.6731,10.6528,10.6291,10.6189,10.5513,10.4769,10.4295,10.3652,10.2614,10.2281,10.1153,9.9665,9.7519,9.572,9.4614,9.3434,9.2575,9.1419,9.1416,9.2135,9.2105,9.1776,9.31,9.3955,9.6295,9.6819,9.6827,9.6595,9.6358,9.6145,9.5993,9.5847,9.6038,9.6783,9.6727,9.6132,9.5443,9.4769,9.481,9.5581,9.542,9.5822,9.5196,9.4729,9.5086,9.5316,9.545,9.6338,9.749,9.8444,9.7679,9.722,9.7366,10.4134,10.3565,10.186,10.0902,10.0423,9.9795,9.9137,9.8598,9.8508,9.8149,9.77,9.797,9.7611,9.6892,9.6623,9.6563,9.5576,9.5306,9.5157,9.4618,9.4618,9.4439,9.4349,9.4409,9.4139,9.4229,9.4379,9.4469,9.3608,9.0897,8.7288,8.3112,7.9573,7.9735,8.2214,8.4719,8.7491,8.9635,9.1049,9.2314,9.2464,9.2404,9.2224,9.2075,9.1746,9.162,9.3054,9.5365,9.8117,9.9938,10.2412,10.4839,10.487,10.4532,10.3787,10.372,10.3652,10.3855,10.4363,10.5005,10.558,10.5919,10.6122,10.5885,10.5513,10.5411,10.4802,10.4092,10.3652,10.3179,10.2705,10.257,10.1914,10.0414,9.9286,9.7519,9.6464,9.5375,9.3512,9.2306,9.172,9.2267,9.2374,9.2165,9.2387,9.2813,9.3322,9.3571,9.393,9.405,9.405,9.3926,9.3742,9.3831,9.3757,9.3667,9.3342,9.2399,9.2224,9.2165,9.2453,9.347,9.2699,9.2105,9.2444,9.2534,9.1947,9.1917,9.2477,9.2845,9.3453,9.4137,9.4414,9.4744,9.4957,10.4278,10.3889,10.1404,10.0174,10.018,9.9522,9.9077,9.8538,9.8538,9.8149,9.7521,9.7521,9.7132,9.6503,9.5935,9.5636,9.5336,9.4858,9.4588,9.4439,9.4259,9.396,9.387,9.402,9.3661,9.3451,9.3541,9.3575,9.2448,8.9906,8.5752,8.1714,7.9793,7.935,8.0294,8.2566,8.5409,8.822,9.0519,9.1607,9.1955,9.1835,9.1626,9.1416,9.1177,9.1237,9.2772,9.543,9.7388,9.976,10.28,10.4069,10.4532,10.4396,10.4126,10.3821,10.3618,10.3618,10.3652,10.4261,10.443,10.4633,10.4498,10.4532,10.4667,10.4633,10.4126,10.3686,10.3314,10.2976,10.2671,10.2603,10.2437,10.1452,10.0617,9.9527,9.8623,9.7084,9.492,9.3678,9.3005,9.2919,9.2363,9.2105,9.1805,9.1776,9.2075,9.2105,9.2494,9.3032,9.3002,9.2823,9.2668,9.2284,9.2105,9.1925,9.1656,9.1237,9.1357,9.1386,9.1536,9.1626,9.1416,9.1177,9.0848,9.0638,9.0608,9.0279,9.0025,9.0394,9.1001,9.1375,9.2134,9.2208,9.232,10.1213,10.0434,9.7319,9.6643,9.7636,9.8496,9.8688,9.8538,9.8538,9.8119,9.7491,9.7491,9.6803,9.5875,9.5666,9.5306,9.4768,9.4289,9.396,9.378,9.3541,9.3152,9.3062,9.3152,9.2913,9.2853,9.2913,9.3032,9.1865,8.938,8.6288,8.2722,7.9961,7.8466,7.8898,8.1001,8.4293,8.7235,8.9732,9.0753,9.1237,9.1087,9.0968,9.0818,9.0788,9.0997,9.2382,9.5853,9.7877,9.9668,10.3836,10.5954,10.6156,10.5648,10.5039,10.3754,10.3551,10.3415,10.3077,10.3483,10.3589,10.2985,10.258,10.3111,10.3483,10.3623,10.3352,10.3077,10.2942,10.2705,10.2603,10.257,10.2536,10.2045,10.1386,10.0852,9.9904,9.8623,9.6496,9.4712,9.4081,9.2941,9.2368,9.1776,9.1476,9.1177,9.1027,9.1027,9.1147,9.1746,9.1955,9.1776,9.1536,9.1237,9.0938,9.0728,9.0459,9.0249,9.0369,9.0579,9.0848,9.0848,9.0549,9.0279,9.001,8.989,8.983,8.9441,8.8993,8.8963,8.9489,8.9575,8.9725,9.0083,9.0077,9.899,9.7399,9.4905,9.4679,9.599,9.6667,9.7302,9.7969,9.8119,9.773,9.7132,9.6833,9.6174,9.5306,9.5127,9.4828,9.4169,9.387,9.3511,9.3092,9.2733,9.2733,9.2613,9.2524,9.2434,9.2404,9.2344,9.2374,9.1041,8.8537,8.5486,8.1302,7.9308,7.8152,7.842,8.0982,8.4165,8.6918,8.9065,9.0127,9.0459,9.0489,9.0489,9.0399,9.0459,9.0968,9.181,9.5633,9.7149,9.833,10.2271,10.4499,10.4706,10.4405,10.4398,10.328,10.3077,10.2908,10.2575,10.1921,10.1787,10.1187,10.0252,9.9975,10.0952,10.1454,10.1881,10.2164,10.2367,10.2536,10.2536,10.2536,10.2536,10.2437,10.2209,10.1914,10.102,9.9972,9.8074,9.6013,9.4556,9.329,9.2404,9.1683,9.1177,9.0938,9.0668,9.0519,9.0459,9.0608,9.0788,9.0698,9.0459,9.019,8.992,8.9771,8.9591,8.9441,8.9412,8.9651,9.004,9.019,9.001,8.9651,8.9232,8.9112,8.8963,8.8634,8.8304,8.8274,8.8215,8.8424,8.8574,8.8696,8.8456,9.7326,9.4699,9.3439,9.3347,9.4665,9.4305,9.5111,9.6714,9.6295,9.6626,9.6237,9.5905,9.5336,9.4828,9.4588,9.4229,9.3721,9.3332,9.2853,9.2494,9.2224,9.2135,9.2165,9.2374,9.1895,9.1835,9.1632,9.1051,8.958,8.6889,8.3132,7.9082,7.8683,7.811,7.8458,8.0808,8.3783,8.6399,8.8594,9.01,9.01,9.0219,9.0339,9.004,9.0309,9.0788,9.1849,9.3261,9.4644,9.6241,9.8245,10.1083,10.1553,10.1845,10.2157,10.1988,10.1454,10.122,10.0685,9.9939,9.9326,9.8567,9.7541,9.7106,9.7867,10.0013,10.0918,10.121,10.1412,10.2069,10.2231,10.2434,10.2536,10.2536,10.2373,10.2209,10.1849,10.0818,9.945,9.756,9.6083,9.4633,9.2742,9.2032,9.1178,9.0789,9.0399,9.013,8.9763,8.9673,8.9733,8.9733,8.9591,8.9441,8.9352,8.9172,8.8873,8.8723,8.8663,8.8933,8.9441,8.9531,8.9531,8.9082,8.8634,8.8274,8.8035,8.7796,8.7556,8.7347,8.7317,8.7407,8.7437,8.7427,8.7197,9.3921,9.1217,8.9963,8.9713,9.008,9.0641,9.1214,9.1537,9.0606,9.2527,9.5227,9.5518,9.4955,9.398,9.3504,9.3147,9.2992,9.1763,9.1936,9.1463,9.1195,9.1135,9.1207,9.1357,9.1087,9.0818,9.03,8.9393,8.7087,8.4093,8.1457,7.8923,7.8034,7.7375,7.8273,8.0644,8.3138,8.6251,8.8143,8.9748,9.013,8.998,8.995,8.998,9.0309,9.0309,9.1389,9.3148,9.4203,9.5415,9.7801,9.912,9.9352,9.9241,9.9094,9.8834,9.871,9.8623,9.828,9.7522,9.6833,9.6238,9.5371,9.5019,9.5833,9.8428,9.9814,10.0052,10.0649,10.1405,10.2062,10.2333,10.2536,10.2536,10.2536,10.2536,10.2502,10.1552,10.0481,9.9052,9.7639,9.5743,9.3654,9.2361,9.1304,9.0617,9.0107,8.9643,8.8936,8.8687,8.8906,8.8886,8.8954,8.8783,8.8723,8.8484,8.8155,8.8125,8.8125,8.8424,8.8813,8.8873,8.8873,8.8484,8.8095,8.7676,8.7317,8.7137,8.6898,8.6509,8.6329,8.6359,8.6068,8.5936,8.5899,9.0685,8.787,8.6909,8.7243,8.8142,8.8088,8.8467,8.9064,8.8402,8.9365,9.1535,9.1779,9.1577,9.1258,9.0763,9.0454,9.0076,8.9144,8.9032,8.9112,8.9445,8.9947,9.0079,9.0413,9.0429,9.019,8.9643,8.8236,8.4643,8.2865,8.0809,7.7535,7.6123,7.6586,7.8116,8.0631,8.3043,8.6735,8.8323,8.921,8.986,8.9531,8.9142,8.9292,8.9382,8.9621,9.0527,9.2073,9.2499,9.3539,9.5353,9.674,9.7061,9.7451,9.7368,9.7144,9.6864,9.625,9.5955,9.5255,9.4459,9.3993,9.2793,9.2211,9.2303,9.464,9.726,9.7827,10.0513,10.1558,10.213,10.2468,10.2502,10.2536,10.2536,10.2536,10.2299,10.1708,10.0352,9.8766,9.754,9.6272,9.4504,9.3605,9.2793,9.2793,9.1825,9.0484,8.9582,8.8147,8.8183,8.7996,8.7976,8.8146,8.8155,8.7826,8.7407,8.7437,8.7616,8.7766,8.8035,8.8215,8.8215,8.7856,8.7437,8.6928,8.6629,8.6359,8.594,8.5521,8.5342,8.5252,8.4976,8.4802,8.5319,8.7879,8.4978,8.4391,8.5528,8.7196,8.5912,8.6081,8.7283,8.6912,8.6312,8.5944,8.5834,8.6025,8.6774,8.6703,8.5957,8.561,8.5914,8.6073,8.6386,8.6597,8.7812,8.8951,8.9763,8.9424,8.8978,8.8598,8.5793,8.2398,8.0816,7.8456,7.496,7.4845,7.5766,7.9215,8.1097,8.2765,8.6603,8.8574,8.8753,8.8753,8.8634,8.8484,8.8334,8.8364,8.9202,8.9801,9.013,9.0392,9.1027,9.2273,9.3188,9.4018,9.4354,9.4663,9.4492,9.4133,9.4241,9.4461,9.3001,9.2707,9.2095,9.0436,8.9789,8.9983,9.136,9.3943,9.6246,9.8952,10.0972,10.1508,10.2434,10.2468,10.2502,10.2502,10.2367,10.2062,10.1724,10.0315,9.8748,9.7712,9.664,9.5674,9.4793,9.4378,9.441,9.3682,9.2458,9.1025,8.9141,8.8135,8.7426,8.6862,8.7065,8.7576,8.7257,8.6838,8.7048,8.7227,8.7197,8.7167,8.7197,8.7227,8.7197,8.6748,8.612,8.5731,8.5402,8.4983,8.4594,8.4564,8.4521,8.4078,8.4185,8.5231,8.6428,8.3813,8.3688,8.4072,8.42,8.2678,8.2204,8.2263,8.1135,8.0189,8.0564,8.0251,8.1629,8.6206,8.5709,8.4757,8.3477,8.3359,8.3592,8.3967,8.3946,8.5546,8.6918,8.7511,8.748,8.7369,8.6603,8.3678,8.1035,7.8813,7.6429,7.381,7.3142,7.5077,7.8977,8.0658,8.2341,8.612,8.7676,8.7706,8.8155,8.8245,8.8604,8.8424,8.8125,8.8514,8.8783,8.8933,8.9023,8.9245,8.969,9.0202,9.0588,9.1013,9.1197,9.1463,9.1078,9.1276,9.1082,9.0551,9.0324,9.0213,8.8894,8.8445,8.8726,8.9264,9.1406,9.297,9.5625,9.8378,9.9584,10.1677,10.2333,10.2367,10.2367,10.1961,10.1589,10.1284,10.0464,9.9503,9.8669,9.759,9.6624,9.5715,9.488,9.4543,9.3664,9.2506,9.15,8.9847,8.8124,8.711,8.6151,8.6585,8.7287,8.6808,8.6509,8.6718,8.6689,8.6389,8.615,8.606,8.606,8.618,8.5761,8.5132,8.4773,8.4594,8.4235,8.3906,8.3936,8.3743,8.3462,8.4153,8.565]}]]